[[{"header":{"parameterUnit":"m.s-1","parameterCategory":1,"la1":31.0,"la2":29.5877,"lo1":-88.7671,"lo2":-86.6584,"dx":0.0162,"dy":0.0185,"nx":115,"ny":88,"refTime":"2022-12-18T18:00:00:Z","depth":0,"parameterNumber":2,"parameterNumberName":"U-component_of_WINDS"},"data":[0.0,0.0,0.0,0.0,0.0,0.0,0.0,0.0,0.0,0.0,0.0,0.0,0.0,0.0,0.0,0.0,0.0,0.0,0.0,0.0,0.0,0.0,0.0,0.0,0.0,0.0,0.0,0.0,0.0,0.0,0.0,0.0,0.0,0.0,0.0,0.0,0.0,0.0,0.0,0.0,0.0,0.0,0.0,0.0,0.0,0.0,0.0,0.0,0.0,0.0,0.0,0.0,0.0,0.0,0.0,0.0,0.0,0.0,0.0,0.0,0.0,0.0,0.0,0.0,0.0,0.0,0.0,0.0,0.0,0.0,0.0,0.0,0.0,0.0,0.0,0.0,0.0,0.0,0.0,0.0,0.0,0.0,0.0,0.0,0.0,0.0,0.0,0.0,0.0,0.0,0.0,0.0,0.0,0.0,0.0,0.0,0.0,0.0,0.0,0.0,0.0,0.0,0.0,0.0,0.0,0.0,0.0,0.0,0.0,0.0,0.0,0.0,0.0,0.0,0.0,0.0,0.0,0.0,0.0,0.0,0.0,0.0,0.0,0.0,0.0,0.0,0.0,0.0,0.0,0.0,0.0,0.0,0.0,0.0,0.0,0.0,0.0,0.0,0.0,0.0,0.0,0.0,0.0,0.0,0.0,0.0,0.0,0.0,0.0,0.0,0.0,0.0,0.0,0.0,0.0,0.0,0.0,0.0,0.0,0.0,0.0,0.0,0.0,0.0,0.0,0.0,0.0,0.0,0.0,0.0,0.0,0.0,0.0,0.0,0.0,0.0,0.0,0.0,0.0,0.0,0.0,0.0,0.0,0.0,0.0,0.0,0.0,0.0,0.0,0.0,0.0,0.0,0.0,0.0,0.0,0.0,0.0,0.0,0.0,0.0,0.0,0.0,0.0,0.0,0.0,0.0,0.0,0.0,0.0,0.0,0.0,0.0,0.0,0.0,0.0,0.0,0.0,0.0,0.0,0.0,0.0,0.0,0.0,0.0,0.0,0.0,0.0,0.0,0.0,0.0,0.0,0.0,0.0,0.0,0.0,0.0,0.0,0.0,0.0,0.0,0.0,0.0,0.0,0.0,0.0,0.0,0.0,0.0,0.0,0.0,0.0,0.0,0.0,0.0,0.0,0.0,0.0,0.0,0.0,0.0,0.0,0.0,0.0,0.0,0.0,0.0,0.0,0.0,0.0,0.0,0.0,0.0,0.0,0.0,0.0,0.0,0.0,0.0,0.0,0.0,0.0,0.0,0.0,0.0,0.0,0.0,0.0,0.0,0.0,0.0,0.0,0.0,0.0,0.0,0.0,0.0,0.0,0.0,0.0,0.0,0.0,0.0,0.0,0.0,0.0,0.0,0.0,0.0,0.0,0.0,0.0,0.0,0.0,0.0,0.0,0.0,0.0,0.0,0.0,0.0,0.0,0.0,0.0,0.0,0.0,0.0,0.0,0.0,0.0,0.0,0.0,0.0,0.0,0.0,0.0,0.0,0.0,0.0,0.0,0.0,0.0,0.0,0.0,0.0,0.0,0.0,0.0,0.0,0.0,0.0,0.0,0.0,0.0,0.0,0.0,0.0,0.0,0.0,0.0,0.0,0.0,0.0,0.0,0.0,0.0,0.0,0.0,0.0,0.0,0.0,0.0,0.0,0.0,0.0,0.0,0.0,0.0,0.0,0.0,0.0,0.0,0.0,0.0,0.0,0.0,0.0,0.0,0.0,0.0,0.0,0.0,0.0,0.0,0.0,0.0,0.0,0.0,0.0,0.0,0.0,0.0,0.0,0.0,0.0,0.0,0.0,0.0,0.0,0.0,0.0,0.0,0.0,0.0,0.0,0.0,0.0,0.0,0.0,0.0,0.0,0.0,0.0,0.0,0.0,0.0,0.0,0.0,0.0,0.0,0.0,0.0,0.0,0.0,0.0,0.0,0.0,0.0,0.0,0.0,0.0,0.0,0.0,0.0,0.0,0.0,0.0,0.0,0.0,0.0,0.0,0.0,0.0,0.0,0.0,0.0,0.0,0.0,0.0,0.0,0.0,0.0,0.0,0.0,0.0,0.0,0.0,0.0,0.0,0.0,0.0,0.0,0.0,0.0,0.0,0.0,0.0,0.0,0.0,0.0,0.0,0.0,0.0,0.0,0.0,0.0,0.0,0.0,0.0,0.0,0.0,0.0,0.0,0.0,0.0,0.0,0.0,0.0,0.0,0.0,0.0,0.0,0.0,0.0,0.0,0.0,0.0,0.0,0.0,0.0,0.0,0.0,0.0,0.0,0.0,0.0,0.0,0.0,0.0,0.0,0.0,0.0,0.0,0.0,0.0,0.0,0.0,0.0,0.0,0.0,0.0,0.0,0.0,0.0,0.0,0.0,0.0,0.0,0.0,0.0,0.0,0.0,0.0,0.0,0.0,0.0,0.0,0.0,0.0,0.0,0.0,0.0,0.0,0.0,0.0,0.0,0.0,0.0,0.0,0.0,0.0,0.0,0.0,0.0,0.0,0.0,0.0,0.0,0.0,0.0,0.0,0.0,0.0,0.0,0.0,0.0,0.0,0.0,0.0,0.0,0.0,0.0,0.0,0.0,0.0,0.0,0.0,0.0,0.0,0.0,0.0,0.0,0.0,0.0,0.0,0.0,0.0,0.0,0.0,0.0,0.0,0.0,0.0,0.0,0.0,0.0,0.0,0.0,0.0,0.0,0.0,0.0,0.0,0.0,0.0,0.0,0.0,0.0,0.0,0.0,0.0,0.0,0.0,0.0,0.0,0.0,0.0,0.0,0.0,0.0,0.0,0.0,0.0,0.0,0.0,0.0,0.0,0.0,0.0,0.0,0.0,0.0,0.0,0.0,0.0,0.0,0.0,0.0,0.0,0.0,0.0,0.0,0.0,0.0,0.0,0.0,0.0,0.0,0.0,0.0,0.0,0.0,0.0,0.0,0.0,0.0,0.0,0.0,0.0,0.0,0.0,0.0,0.0,0.0,0.0,0.0,0.0,0.0,0.0,0.0,0.0,0.0,0.0,0.0,0.0,0.0,0.0,0.0,0.0,0.0,0.0,0.0,0.0,0.0,0.0,0.0,0.0,0.0,0.0,0.0,0.0,0.0,0.0,0.0,0.0,0.0,0.0,0.0,0.0,0.0,0.0,0.0,0.0,0.0,0.0,0.0,0.0,0.0,0.0,0.0,0.0,0.0,0.0,0.0,0.0,0.0,0.0,0.0,0.0,0.0,0.0,0.0,0.0,0.0,0.0,0.0,0.0,0.0,0.0,0.0,0.0,0.0,0.0,0.0,0.0,0.0,0.0,0.0,0.0,0.0,0.0,0.0,0.0,0.0,0.0,0.0,0.0,0.0,0.0,0.0,0.0,0.0,0.0,0.0,0.0,0.0,0.0,0.0,0.0,0.0,0.0,0.0,0.0,0.0,0.0,0.0,0.0,0.0,0.0,0.0,0.0,0.0,0.0,0.0,0.0,0.0,0.0,0.0,0.0,0.0,0.0,0.0,0.0,0.0,0.0,0.0,0.0,0.0,0.0,0.0,0.0,0.0,0.0,0.0,0.0,0.0,0.0,0.0,0.0,0.0,0.0,0.0,0.0,0.0,0.0,0.0,0.0,0.0,0.0,0.0,0.0,0.0,0.0,0.0,0.0,0.0,0.0,0.0,0.0,0.0,0.0,0.0,0.0,0.0,0.0,0.0,0.0,0.0,0.0,0.0,0.0,0.0,0.0,0.0,0.0,0.0,0.0,0.0,0.0,0.0,0.0,0.0,0.0,0.0,0.0,0.0,0.0,0.0,0.0,0.0,0.0,0.0,0.0,0.0,0.0,0.0,0.0,0.0,0.0,0.0,0.0,0.0,0.0,0.0,0.0,0.0,0.0,0.0,0.0,0.0,0.0,0.0,0.0,0.0,0.0,0.0,0.0,0.0,0.0,0.0,0.0,0.0,0.0,0.0,0.0,0.0,0.0,0.0,0.0,0.0,0.0,0.0,0.0,0.0,0.0,0.0,0.0,0.0,0.0,0.0,0.0,0.0,0.0,0.0,0.0,0.0,0.0,0.0,0.0,0.0,0.0,0.0,0.0,0.0,0.0,0.0,0.0,0.0,0.0,0.0,0.0,0.0,0.0,0.0,0.0,0.0,0.0,0.0,0.0,0.0,0.0,0.0,0.0,0.0,0.0,0.0,0.0,0.0,0.0,0.0,0.0,0.0,0.0,0.0,0.0,0.0,0.0,0.0,0.0,0.0,0.0,0.0,0.0,5.6719,0.0,0.0,0.0,5.651,0.0,0.0,0.0,0.0,0.0,0.0,0.0,0.0,0.0,0.0,0.0,0.0,0.0,0.0,0.0,0.0,0.0,0.0,0.0,0.0,0.0,0.0,0.0,0.0,0.0,0.0,0.0,0.0,0.0,0.0,0.0,0.0,0.0,0.0,0.0,0.0,0.0,0.0,0.0,0.0,0.0,0.0,0.0,0.0,0.0,0.0,0.0,0.0,0.0,0.0,0.0,0.0,0.0,0.0,0.0,0.0,0.0,0.0,0.0,0.0,0.0,0.0,0.0,0.0,0.0,0.0,0.0,0.0,0.0,0.0,0.0,0.0,0.0,0.0,0.0,0.0,0.0,0.0,0.0,0.0,0.0,0.0,0.0,0.0,0.0,0.0,0.0,0.0,0.0,0.0,0.0,0.0,0.0,0.0,0.0,0.0,0.0,0.0,0.0,0.0,0.0,0.0,0.0,0.0,0.0,0.0,0.0,0.0,0.0,0.0,5.6824,5.5935,5.5674,5.5778,5.6301,0.0,0.0,0.0,0.0,0.0,0.0,0.0,0.0,0.0,0.0,0.0,0.0,0.0,0.0,0.0,0.0,0.0,0.0,0.0,0.0,0.0,0.0,0.0,0.0,0.0,0.0,0.0,0.0,0.0,0.0,0.0,0.0,0.0,0.0,0.0,0.0,0.0,0.0,0.0,0.0,0.0,0.0,0.0,0.0,0.0,0.0,0.0,0.0,0.0,0.0,0.0,0.0,0.0,0.0,0.0,0.0,0.0,0.0,0.0,0.0,0.0,0.0,0.0,0.0,0.0,0.0,0.0,0.0,0.0,0.0,0.0,0.0,0.0,0.0,0.0,0.0,0.0,0.0,0.0,0.0,0.0,0.0,0.0,0.0,0.0,0.0,0.0,0.0,0.0,0.0,0.0,0.0,0.0,0.0,0.0,0.0,0.0,0.0,0.0,0.0,0.0,0.0,0.0,0.0,0.0,0.0,0.0,0.0,0.0,0.0,0.0,0.0,5.5726,5.5778,5.5935,0.0,0.0,0.0,0.0,0.0,0.0,0.0,0.0,0.0,0.0,0.0,0.0,0.0,0.0,0.0,0.0,0.0,0.0,0.0,0.0,0.0,0.0,0.0,0.0,0.0,0.0,0.0,0.0,0.0,0.0,0.0,0.0,0.0,0.0,0.0,0.0,0.0,0.0,0.0,0.0,0.0,0.0,0.0,0.0,0.0,0.0,0.0,0.0,0.0,0.0,0.0,0.0,0.0,0.0,0.0,0.0,0.0,0.0,0.0,0.0,0.0,0.0,0.0,0.0,0.0,0.0,0.0,0.0,0.0,0.0,0.0,0.0,0.0,0.0,0.0,0.0,0.0,0.0,0.0,0.0,0.0,0.0,0.0,0.0,0.0,0.0,0.0,0.0,0.0,0.0,0.0,0.0,0.0,0.0,0.0,0.0,0.0,0.0,0.0,0.0,0.0,0.0,0.0,0.0,0.0,0.0,0.0,0.0,0.0,0.0,5.651,5.7399,5.5987,0.0,5.5883,0.0,0.0,0.0,0.0,0.0,0.0,0.0,0.0,0.0,0.0,0.0,0.0,0.0,0.0,0.0,0.0,0.0,0.0,0.0,0.0,0.0,0.0,0.0,0.0,0.0,0.0,0.0,0.0,0.0,0.0,0.0,0.0,0.0,0.0,0.0,0.0,0.0,0.0,0.0,0.0,0.0,0.0,0.0,0.0,0.0,0.0,0.0,0.0,0.0,0.0,0.0,0.0,0.0,0.0,0.0,0.0,0.0,0.0,0.0,0.0,0.0,0.0,0.0,0.0,0.0,0.0,0.0,0.0,0.0,0.0,0.0,0.0,0.0,0.0,0.0,0.0,0.0,0.0,0.0,0.0,0.0,0.0,0.0,0.0,0.0,0.0,0.0,0.0,0.0,0.0,0.0,0.0,0.0,0.0,0.0,0.0,0.0,0.0,0.0,0.0,0.0,0.0,0.0,0.0,0.0,0.0,0.0,0.0,0.0,0.0,5.7033,5.7137,5.7137,5.6928,0.0,0.0,0.0,0.0,0.0,0.0,0.0,0.0,0.0,0.0,0.0,0.0,0.0,0.0,0.0,0.0,0.0,0.0,0.0,0.0,0.0,0.0,0.0,0.0,0.0,0.0,0.0,0.0,0.0,0.0,0.0,0.0,0.0,0.0,0.0,0.0,0.0,0.0,0.0,0.0,0.0,0.0,0.0,0.0,0.0,0.0,0.0,0.0,0.0,0.0,0.0,0.0,0.0,0.0,0.0,0.0,0.0,0.0,0.0,0.0,0.0,0.0,0.0,0.0,0.0,0.0,0.0,0.0,0.0,0.0,0.0,0.0,0.0,0.0,0.0,0.0,0.0,0.0,0.0,0.0,0.0,0.0,0.0,0.0,0.0,0.0,0.0,0.0,0.0,0.0,0.0,0.0,0.0,0.0,0.0,0.0,0.0,0.0,0.0,0.0,0.0,0.0,0.0,0.0,0.0,0.0,0.0,0.0,0.0,0.0,5.7399,5.7294,5.7085,5.7817,5.7974,5.7294,0.0,0.0,0.0,0.0,0.0,0.0,0.0,0.0,0.0,0.0,0.0,0.0,0.0,0.0,0.0,0.0,0.0,0.0,0.0,0.0,0.0,0.0,0.0,0.0,0.0,0.0,0.0,0.0,0.0,0.0,0.0,0.0,0.0,0.0,0.0,0.0,0.0,0.0,0.0,0.0,0.0,0.0,0.0,0.0,0.0,0.0,0.0,0.0,0.0,0.0,0.0,0.0,0.0,0.0,0.0,0.0,0.0,0.0,0.0,0.0,0.0,0.0,0.0,0.0,0.0,0.0,0.0,0.0,0.0,0.0,0.0,0.0,0.0,0.0,0.0,0.0,0.0,0.0,0.0,0.0,0.0,0.0,0.0,0.0,0.0,0.0,0.0,0.0,0.0,0.0,0.0,0.0,0.0,0.0,0.0,0.0,0.0,0.0,0.0,0.0,0.0,0.0,0.0,0.0,0.0,0.0,0.0,0.0,5.8392,5.7451,5.7137,5.7608,5.7712,5.7921,0.0,0.0,0.0,0.0,0.0,0.0,0.0,0.0,0.0,0.0,0.0,0.0,0.0,0.0,0.0,0.0,0.0,0.0,0.0,0.0,0.0,0.0,0.0,0.0,0.0,0.0,0.0,0.0,0.0,0.0,0.0,0.0,0.0,0.0,0.0,0.0,0.0,0.0,0.0,0.0,0.0,0.0,0.0,0.0,0.0,0.0,0.0,0.0,0.0,0.0,0.0,0.0,0.0,0.0,0.0,0.0,0.0,0.0,0.0,0.0,0.0,0.0,0.0,0.0,0.0,0.0,0.0,0.0,0.0,0.0,0.0,0.0,0.0,0.0,0.0,0.0,0.0,0.0,0.0,0.0,0.0,0.0,0.0,0.0,0.0,0.0,0.0,0.0,0.0,0.0,0.0,0.0,0.0,0.0,0.0,0.0,0.0,0.0,0.0,0.0,0.0,0.0,0.0,0.0,0.0,0.0,0.0,0.0,0.0,5.9072,5.9019,5.8915,5.881,5.949,5.9594,0.0,0.0,0.0,0.0,0.0,0.0,0.0,0.0,0.0,0.0,0.0,0.0,0.0,0.0,0.0,0.0,0.0,0.0,0.0,0.0,0.0,0.0,0.0,0.0,0.0,0.0,0.0,0.0,0.0,0.0,0.0,0.0,0.0,0.0,0.0,0.0,0.0,0.0,0.0,0.0,0.0,0.0,0.0,0.0,0.0,0.0,0.0,0.0,0.0,0.0,0.0,0.0,0.0,0.0,0.0,0.0,0.0,0.0,0.0,0.0,0.0,0.0,0.0,0.0,0.0,0.0,0.0,0.0,0.0,0.0,0.0,0.0,0.0,0.0,0.0,0.0,0.0,0.0,0.0,0.0,0.0,0.0,0.0,0.0,0.0,0.0,0.0,0.0,0.0,0.0,0.0,0.0,0.0,0.0,0.0,0.0,0.0,0.0,0.0,0.0,0.0,0.0,0.0,0.0,0.0,0.0,0.0,0.0,0.0,5.996,6.0483,6.0588,6.0274,6.0953,6.111,0.0,0.0,0.0,0.0,0.0,0.0,0.0,0.0,0.0,0.0,0.0,0.0,0.0,0.0,0.0,0.0,0.0,0.0,0.0,0.0,0.0,0.0,0.0,0.0,0.0,0.0,0.0,0.0,0.0,0.0,0.0,0.0,0.0,0.0,0.0,0.0,0.0,0.0,0.0,0.0,0.0,0.0,0.0,0.0,0.0,0.0,0.0,0.0,0.0,0.0,0.0,0.0,0.0,0.0,0.0,0.0,0.0,0.0,0.0,0.0,0.0,0.0,0.0,0.0,0.0,0.0,0.0,0.0,0.0,0.0,0.0,0.0,0.0,0.0,0.0,0.0,0.0,0.0,0.0,0.0,0.0,0.0,0.0,0.0,0.0,0.0,0.0,0.0,0.0,0.0,0.0,0.0,0.0,0.0,0.0,0.0,0.0,0.0,0.0,0.0,0.0,0.0,0.0,0.0,0.0,0.0,0.0,0.0,6.1163,6.1215,6.1738,6.1999,6.1999,6.2051,6.226,0.0,0.0,0.0,0.0,0.0,0.0,0.0,0.0,0.0,0.0,0.0,0.0,0.0,0.0,0.0,0.0,0.0,0.0,0.0,0.0,0.0,0.0,0.0,0.0,0.0,0.0,0.0,0.0,0.0,0.0,0.0,0.0,0.0,0.0,0.0,0.0,0.0,0.0,0.0,0.0,0.0,0.0,0.0,0.0,0.0,0.0,0.0,0.0,0.0,0.0,0.0,0.0,0.0,0.0,0.0,0.0,0.0,0.0,0.0,0.0,0.0,0.0,0.0,0.0,0.0,0.0,0.0,0.0,0.0,0.0,0.0,0.0,0.0,0.0,0.0,0.0,0.0,0.0,0.0,0.0,0.0,0.0,0.0,0.0,0.0,0.0,0.0,0.0,0.0,0.0,0.0,0.0,0.0,0.0,0.0,0.0,0.0,0.0,0.0,0.0,0.0,0.0,0.0,0.0,0.0,0.0,0.0,0.0,0.0,6.3515,6.3672,6.3724,6.3724,6.3724,6.3463,0.0,0.0,0.0,0.0,0.0,0.0,0.0,0.0,0.0,0.0,0.0,0.0,0.0,0.0,0.0,0.0,0.0,0.0,0.0,0.0,0.0,0.0,0.0,0.0,0.0,0.0,0.0,0.0,0.0,0.0,0.0,0.0,0.0,0.0,0.0,0.0,0.0,0.0,0.0,0.0,0.0,0.0,0.0,0.0,0.0,0.0,0.0,0.0,0.0,0.0,0.0,0.0,0.0,0.0,0.0,0.0,0.0,0.0,0.0,0.0,0.0,0.0,0.0,0.0,0.0,0.0,0.0,0.0,0.0,0.0,0.0,0.0,0.0,0.0,0.0,0.0,0.0,0.0,0.0,0.0,0.0,0.0,0.0,0.0,0.0,0.0,0.0,0.0,0.0,0.0,0.0,0.0,0.0,0.0,0.0,0.0,0.0,0.0,0.0,0.0,0.0,0.0,0.0,0.0,0.0,0.0,0.0,0.0,0.0,6.5815,6.5188,6.4874,6.4874,6.4665,6.4508,6.4404,0.0,0.0,0.0,0.0,0.0,0.0,0.0,0.0,0.0,0.0,0.0,0.0,0.0,0.0,0.0,0.0,0.0,0.0,0.0,0.0,0.0,0.0,0.0,0.0,0.0,0.0,0.0,0.0,0.0,0.0,0.0,0.0,0.0,0.0,0.0,0.0,0.0,0.0,0.0,0.0,0.0,0.0,0.0,0.0,0.0,0.0,0.0,0.0,0.0,0.0,0.0,0.0,0.0,0.0,0.0,0.0,0.0,0.0,0.0,0.0,0.0,0.0,0.0,0.0,0.0,0.0,0.0,0.0,0.0,0.0,0.0,0.0,0.0,0.0,0.0,0.0,0.0,0.0,0.0,0.0,0.0,0.0,0.0,0.0,0.0,0.0,0.0,0.0,0.0,0.0,0.0,0.0,0.0,0.0,0.0,0.0,0.0,0.0,0.0,0.0,0.0,0.0,0.0,0.0,0.0,0.0,0.0,0.0,6.8063,6.639,6.5501,6.5501,6.4926,6.5397,0.0,0.0,0.0,0.0,0.0,0.0,0.0,0.0,0.0,0.0,0.0,0.0,0.0,0.0,0.0,0.0,0.0,0.0,0.0,0.0,0.0,0.0,0.0,0.0,0.0,0.0,0.0,0.0,0.0,0.0,0.0,0.0,0.0,0.0,0.0,0.0,0.0,0.0,0.0,0.0,0.0,0.0,0.0,0.0,0.0,0.0,0.0,0.0,0.0,0.0,0.0,0.0,0.0,0.0,0.0,0.0,0.0,0.0,0.0,0.0,0.0,0.0,0.0,0.0,0.0,0.0,0.0,0.0,0.0,0.0,0.0,0.0,0.0,0.0,0.0,0.0,0.0,0.0,0.0,0.0,0.0,0.0,0.0,0.0,0.0,0.0,0.0,0.0,0.0,0.0,0.0,0.0,0.0,0.0,0.0,0.0,0.0,0.0,0.0,0.0,0.0,0.0,0.0,0.0,0.0,0.0,0.0,0.0,0.0,6.9161,6.7592,6.6652,6.6652,6.6129,6.6024,0.0,0.0,0.0,0.0,0.0,0.0,0.0,0.0,0.0,0.0,0.0,0.0,0.0,0.0,0.0,0.0,0.0,0.0,0.0,0.0,0.0,0.0,0.0,0.0,0.0,0.0,0.0,0.0,0.0,0.0,0.0,0.0,0.0,0.0,0.0,0.0,0.0,0.0,0.0,0.0,0.0,0.0,0.0,0.0,0.0,0.0,0.0,0.0,0.0,0.0,0.0,0.0,0.0,0.0,0.0,0.0,0.0,0.0,0.0,0.0,0.0,0.0,0.0,0.0,0.0,0.0,0.0,0.0,0.0,0.0,0.0,0.0,0.0,0.0,0.0,0.0,0.0,0.0,0.0,0.0,0.0,0.0,0.0,0.0,0.0,0.0,0.0,0.0,0.0,0.0,0.0,0.0,0.0,0.0,0.0,0.0,0.0,0.0,0.0,0.0,0.0,0.0,0.0,0.0,0.0,0.0,0.0,0.0,6.8899,7.0049,6.8377,6.7592,6.7802,6.6599,6.6495,0.0,0.0,0.0,0.0,0.0,0.0,0.0,0.0,0.0,0.0,0.0,0.0,0.0,0.0,0.0,0.0,0.0,0.0,0.0,0.0,0.0,0.0,0.0,0.0,0.0,0.0,0.0,0.0,0.0,0.0,0.0,0.0,0.0,0.0,0.0,0.0,0.0,0.0,0.0,0.0,0.0,0.0,0.0,0.0,0.0,0.0,0.0,0.0,0.0,0.0,0.0,0.0,0.0,0.0,0.0,0.0,0.0,0.0,0.0,0.0,0.0,0.0,0.0,0.0,0.0,0.0,0.0,0.0,0.0,0.0,0.0,0.0,0.0,0.0,0.0,0.0,0.0,0.0,0.0,0.0,0.0,0.0,0.0,0.0,0.0,0.0,0.0,0.0,0.0,0.0,0.0,0.0,0.0,0.0,0.0,0.0,0.0,0.0,0.0,0.0,0.0,0.0,0.0,0.0,0.0,0.0,0.0,0.0,6.9579,7.0834,6.9056,6.8429,6.9004,6.6913,6.6965,0.0,0.0,0.0,0.0,0.0,0.0,0.0,0.0,0.0,0.0,0.0,0.0,0.0,0.0,0.0,0.0,0.0,0.0,0.0,0.0,0.0,0.0,0.0,0.0,0.0,0.0,0.0,0.0,0.0,0.0,0.0,0.0,0.0,0.0,0.0,0.0,0.0,0.0,0.0,0.0,0.0,0.0,0.0,0.0,0.0,0.0,0.0,0.0,0.0,0.0,0.0,0.0,0.0,0.0,0.0,0.0,0.0,0.0,0.0,0.0,0.0,0.0,0.0,0.0,0.0,0.0,0.0,0.0,0.0,0.0,0.0,0.0,0.0,0.0,0.0,0.0,0.0,0.0,0.0,0.0,0.0,0.0,0.0,0.0,0.0,0.0,0.0,0.0,0.0,0.0,0.0,0.0,0.0,0.0,0.0,0.0,0.0,0.0,0.0,0.0,0.0,0.0,0.0,0.0,0.0,0.0,0.0,0.0,7.052,7.2454,6.9997,6.937,7.0834,6.9056,6.8586,0.0,0.0,0.0,0.0,0.0,0.0,0.0,0.0,0.0,0.0,0.0,0.0,0.0,0.0,0.0,0.0,0.0,0.0,0.0,0.0,0.0,0.0,0.0,0.0,0.0,0.0,0.0,0.0,0.0,0.0,0.0,0.0,0.0,0.0,0.0,0.0,0.0,0.0,0.0,0.0,0.0,0.0,0.0,0.0,0.0,0.0,0.0,0.0,5.2212,0.0,0.0,0.0,0.0,0.0,0.0,0.0,0.0,0.0,0.0,0.0,0.0,0.0,0.0,0.0,0.0,0.0,0.0,0.0,0.0,0.0,0.0,0.0,0.0,0.0,0.0,0.0,0.0,0.0,0.0,0.0,0.0,0.0,0.0,0.0,0.0,0.0,0.0,0.0,0.0,0.0,0.0,0.0,0.0,0.0,0.0,0.0,0.0,0.0,0.0,0.0,0.0,0.0,0.0,0.0,0.0,0.0,0.0,0.0,7.1356,7.2245,7.1095,7.052,7.0572,7.0259,7.0049,0.0,0.0,0.0,0.0,0.0,0.0,0.0,0.0,0.0,0.0,0.0,0.0,0.0,0.0,0.0,0.0,0.0,0.0,0.0,0.0,0.0,0.0,0.0,0.0,0.0,0.0,0.0,0.0,0.0,0.0,0.0,0.0,0.0,0.0,0.0,0.0,0.0,0.0,0.0,0.0,0.0,0.0,0.0,0.0,0.0,0.0,0.0,0.0,0.0,0.0,0.0,0.0,0.0,0.0,0.0,0.0,0.0,0.0,0.0,0.0,0.0,0.0,0.0,0.0,0.0,0.0,0.0,0.0,0.0,0.0,0.0,0.0,0.0,0.0,0.0,0.0,0.0,0.0,0.0,0.0,0.0,0.0,0.0,0.0,0.0,0.0,0.0,0.0,0.0,0.0,0.0,0.0,0.0,0.0,0.0,0.0,0.0,0.0,0.0,0.0,0.0,0.0,0.0,0.0,0.0,0.0,0.0,7.214,7.2245,7.1984,7.2245,7.1775,7.0415,7.1043,7.1252,7.0834,0.0,0.0,0.0,0.0,0.0,0.0,0.0,0.0,0.0,0.0,0.0,0.0,0.0,0.0,0.0,0.0,0.0,0.0,0.0,0.0,0.0,0.0,0.0,0.0,0.0,0.0,0.0,0.0,0.0,0.0,0.0,0.0,0.0,0.0,0.0,0.0,0.0,0.0,4.964,5.088,0.0,0.0,0.0,0.0,0.0,0.0,0.0,0.0,5.4278,0.0,0.0,0.0,0.0,0.0,0.0,0.0,0.0,0.0,0.0,0.0,0.0,0.0,0.0,0.0,0.0,0.0,0.0,0.0,0.0,0.0,0.0,0.0,0.0,0.0,0.0,0.0,0.0,0.0,0.0,0.0,0.0,0.0,0.0,0.0,0.0,0.0,0.0,0.0,0.0,0.0,0.0,0.0,0.0,0.0,0.0,0.0,0.0,0.0,0.0,0.0,0.0,0.0,0.0,0.0,0.0,7.313,7.3015,7.3395,7.4284,7.3447,7.3081,7.3238,7.2088,7.1618,7.1931,0.0,0.0,0.0,0.0,0.0,0.0,0.0,0.0,0.0,0.0,0.0,0.0,0.0,0.0,0.0,0.0,0.0,0.0,0.0,0.0,0.0,0.0,0.0,0.0,0.0,0.0,0.0,0.0,0.0,0.0,0.0,0.0,0.0,0.0,0.0,0.0,0.0,0.0,0.0,5.2901,5.3957,0.0,0.0,0.0,0.0,0.0,0.0,0.0,0.0,5.4921,0.0,0.0,0.0,0.0,0.0,0.0,0.0,0.0,0.0,0.0,0.0,0.0,0.0,0.0,0.0,0.0,0.0,0.0,0.0,0.0,0.0,0.0,0.0,0.0,0.0,0.0,0.0,0.0,0.0,0.0,0.0,0.0,0.0,0.0,0.0,0.0,0.0,0.0,0.0,0.0,0.0,0.0,0.0,0.0,0.0,0.0,0.0,0.0,0.0,0.0,0.0,0.0,0.0,0.0,0.0,7.4966,7.4717,7.4754,7.5329,7.5329,7.4911,7.4022,7.3186,7.2716,0.0,0.0,0.0,0.0,0.0,0.0,0.0,0.0,0.0,0.0,0.0,0.0,0.0,0.0,0.0,0.0,0.0,0.0,0.0,0.0,0.0,0.0,0.0,0.0,0.0,0.0,0.0,0.0,0.0,0.0,0.0,0.0,0.0,0.0,0.0,0.0,0.0,0.0,0.0,0.0,5.414,5.5013,5.6482,0.0,0.0,0.0,0.0,0.0,0.0,5.7685,5.6821,0.0,0.0,0.0,0.0,0.0,0.0,0.0,0.0,0.0,0.0,0.0,0.0,0.0,0.0,0.0,0.0,0.0,0.0,0.0,0.0,0.0,0.0,0.0,0.0,0.0,0.0,0.0,0.0,0.0,0.0,0.0,0.0,0.0,0.0,0.0,0.0,0.0,0.0,0.0,0.0,0.0,0.0,0.0,0.0,0.0,0.0,0.0,0.0,0.0,0.0,0.0,0.0,0.0,0.0,0.0,7.6902,7.6479,7.6166,7.6113,7.7107,7.6636,7.4597,7.4179,7.3813,0.0,0.0,0.0,0.0,0.0,0.0,0.0,0.0,0.0,0.0,0.0,0.0,0.0,0.0,0.0,0.0,0.0,0.0,0.0,0.0,0.0,0.0,0.0,0.0,0.0,0.0,0.0,0.0,0.0,0.0,0.0,0.0,0.0,0.0,0.0,0.0,0.0,0.0,0.0,0.0,0.0,5.6161,5.7171,5.8549,0.0,0.0,0.0,0.0,6.1299,5.9389,0.0,0.0,0.0,0.0,0.0,0.0,0.0,0.0,0.0,0.0,0.0,0.0,0.0,0.0,0.0,0.0,0.0,0.0,0.0,0.0,0.0,0.0,0.0,0.0,0.0,0.0,0.0,0.0,0.0,0.0,0.0,0.0,0.0,0.0,0.0,0.0,0.0,0.0,0.0,0.0,0.0,0.0,0.0,0.0,0.0,0.0,0.0,0.0,0.0,0.0,0.0,0.0,0.0,0.0,0.0,0.0,7.9169,7.8323,7.7734,7.7316,7.7891,7.7629,7.6323,7.4807,7.4232,0.0,0.0,0.0,0.0,0.0,0.0,0.0,0.0,0.0,0.0,0.0,0.0,0.0,0.0,0.0,0.0,0.0,0.0,0.0,0.0,0.0,0.0,0.0,0.0,0.0,0.0,0.0,0.0,0.0,0.0,0.0,0.0,0.0,0.0,0.0,0.0,0.0,0.0,0.0,0.0,0.0,5.8227,5.9238,6.0294,6.0983,0.0,0.0,6.0248,6.0521,5.9692,0.0,0.0,0.0,0.0,0.0,0.0,0.0,0.0,0.0,0.0,0.0,0.0,0.0,0.0,0.0,0.0,0.0,0.0,0.0,0.0,0.0,0.0,0.0,0.0,0.0,0.0,0.0,0.0,0.0,0.0,0.0,0.0,0.0,0.0,0.0,0.0,0.0,0.0,0.0,0.0,0.0,0.0,0.0,0.0,0.0,0.0,0.0,0.0,0.0,0.0,0.0,0.0,0.0,0.0,0.0,7.9962,8.0513,7.904,7.8361,7.8466,7.9302,7.9355,7.857,7.6898,7.627,0.0,0.0,0.0,0.0,0.0,0.0,0.0,0.0,0.0,0.0,0.0,0.0,0.0,0.0,0.0,0.0,0.0,0.0,0.0,0.0,0.0,0.0,0.0,0.0,0.0,0.0,0.0,0.0,0.0,0.0,0.0,0.0,0.0,0.0,0.0,0.0,0.0,0.0,0.0,0.0,0.0,0.0,6.0674,6.2304,0.0,0.0,0.0,6.221,6.2539,0.0,0.0,0.0,0.0,0.0,0.0,0.0,0.0,0.0,0.0,0.0,0.0,0.0,0.0,0.0,0.0,0.0,0.0,0.0,0.0,0.0,0.0,0.0,0.0,0.0,0.0,0.0,0.0,0.0,0.0,0.0,0.0,0.0,0.0,0.0,0.0,0.0,0.0,0.0,0.0,0.0,0.0,0.0,0.0,0.0,0.0,0.0,0.0,0.0,0.0,0.0,0.0,0.0,0.0,0.0,0.0,0.0,8.1959,8.0001,7.9145,7.9616,8.0557,8.0661,7.9825,7.857,0.0,0.0,0.0,0.0,0.0,0.0,0.0,0.0,0.0,0.0,0.0,0.0,0.0,0.0,0.0,0.0,0.0,0.0,0.0,0.0,0.0,0.0,0.0,0.0,0.0,0.0,0.0,5.8549,0.0,0.0,0.0,0.0,0.0,0.0,0.0,0.0,0.0,0.0,0.0,0.0,0.0,0.0,6.1149,6.1686,6.342,6.4039,0.0,0.0,6.3326,6.375,6.2131,6.1302,0.0,0.0,0.0,0.0,0.0,0.0,0.0,0.0,0.0,0.0,0.0,0.0,0.0,0.0,0.0,0.0,0.0,0.0,0.0,0.0,0.0,0.0,0.0,0.0,0.0,0.0,0.0,0.0,0.0,0.0,0.0,0.0,0.0,0.0,0.0,0.0,0.0,0.0,0.0,0.0,0.0,0.0,0.0,0.0,0.0,0.0,0.0,0.0,0.0,0.0,0.0,0.0,0.0,0.0,8.3924,8.3794,8.1764,8.0714,8.0766,8.1393,8.0923,7.9302,7.9093,7.9093,0.0,0.0,0.0,0.0,0.0,0.0,0.0,0.0,0.0,0.0,0.0,0.0,0.0,0.0,0.0,0.0,0.0,0.0,0.0,0.0,0.0,0.0,0.0,0.0,0.0,0.0,0.0,0.0,0.0,0.0,0.0,0.0,0.0,0.0,0.0,0.0,0.0,0.0,0.0,0.0,0.0,6.342,6.218,6.2962,6.3468,0.0,0.0,6.2824,6.287,6.2222,6.236,6.3975,0.0,0.0,0.0,0.0,0.0,0.0,0.0,0.0,0.0,0.0,0.0,0.0,0.0,0.0,0.0,0.0,0.0,0.0,0.0,0.0,0.0,0.0,0.0,0.0,0.0,0.0,0.0,0.0,0.0,0.0,0.0,0.0,0.0,0.0,0.0,0.0,0.0,0.0,0.0,0.0,0.0,0.0,0.0,0.0,0.0,0.0,0.0,0.0,0.0,0.0,0.0,0.0,0.0,8.3701,8.2348,8.1016,8.0505,8.0871,8.1811,8.2125,8.1864,8.0452,8.0034,0.0,0.0,0.0,0.0,0.0,0.0,0.0,0.0,0.0,0.0,0.0,0.0,0.0,0.0,0.0,0.0,0.0,0.0,0.0,0.0,0.0,0.0,0.0,0.0,0.0,0.0,0.0,0.0,6.1476,6.2104,6.2783,0.0,0.0,0.0,0.0,0.0,0.0,0.0,0.0,0.0,0.0,6.4924,6.4366,6.5351,0.0,0.0,6.6345,6.6677,6.625,6.5682,6.5161,6.4804,6.4381,0.0,0.0,0.0,0.0,0.0,0.0,0.0,0.0,0.0,0.0,0.0,0.0,0.0,0.0,0.0,0.0,0.0,0.0,0.0,0.0,0.0,0.0,0.0,0.0,0.0,0.0,0.0,0.0,0.0,0.0,0.0,0.0,0.0,0.0,0.0,0.0,0.0,0.0,0.0,0.0,0.0,0.0,0.0,0.0,0.0,0.0,0.0,0.0,0.0,0.0,0.0,0.0,8.3467,8.2146,8.0934,8.0661,8.1393,8.2177,8.2752,8.2909,8.155,8.1184,0.0,0.0,0.0,0.0,0.0,0.0,0.0,0.0,0.0,0.0,0.0,0.0,0.0,0.0,0.0,0.0,0.0,0.0,0.0,0.0,0.0,0.0,0.0,0.0,0.0,0.0,0.0,0.0,6.341,6.4351,6.5658,0.0,0.0,0.0,0.0,0.0,0.0,0.0,0.0,0.0,0.0,6.7375,6.6012,6.7774,6.8876,6.7965,6.9161,7.0025,6.9066,6.8346,6.7433,6.6048,0.0,0.0,0.0,0.0,0.0,0.0,0.0,0.0,0.0,0.0,0.0,0.0,0.0,0.0,0.0,0.0,0.0,0.0,0.0,0.0,0.0,0.0,0.0,0.0,0.0,0.0,0.0,7.4922,0.0,0.0,7.5907,0.0,0.0,0.0,0.0,0.0,0.0,0.0,0.0,0.0,0.0,0.0,0.0,0.0,0.0,0.0,0.0,0.0,0.0,0.0,0.0,0.0,0.0,8.4064,8.3793,8.1933,8.1393,8.2543,8.2648,8.2439,8.1968,8.2282,8.2596,8.2596,0.0,0.0,0.0,0.0,0.0,0.0,0.0,0.0,0.0,0.0,0.0,0.0,0.0,0.0,0.0,0.0,0.0,0.0,0.0,0.0,0.0,0.0,0.0,0.0,0.0,0.0,6.456,6.5554,6.6913,0.0,0.0,0.0,0.0,0.0,0.0,0.0,0.0,0.0,0.0,7.1135,7.1038,6.7057,6.9598,7.1151,6.9257,7.0762,7.1688,7.0644,6.9484,6.8757,0.0,0.0,0.0,0.0,0.0,0.0,0.0,0.0,0.0,0.0,0.0,0.0,0.0,0.0,0.0,0.0,0.0,0.0,0.0,0.0,0.0,0.0,0.0,0.0,0.0,0.0,0.0,7.8001,7.9047,0.0,0.0,0.0,0.0,0.0,0.0,0.0,0.0,0.0,0.0,0.0,8.6558,8.7128,0.0,0.0,0.0,0.0,0.0,0.0,0.0,0.0,0.0,0.0,0.0,0.0,8.5478,8.3847,8.1845,8.1811,8.3693,8.3798,8.385,8.4007,8.3484,8.2857,8.2073,0.0,0.0,0.0,0.0,0.0,0.0,0.0,0.0,0.0,0.0,0.0,0.0,0.0,0.0,0.0,0.0,0.0,0.0,0.0,0.0,0.0,0.0,0.0,0.0,0.0,6.8115,0.0,0.0,0.0,0.0,0.0,0.0,0.0,0.0,0.0,0.0,0.0,7.152,7.0054,7.0913,7.0465,6.7405,6.8573,7.0116,0.0,0.0,0.0,0.0,0.0,0.0,0.0,0.0,0.0,0.0,0.0,0.0,0.0,0.0,6.7457,6.7274,6.7411,6.7503,6.7503,0.0,0.0,0.0,0.0,0.0,0.0,0.0,0.0,0.0,0.0,0.0,0.0,0.0,0.0,8.1879,0.0,8.2987,0.0,0.0,0.0,0.0,0.0,0.0,0.0,0.0,8.8897,8.9821,8.9636,9.0149,8.956,0.0,8.8204,8.7565,0.0,0.0,0.0,0.0,0.0,0.0,0.0,0.0,8.5367,8.3331,8.2057,8.2125,8.3955,8.4425,8.4687,8.4896,8.4164,8.3327,8.2387,8.2909,8.3066,0.0,0.0,0.0,0.0,0.0,0.0,0.0,0.0,0.0,0.0,0.0,0.0,0.0,0.0,0.0,0.0,0.0,0.0,0.0,0.0,0.0,0.0,0.0,7.052,0.0,0.0,0.0,0.0,0.0,0.0,0.0,0.0,0.0,7.3343,7.3395,7.3095,7.2134,7.2436,7.1978,7.0022,0.0,0.0,0.0,0.0,0.0,0.0,0.0,7.337,7.1575,7.1728,7.1912,7.1407,7.1039,7.0672,7.0213,0.0,0.0,6.8514,6.8284,6.833,6.8514,6.8308,6.796,6.7509,6.7084,6.6619,0.0,0.0,0.0,0.0,0.0,0.0,0.0,0.0,8.5881,8.5819,0.0,8.6619,0.0,0.0,0.0,0.0,0.0,0.0,0.0,0.0,9.2529,9.2899,9.2406,9.3478,9.2729,9.0382,9.1398,9.0552,8.8127,8.7034,0.0,0.0,0.0,0.0,0.0,0.0,8.4186,8.2586,8.2194,8.2439,8.3641,8.4739,8.5053,8.4582,8.4425,8.4112,8.3589,8.4007,8.3798,8.2752,8.4216,0.0,0.0,0.0,0.0,0.0,0.0,0.0,0.0,0.0,0.0,0.0,0.0,0.0,0.0,0.0,0.0,0.0,0.0,0.0,0.0,7.1618,0.0,0.0,0.0,0.0,0.0,0.0,0.0,0.0,0.0,0.0,7.512,7.5434,7.5538,7.4938,0.0,0.0,0.0,0.0,7.5764,7.5119,7.5952,7.6209,7.5262,7.4124,7.3275,7.2035,0.0,0.0,7.182,7.1912,7.2095,7.2555,7.2646,7.1866,6.957,6.9111,6.9156,6.957,6.8822,6.79,6.7013,6.6104,6.4974,8.8651,0.0,0.0,0.0,0.0,8.6619,8.7173,8.8035,8.822,8.8466,8.8774,8.9144,0.0,0.0,0.0,0.0,0.0,0.0,9.2468,9.2653,9.3515,9.413,9.4438,9.3198,9.2199,9.1335,9.0214,8.9648,8.9183,8.8231,8.8962,9.1144,0.0,0.0,0.0,0.0,8.5832,8.5022,8.4089,8.4373,8.5889,8.7039,8.7562,8.7353,8.5784,8.4843,8.4687,8.4059,8.3746,8.385,8.3537,0.0,0.0,0.0,0.0,0.0,0.0,0.0,0.0,0.0,0.0,0.0,0.0,0.0,0.0,0.0,0.0,0.0,0.0,0.0,7.6323,7.5957,7.5957,0.0,0.0,0.0,0.0,0.0,0.0,0.0,0.0,0.0,7.7316,7.6741,7.6212,0.0,0.0,7.4343,7.4938,7.4614,7.4553,7.4968,7.5591,0.0,0.0,7.4365,7.4098,7.3473,7.3335,7.3381,7.3886,7.3978,7.4116,7.4621,7.4437,7.4024,7.3703,7.2417,7.1636,7.1682,7.1467,7.0783,6.9207,6.8541,6.7733,9.1729,9.0498,8.9328,8.8774,8.8774,8.8774,8.9267,9.0005,9.0313,9.0498,9.0621,9.0867,9.099,9.099,9.0559,0.0,0.0,0.0,9.3515,9.4069,9.4992,9.5792,9.6305,9.5407,9.445,9.3453,9.2784,9.1834,9.0816,9.076,9.1068,9.1824,0.0,0.0,9.005,8.8621,8.7314,8.609,8.5813,8.6042,8.6882,8.8032,8.8712,8.8921,8.7405,8.6307,8.5889,8.5,8.4687,8.5,8.4164,8.3798,0.0,0.0,0.0,0.0,0.0,0.0,0.0,0.0,0.0,0.0,0.0,7.7316,7.7943,0.0,0.0,0.0,7.7107,7.7839,7.8257,7.7786,0.0,0.0,0.0,0.0,0.0,0.0,0.0,7.8623,7.8361,7.8361,7.8936,7.857,7.7981,7.7421,7.6222,7.6033,7.7737,0.0,7.5822,7.6642,7.6766,7.6465,7.4845,7.4942,7.5034,7.4759,7.4667,7.4759,7.5034,7.5264,7.5539,7.5815,7.5769,7.5815,7.6136,7.5172,7.4208,7.384,7.3749,7.3041,7.123,7.0729,7.0041,9.45,9.4315,9.2468,9.1606,9.136,9.136,9.1421,9.1483,9.2099,9.2037,9.1544,9.2099,9.2406,9.2406,9.2591,0.0,9.3515,9.3638,9.4438,9.5731,9.6962,9.7885,9.8563,9.907,9.8244,9.6107,9.7252,9.6153,9.2866,9.4027,9.4312,9.3373,9.0911,8.9716,8.9743,8.9356,8.8238,8.6262,8.7328,8.782,8.7248,8.8241,8.9078,8.9705,8.9078,8.8241,8.7248,8.6569,8.6203,8.6203,8.5575,8.5209,8.5157,0.0,0.0,0.0,0.0,0.0,0.0,0.0,0.0,0.0,0.0,0.0,0.0,0.0,0.0,7.857,7.7577,0.0,7.857,7.8152,0.0,0.0,0.0,7.9355,7.9355,7.8936,7.8779,7.925,0.0,0.0,8.0139,8.0766,8.0766,7.972,7.8976,7.9449,8.177,8.0265,7.9025,7.9237,7.9031,7.7931,7.6362,7.5907,7.5953,7.5907,7.5815,7.5907,7.5999,7.632,7.6596,7.6779,7.7055,7.733,7.733,7.733,7.7055,7.6136,7.5815,7.5176,7.3222,7.2389,7.1599,9.6593,9.6531,9.6039,9.4623,9.2714,9.2714,9.3022,9.3515,9.3699,9.3699,9.3576,9.3699,9.3761,9.3884,9.5361,9.6162,9.6346,9.7393,9.8316,9.9117,9.9425,9.9979,10.0594,10.0227,9.9168,9.7522,9.7188,9.6307,9.4781,9.4979,9.4919,9.421,9.4038,9.269,9.0096,8.9872,8.9095,8.7355,8.888,8.9781,9.0123,9.0437,9.0855,9.1482,9.0489,8.9862,8.9548,8.8137,8.7405,8.7353,8.5994,8.5209,8.5209,8.6307,0.0,0.0,0.0,0.0,0.0,0.0,0.0,0.0,0.0,8.0452,8.1916,0.0,8.04,0.0,8.0034,8.0348,8.1498,8.108,0.0,0.0,8.108,8.1132,8.1132,8.1027,8.0818,8.0505,8.0871,8.1341,8.1916,8.2909,8.3432,8.3118,8.1134,8.083,8.3703,8.3237,8.2357,8.1736,8.181,8.0998,7.8489,7.7881,7.7881,7.7881,7.7881,7.8019,7.8432,7.857,7.88,7.9167,7.9305,7.9397,7.9351,7.9397,7.9305,7.9029,7.8157,7.6632,7.4176,7.3874,7.3372,9.9117,9.9117,9.9117,9.8193,9.6716,9.5546,9.5238,9.5608,9.5608,9.5608,9.5608,9.5608,9.5608,9.5731,9.7085,9.7762,9.7824,9.9178,10.0102,10.0779,10.1087,10.1764,10.2687,10.235,10.1153,9.9645,9.9045,9.8011,9.6696,9.6549,9.6625,9.6567,9.601,9.4796,9.312,9.2308,9.153,9.0738,9.0681,9.0987,9.1535,9.1587,9.2005,9.2789,9.1744,9.1273,9.1482,8.9862,8.9182,8.9601,8.7771,8.683,8.7091,8.7039,8.6569,0.0,0.0,0.0,0.0,0.0,0.0,0.0,0.0,0.0,0.0,0.0,8.1864,8.2387,8.1707,8.1864,8.3275,8.2857,8.2648,8.2909,8.3118,8.3223,8.2962,8.2909,8.27,8.2125,8.2334,8.2752,8.3327,8.4164,8.5053,8.5732,8.4691,8.4327,8.5681,8.5985,8.5993,8.5298,8.545,8.486,8.1715,8.0427,7.9948,7.9948,7.9948,8.0086,8.0315,8.0223,8.0177,8.0407,8.0269,8.0131,8.0131,8.0131,8.0131,8.004,7.9672,7.8213,7.5539,7.5054,7.4324,10.1826,10.1826,10.1826,10.1826,10.1641,9.9301,9.8132,9.7824,9.7824,9.7824,9.7824,9.7885,9.8009,9.8132,9.8747,9.9117,9.9301,10.041,10.1333,10.201,10.2626,10.3611,10.4781,10.4781,10.3699,10.2003,10.2003,10.0847,9.8403,9.8459,9.874,9.9302,9.775,9.6967,9.6873,9.571,9.4842,9.465,9.2691,9.2005,9.2423,9.2476,9.2998,9.3939,9.2998,9.2685,9.3051,9.1639,9.1273,9.2162,9.0176,8.9182,8.9653,8.7771,8.683,0.0,8.683,0.0,0.0,0.0,0.0,0.0,0.0,0.0,0.0,8.2387,8.3432,8.4582,8.3275,8.3014,8.4425,8.4164,8.4112,8.453,8.5,8.5105,8.4687,8.4687,8.4478,8.4059,8.4112,8.4373,8.5,8.5471,8.6516,8.7875,8.8607,8.834,8.7823,8.8764,8.9363,8.8713,8.8741,8.7159,8.4465,8.2717,8.1785,8.1785,8.1785,8.1831,8.1831,8.1463,8.1188,8.1188,8.0912,8.0637,8.0545,8.0591,8.0591,8.0683,8.0912,8.0182,7.7482,7.6436,7.5146,10.4596,10.4596,10.4596,10.4596,10.4596,10.4042,10.2564,10.0594,10.0594,10.0594,10.0594,10.1148,10.1702,10.2318,10.2934,10.3549,10.4042,10.4288,10.4781,10.5458,10.5581,10.6073,10.6812,10.6812,10.5517,10.3301,10.336,10.2155,10.0314,10.0314,10.0651,10.1269,10.0944,10.0579,10.0101,0.0,0.0,0.0,9.4673,9.4514,9.4201,9.4619,9.4985,9.5194,9.4514,0.0,9.4305,9.3574,9.326,9.3417,9.1692,0.0,0.0,0.0,0.0,0.0,0.0,0.0,0.0,0.0,0.0,0.0,8.6203,8.5575,8.4478,8.4582,8.5157,8.6255,8.6098,8.5889,8.5784,8.6046,8.6098,8.5784,8.5889,8.6046,8.6359,8.6412,8.6516,8.6935,8.7353,8.7823,8.8346,8.9026,8.9496,8.9862,9.0803,9.1117,9.0489,9.0698,9.0608,8.9832,8.8517,8.6093,8.3833,8.3384,8.3135,8.2887,8.2887,8.2887,8.2933,8.2841,8.2749,8.2749,8.2657,8.2565,8.2565,8.2611,8.2565,8.2611,8.2657,8.1977,7.9539,7.8339,7.7432,10.7428,0.0,10.7428,10.7428,0.0,10.6997,10.6073,10.4781,10.3734,10.3303,10.3365,10.3734,10.4042,10.4411,10.5088,10.5581,10.5889,10.6566,10.7058,10.7366,10.7736,10.829,10.8905,10.8905,10.7707,10.5128,10.5128,10.3866,10.1482,10.0988,10.0944,10.0914,10.0579,9.9823,9.8663,9.7543,9.6213,9.4688,9.49,9.4985,9.4671,9.4933,9.5351,9.5874,9.509,0.0,0.0,0.0,0.0,0.0,0.0,0.0,0.0,0.0,0.0,9.0385,9.0123,8.981,8.9548,8.9235,8.8816,8.8241,8.8189,8.7562,8.615,8.6046,8.6516,8.7614,8.7719,8.7771,8.7771,8.8032,8.8085,8.7823,8.8032,8.8241,8.8241,8.845,8.8607,8.8607,8.8869,8.9287,8.9862,9.0437,9.1012,9.1587,9.2371,9.2946,9.2894,9.2685,9.2443,9.2617,9.1095,8.9583,8.8559,8.6491,8.5588,8.5962,8.5207,8.4402,8.4632,8.4448,8.431,8.4264,8.4081,8.3897,8.3943,8.3943,8.3897,8.3897,8.321,8.2361,8.1331,7.9872,7.791,10.9644,10.9644,10.9521,10.9459,10.9459,10.8844,10.8597,10.8474,0.0,0.0,0.0,10.5827,10.6012,10.6135,10.6812,10.7182,10.7366,10.8474,10.8967,10.8967,10.9582,11.0137,11.0629,11.0629,10.9347,10.7006,10.6804,10.5027,10.2147,10.1482,10.0842,10.0369,9.9602,9.8619,9.6758,9.6095,9.5455,9.4985,9.5037,9.5142,9.509,9.5142,9.556,9.6501,9.5508,9.5403,9.6292,9.5455,9.5403,9.6292,9.5351,9.5037,9.5403,9.3521,9.2162,9.1692,9.0698,9.0123,9.0123,9.0123,9.0123,9.0123,9.0123,8.9391,8.7771,8.7666,8.8085,8.913,8.9287,8.9548,8.9914,9.0071,9.0071,9.0123,9.0542,9.0646,9.0332,9.0698,9.0855,9.0385,9.0385,9.0437,9.1012,9.1482,9.2005,9.2998,9.3626,9.4149,9.4619,9.4358,9.4129,9.4268,9.3426,9.3322,9.2903,9.0024,8.8235,8.8256,8.6643,8.5458,8.5734,8.5642,8.5458,8.5275,8.5091,8.4953,8.4907,8.4953,8.4907,8.4907,8.3822,8.2708,8.3079,8.1155,7.8391,11.0321,11.0321,10.9706,10.9459,10.9459,10.9336,10.9336,10.9213,10.7736,10.712,10.7182,10.7736,10.829,10.8905,10.9582,11.0198,11.0752,11.0998,11.106,0.0,11.1183,11.1245,11.1368,11.1368,11.0351,10.8599,10.7207,10.5585,10.378,10.2303,10.1719,10.1401,10.0868,9.9767,9.793,9.6884,9.6187,9.6135,9.6606,9.6867,9.6867,9.6867,9.6919,9.7076,9.6449,9.6187,9.6344,9.6187,9.6187,9.6344,9.5769,9.5455,9.5455,9.4305,9.3521,9.3417,9.2789,9.2423,9.2423,9.2423,9.2423,9.2423,9.2423,9.1901,9.0751,9.0594,9.0907,9.1535,9.1953,9.211,9.1848,9.211,9.2371,9.2423,9.2476,9.2685,9.2998,9.3155,9.3155,9.2998,9.3208,9.3155,9.3155,9.3364,9.3678,9.4253,9.4514,9.4776,9.5246,9.5351,9.4604,9.3407,9.3342,9.2691,9.1977,8.9386,8.8044,8.7795,8.6476,8.5045,8.5229,8.5458,8.5596,8.5458,8.578,8.5963,8.5963,8.5963,8.5963,8.5963,8.5568,8.5096,8.3975,8.2309,8.0554,11.0998,11.0998,11.0691,11.0568,11.0568,11.0198,10.9829,10.9459,10.8782,10.8536,10.8536,10.8844,10.9152,10.9459,10.9829,11.0137,11.0444,11.0752,11.1122,11.1491,11.186,11.223,11.2538,11.223,11.0829,10.8343,10.7953,10.6222,10.402,10.3501,10.2906,10.1642,9.9715,9.8324,9.8144,9.6958,9.6396,9.6396,9.6606,9.6762,9.6762,9.6762,9.6762,9.6762,9.6501,9.6396,9.6396,9.6396,9.6396,9.6396,9.6135,9.5978,9.5978,9.5194,9.4724,9.4724,9.4201,9.3835,9.3835,9.3835,9.3887,9.3835,9.3887,9.3783,9.3574,9.2946,9.2842,9.3417,9.373,9.3783,9.3521,9.373,9.3835,9.3887,9.3887,9.3835,9.3835,9.4096,9.4149,9.3939,9.4358,9.4619,9.4305,9.4828,9.5142,9.5194,9.5351,9.5665,9.5926,9.5978,9.5745,9.481,9.5016,9.4956,9.4461,9.1643,9.0362,9.089,8.8062,8.6313,8.6239,8.6514,8.6606,8.6652,8.6836,8.6974,8.6974,8.702,8.702,8.6974,8.5961,8.5129,8.3943,8.1895,8.0149,11.1245,11.1245,11.1122,11.106,11.0998,11.0444,10.9952,10.9521,10.9459,10.9459,10.9459,10.9459,10.9582,10.9706,10.9706,10.9767,10.9952,11.0444,11.0998,11.1553,11.2353,11.303,11.3461,11.3215,11.1607,10.9118,10.8722,10.6978,10.4532,10.4122,10.314,10.1257,9.8648,9.765,9.8144,9.7221,9.6762,9.6762,9.6762,9.6762,9.6762,9.6762,9.6762,9.6762,9.6762,9.6762,9.6762,9.6762,9.6762,9.6762,9.6762,9.6762,9.6762,9.6344,9.6083,9.6083,9.5717,9.5403,9.5246,9.5246,9.5194,9.5037,9.5037,9.5246,9.556,9.4933,9.4567,9.4985,9.5037,9.5037,9.5037,9.5037,9.5037,9.5037,9.5037,9.488,9.4514,9.4776,9.4828,9.441,9.4985,9.5299,9.5142,9.5612,9.5978,9.5821,9.6083,9.6396,9.6501,9.6553,9.6606,9.671,9.6658,9.6736,9.7623,9.4779,9.3026,9.4019,9.07,8.8768,8.8321,8.808,8.7741,8.7649,8.7571,8.7571,8.7662,8.7662,8.7617,8.7571,8.6507,8.536,8.3761,8.1687,7.9375,11.0568,11.0506,10.9952,10.9644,10.9767,10.9644,10.9582,10.9521,10.9521,10.9459,10.9582,10.9459,10.9829,11.0321,11.0321,11.0629,11.1183,11.1368,11.1429,11.1676,11.2845,11.3461,11.3584,11.4631,11.4374,11.2487,10.9977,10.7871,10.6375,10.3663,10.1531,10.0307,9.9631,9.8977,9.8306,9.8097,9.7965,9.7965,9.7965,9.7965,9.7965,9.7965,9.7965,9.7965,9.7965,9.7965,9.786,9.7965,9.7965,9.7965,9.7912,9.7912,9.7912,9.786,9.786,9.7808,9.7808,9.7599,9.7024,9.6971,9.671,9.6292,9.6187,9.624,9.6292,9.6187,9.6135,9.6187,9.6187,9.6135,9.6187,9.6135,9.603,9.603,9.603,9.6187,9.603,9.6187,9.5978,9.5403,9.5403,9.5508,9.5403,9.5612,9.5874,9.624,9.6292,9.6553,9.6971,9.6971,9.7181,9.7599,9.7494,9.7442,9.7675,9.6343,9.484,9.4798,9.3275,9.0832,8.9507,8.9024,8.926,8.7281,8.7341,8.7525,8.7571,8.7708,8.7617,8.7479,8.6907,8.647,8.4162,8.1959,8.0197,10.989,10.989,11.0013,11.0321,11.0629,11.0691,11.0691,11.0691,11.0691,11.0691,11.0691,11.0691,11.0383,10.989,10.989,11.026,11.0875,11.0875,11.1368,11.2107,11.2661,11.3153,11.3523,11.3584,11.3196,11.2094,11.1001,11.0107,10.8813,10.7061,10.4749,10.2357,10.1125,9.9865,9.8775,9.8202,9.8278,9.8644,9.9272,9.9638,9.9533,9.8644,9.8122,9.8122,9.8122,9.8122,9.8122,9.8122,9.8122,9.8122,9.8122,9.8122,9.8122,9.8122,9.8122,9.8122,9.8122,9.8017,9.7756,9.7756,9.7651,9.739,9.739,9.739,9.739,9.739,9.739,9.7337,9.6762,9.6396,9.6344,9.6083,9.5978,9.6187,9.5769,9.5612,9.6292,9.5769,9.5351,9.5455,9.5508,9.556,9.556,9.5821,9.624,9.671,9.6606,9.6658,9.7128,9.6971,9.6971,9.739,9.7337,9.7494,9.7727,9.6086,9.5071,9.4789,9.3372,9.139,8.998,8.9269,8.8741,8.7033,8.679,8.6928,8.6744,8.679,8.679,8.6621,8.4956,8.3854,8.2791,8.0646,7.9064,11.0013,11.0137,11.0568,11.106,11.1491,11.1491,11.1491,11.1491,11.1491,11.1491,11.1491,11.1491,11.0937,11.0137,11.0013,11.0321,11.0752,11.0752,11.1245,11.223,11.2599,11.303,11.3461,11.3461,11.294,11.2443,11.2509,11.1769,11.0367,10.9108,10.6987,10.3574,10.2052,10.0795,9.938,9.9016,9.901,9.9481,10.0422,10.0944,10.0735,9.969,9.9062,9.9062,9.9062,9.9062,9.9062,9.9062,9.8958,9.8853,9.8853,9.8749,9.8592,9.8749,9.8906,9.901,9.8906,9.8749,9.8592,9.8435,9.8278,9.8174,9.8122,9.8122,9.8122,9.8122,9.8122,9.8017,9.7181,9.6658,9.6815,9.6501,9.6396,9.6553,9.5821,9.5769,9.6449,9.5821,9.5612,9.5926,9.6083,9.5978,9.603,9.6344,9.6815,9.7285,9.7128,9.7076,9.7494,9.7442,9.739,9.7808,9.786,9.7808,9.8069,9.6908,9.5554,9.567,9.4899,9.3721,9.1529,9.1074,8.9856,8.905,8.7431,8.6652,8.6974,8.679,8.6606,8.6085,8.4468,8.266,8.2568,7.9979,7.8583,11.1429,11.1368,11.1429,11.1491,11.1553,11.1553,11.1553,11.1676,11.1553,11.1553,11.1614,11.1553,11.1491,11.1429,11.1429,11.1429,11.1429,11.1429,11.1553,11.186,11.2907,11.3461,11.3584,11.4754,11.5369,11.4914,11.4264,11.2368,10.9456,10.8561,10.6318,10.2802,10.2516,10.1674,10.0014,10.0056,10.0526,10.0578,10.1153,10.1519,10.1519,10.1415,10.131,10.131,10.1363,10.1206,10.1258,10.1363,10.1101,10.0578,10.0474,10.0265,9.9847,10.0213,10.0735,10.1153,10.0788,10.0317,9.9794,9.9324,9.8853,9.8331,9.8435,9.8226,9.8435,9.8487,9.8435,9.8174,9.7808,9.7599,9.7912,9.7599,9.739,9.7076,9.7024,9.6919,9.7076,9.6762,9.7076,9.6971,9.6867,9.6867,9.7024,9.7181,9.7442,9.786,9.8017,9.8174,9.854,9.8697,9.8853,9.9062,9.901,9.8697,9.8278,9.7541,9.7749,9.7769,9.734,9.7459,9.6453,9.4966,9.2853,9.081,8.9167,8.8172,8.7833,8.7571,8.7479,8.6643,8.4964,8.3361,8.2961,8.0785,7.9292,11.1122,11.1491,11.1491,11.1983,11.2784,11.2784,11.2784,11.2784,11.2784,11.2784,11.2784,11.2784,11.2784,11.2784,11.2784,11.2538,11.2168,11.2107,11.2353,11.2784,11.3276,11.3523,11.3584,11.4446,11.5123,11.5357,11.5573,11.4031,11.1387,11.0939,10.8103,10.3548,10.2679,10.1835,10.0224,10.0003,10.0474,10.1206,10.1781,10.2094,10.2094,10.246,10.2669,10.2617,10.1938,10.1519,10.1519,10.1519,10.1415,10.1258,10.1206,10.1153,10.0997,10.1101,10.131,10.1467,10.131,10.1153,10.0944,10.0735,10.0526,10.0369,10.0317,10.0213,10.0317,10.0317,10.016,9.9794,9.9585,9.9428,9.8801,9.7599,9.6553,9.6606,9.6083,9.603,9.6344,9.6083,9.5717,9.6083,9.6396,9.6815,9.7233,9.7546,9.8017,9.8487,9.8383,9.8435,9.8749,9.8697,9.8644,9.8697,9.8592,9.8383,9.8226,9.8122,9.8226,9.8331,9.7957,9.7495,9.6394,9.6206,9.4418,9.3096,9.1402,8.9896,8.9682,8.8419,8.8156,8.7318,8.5411,8.3755,8.3354,8.0997,7.9417,11.1553,11.2107,11.2168,11.2784,11.3769,11.383,11.3953,11.4138,11.4138,11.4138,11.4138,11.4138,11.4138,11.4138,11.4138,11.3953,11.3461,11.3092,11.3092,11.3461,11.3523,11.3646,11.3892,11.4323,11.5,11.5862,11.6539,11.5274,11.2344,11.1798,10.8396,10.2772,10.225,10.1524,10.0036,10.0003,10.0526,10.1258,10.1833,10.2094,10.2147,10.2513,10.2722,10.2669,10.2094,10.1938,10.2094,10.2094,10.199,10.1833,10.1833,10.1833,10.1833,10.1833,10.1885,10.2042,10.1885,10.1833,10.1781,10.1624,10.1519,10.1519,10.1519,10.1519,10.1519,10.1519,10.1258,10.084,10.0474,10.016,9.9324,9.7651,9.6606,9.7024,9.6501,9.6292,9.6815,9.6292,9.603,9.6187,9.6501,9.6919,9.7442,9.8017,9.8592,9.9167,9.8906,9.8906,9.9062,9.8958,9.8697,9.8697,9.8801,9.8853,9.8906,9.9062,9.8958,9.901,9.8958,9.8047,9.7525,9.7241,9.6459,9.5365,9.3996,9.251,9.0959,8.9439,8.865,8.8122,8.5902,8.3748,8.2803,8.1039,7.9775,11.2845,11.3338,11.3461,11.3769,11.4384,11.4508,11.4877,11.5308,11.5431,11.5308,11.5246,11.5431,11.5308,11.5431,11.5308,11.5431,11.5062,11.4077,11.3646,11.3707,11.3707,11.4015,11.4508,11.4692,11.5369,11.6539,11.7216,11.5614,11.2168,11.1325,10.7899,10.3024,10.2081,10.1422,9.9847,10.0369,10.0683,10.0944,10.1415,10.1624,10.1572,10.1729,10.1833,10.1833,10.2094,10.2513,10.314,10.3192,10.2879,10.246,10.2408,10.2408,10.2408,10.2408,10.2617,10.2983,10.2669,10.2408,10.2356,10.1938,10.1729,10.1729,10.1624,10.1729,10.1781,10.1676,10.1415,10.0944,10.0317,9.9742,9.9272,9.854,9.8174,9.8801,9.8383,9.8226,9.8069,9.8069,9.7912,9.7442,9.7442,9.7546,9.8122,9.8644,9.9167,9.9533,9.9638,9.9585,9.969,9.9585,9.9742,9.9742,9.9533,9.9376,9.9794,10.0213,10.0056,9.9951,9.9847,9.9362,9.9534,9.9302,9.8562,9.7623,9.6415,9.4889,9.283,9.1528,9.0356,8.9251,8.6664,8.4325,8.3193,8.2013,8.0109,11.2599,11.2845,11.3338,11.3892,11.4569,11.5,11.5369,11.5554,11.5554,11.5554,11.5554,11.5554,11.5554,11.5554,11.5554,11.5554,11.5493,11.5062,11.4877,11.4877,11.4877,11.4938,11.5246,11.5677,11.6354,11.7155,11.7463,11.6373,11.4098,11.2499,10.9288,10.5466,10.3547,10.2165,10.0665,10.0578,10.084,10.131,10.1833,10.2094,10.2147,10.2094,10.2304,10.2617,10.2147,10.2094,10.2617,10.3035,10.3192,10.2983,10.2983,10.3035,10.2983,10.2983,10.3088,10.3245,10.314,10.2983,10.2983,10.2879,10.2722,10.2722,10.2722,10.2722,10.2669,10.2356,10.2094,10.1729,10.0997,10.0422,10.0526,9.9847,9.9167,9.8435,9.8383,9.8435,9.8331,9.8487,9.8801,9.901,9.901,9.9272,9.9638,9.9847,9.969,9.9847,9.9899,9.9847,9.9847,9.9847,9.9847,9.9847,9.9847,9.9847,9.9951,10.016,10.016,10.0213,10.0213,10.0369,10.0647,10.0714,10.0273,9.9734,9.8533,9.7065,9.4964,9.3716,9.2503,9.0777,8.8635,8.6708,8.4807,8.2715,8.057,11.2784,11.3276,11.3707,11.4446,11.5246,11.5739,11.6047,11.6231,11.6293,11.6293,11.6293,11.6293,11.6293,11.6293,11.6293,11.6293,11.6293,11.6293,11.6293,11.617,11.5677,11.5677,11.5985,11.6601,11.7093,11.7463,11.7586,11.6577,11.4637,11.2948,11.0188,10.6993,10.4668,10.3045,10.1676,10.1241,10.1206,10.1572,10.1885,10.2094,10.2094,10.2094,10.2251,10.2513,10.2304,10.2408,10.2774,10.3506,10.361,10.3192,10.3349,10.3558,10.361,10.3767,10.3924,10.3924,10.3924,10.3924,10.3924,10.3924,10.3924,10.3924,10.3924,10.3924,10.382,10.3349,10.2983,10.2617,10.1885,10.1363,10.1363,10.0944,10.0056,9.9219,9.9167,9.8958,9.8853,9.8853,9.9062,9.9376,9.9794,10.0265,10.0474,10.0683,10.0422,10.0474,10.0265,10.016,10.0108,9.9951,9.9899,9.9847,9.9847,9.9847,9.9847,10.0003,10.0213,10.0317,10.0422,10.0735,10.0908,10.1012,10.0818,10.0894,10.01,9.904,9.725,9.6168,9.4915,9.2741,9.0605,8.8239,8.5794,8.2589,8.0388,11.3399,11.4446,11.4631,11.5369,11.6354,11.6539,11.6909,11.7401,11.7463,11.7401,11.7463,11.7339,11.7401,11.7463,11.7339,11.7339,11.7524,11.7401,11.7339,11.7032,11.6416,11.6108,11.6662,11.7155,11.7463,11.7524,11.7647,11.6617,11.4847,11.305,11.0492,10.8228,10.5304,10.3418,10.288,10.201,10.1467,10.1519,10.1624,10.1729,10.1781,10.1781,10.1885,10.2042,10.2774,10.314,10.3297,10.4029,10.4029,10.2931,10.3715,10.4133,10.4238,10.4708,10.4865,10.4865,10.497,10.4917,10.497,10.4813,10.4813,10.4813,10.4813,10.5022,10.4761,10.4133,10.361,10.3297,10.2565,10.2094,10.1833,10.1467,10.1153,10.0788,10.0422,10.0213,9.9899,9.9481,9.969,9.9638,10.016,10.0788,10.0944,10.1258,10.1363,10.131,10.0997,10.0788,10.0683,10.0474,10.0056,10.0056,10.0265,10.0317,10.0474,10.0578,10.0735,10.0735,10.0788,10.0944,10.1206,10.1258,10.1415,10.1495,10.1463,10.0513,9.9751,9.8427,9.6784,9.4818,9.2307,8.9459,8.6288,8.2759,8.0679,11.42,11.4631,11.5616,11.6231,11.6601,11.7032,11.7401,11.7524,11.7586,11.7647,11.7586,11.7586,11.7647,11.7586,11.7586,11.7586,11.7647,11.7647,11.7586,11.7524,11.7216,11.7093,11.7278,11.7463,11.7586,11.7647,11.8078,11.792,11.7287,11.4714,11.2342,10.9939,10.6757,10.4008,10.2255,10.1818,10.1519,10.1624,10.199,10.2408,10.2722,10.2774,10.3245,10.3976,10.3558,10.3349,10.3297,10.3558,10.4029,10.4342,10.4551,10.4761,10.4761,10.497,10.5126,10.5126,10.5074,10.5022,10.5022,10.5022,10.5022,10.5022,10.5074,10.5022,10.497,10.4081,10.3715,10.3506,10.2669,10.2251,10.2879,10.2304,10.1572,10.131,10.1101,10.0788,10.0631,10.1101,10.1467,10.1519,10.1729,10.1833,10.1885,10.1729,10.1676,10.1624,10.1467,10.131,10.1258,10.1101,10.0788,10.0997,10.1153,10.1153,10.1206,10.1258,10.131,10.1258,10.1258,10.1153,10.1258,10.1258,10.1415,10.1482,10.1703,10.1316,10.1205,10.0542,9.8686,9.6833,9.3363,9.0036,8.6111,8.2632,8.1043,11.5,11.5862,11.6662,11.7278,11.7832,11.8263,11.8448,11.8386,11.8386,11.8386,11.8386,11.8386,11.8386,11.8386,11.8386,11.8448,11.8386,11.8386,11.8448,11.8386,11.8448,11.8078,11.777,11.777,11.8017,11.8078,11.8694,11.9125,11.8819,11.6343,11.4143,11.2601,10.8826,10.5858,10.4218,10.3238,10.2746,10.2356,10.2617,10.2983,10.3245,10.3297,10.3558,10.4133,10.3767,10.3767,10.429,10.4604,10.4813,10.4813,10.5022,10.5388,10.5388,10.5597,10.5701,10.5701,10.5701,10.5649,10.5388,10.5388,10.5231,10.5126,10.5179,10.5336,10.5231,10.4499,10.4185,10.429,10.3088,10.2931,10.3297,10.2826,10.2356,10.2304,10.2147,10.1781,10.1153,10.1572,10.2094,10.2356,10.2617,10.2774,10.2774,10.246,10.2304,10.2251,10.2094,10.199,10.1885,10.1729,10.1624,10.1676,10.1676,10.1572,10.1519,10.1572,10.1676,10.1676,10.1833,10.1676,10.1572,10.1572,10.1781,10.199,10.2147,10.2251,10.2147,10.1899,10.0962,9.8527,9.4363,9.0838,8.7381,8.2972,8.1334,11.5924,11.7647,11.777,11.8448,11.9433,11.9556,11.9433,11.9556,11.9433,11.9433,11.9433,11.9494,11.9371,11.9556,11.9309,11.9494,11.9494,11.9371,11.9433,11.9371,11.9309,11.8879,11.814,11.8448,11.8632,11.8755,11.9371,11.9925,11.9409,11.7061,11.5683,11.4142,11.0711,10.8278,10.5942,10.5316,10.4436,10.339,10.314,10.3297,10.3454,10.3454,10.361,10.3872,10.3976,10.4604,10.544,10.5963,10.5754,10.4447,10.5388,10.5911,10.6015,10.6433,10.659,10.659,10.6486,10.6329,10.5963,10.5806,10.5597,10.5179,10.544,10.5806,10.5545,10.5074,10.4813,10.4865,10.4029,10.361,10.3454,10.3454,10.3401,10.3297,10.361,10.3245,10.2199,10.1781,10.199,10.2408,10.2983,10.3245,10.3297,10.3297,10.3245,10.2774,10.2669,10.2565,10.246,10.2304,10.2147,10.2042,10.199,10.1833,10.1833,10.1833,10.1938,10.2042,10.2356,10.2356,10.2199,10.2199,10.2356,10.2565,10.2669,10.2826,10.2931,10.2535,10.2085,9.9648,9.5371,9.2608,8.9828,8.4451,8.1392,11.7463,11.8386,11.894,11.9309,11.9556,11.9556,11.9617,11.9617,11.9617,11.9679,11.9617,11.9617,11.9617,11.9617,11.9679,11.9556,11.9679,11.9679,11.9556,11.9556,11.9556,11.9494,11.9186,11.9371,11.9371,11.9556,12.0048,12.0418,11.9775,11.7815,11.5654,11.4149,11.0589,10.6887,10.5668,10.4737,10.3796,10.3297,10.3297,10.3506,10.3767,10.382,10.4029,10.4395,10.4238,10.4708,10.5545,10.5545,10.5597,10.6067,10.6329,10.6433,10.6486,10.659,10.6695,10.6695,10.6642,10.6433,10.6015,10.5806,10.5597,10.5074,10.5074,10.5179,10.5179,10.5074,10.497,10.497,10.4761,10.429,10.4029,10.4813,10.4551,10.3924,10.3924,10.3924,10.3192,10.3245,10.3245,10.314,10.314,10.3297,10.3297,10.3297,10.3297,10.3245,10.3192,10.3088,10.2983,10.2826,10.2722,10.2513,10.2513,10.246,10.246,10.246,10.246,10.246,10.2722,10.2931,10.2722,10.2722,10.2826,10.2983,10.314,10.3297,10.3297,10.2994,10.2691,9.9236,9.6071,9.2891,8.9374,8.4795,8.1765,11.8632,11.9556,11.9925,12.0233,12.0479,12.0541,12.0541,12.0541,12.0541,12.0541,12.0541,12.0541,12.0541,12.0541,12.0541,12.0541,12.0541,12.0541,12.0541,12.0541,12.0541,12.0541,12.0541,12.0479,12.0418,12.0233,12.0725,12.1033,12.0326,11.8484,11.6213,11.4374,11.0589,10.7798,10.5423,10.4489,10.3993,10.3297,10.3297,10.3454,10.3663,10.3715,10.3976,10.4551,10.4551,10.497,10.5754,10.5911,10.612,10.6538,10.6695,10.6695,10.6695,10.6695,10.6695,10.6695,10.6433,10.6224,10.5911,10.5336,10.4865,10.4604,10.4551,10.4551,10.4551,10.4551,10.4761,10.4865,10.4761,10.4499,10.4551,10.5283,10.5179,10.497,10.497,10.5022,10.4551,10.4081,10.361,10.3349,10.3245,10.3297,10.3297,10.3297,10.3297,10.3245,10.3245,10.3192,10.3192,10.3088,10.314,10.3088,10.314,10.314,10.314,10.314,10.3088,10.3035,10.3088,10.314,10.3088,10.314,10.3245,10.3297,10.3297,10.3297,10.3297,10.3046,10.2492,10.0106,9.6905,9.2891,8.91,8.5313,8.2903,11.9617,12.0725,12.0725,12.1095,12.1526,12.1526,12.1526,12.1526,12.1587,12.1403,12.1587,12.1587,12.1403,12.1526,12.1464,12.1587,12.1526,12.1526,12.1341,12.1341,12.1341,12.1341,12.1403,12.1341,12.1218,12.0849,12.1218,12.1526,12.0422,11.8724,11.5771,11.3756,11.1056,10.7798,10.5668,10.4984,10.4241,10.3297,10.3297,10.3297,10.3349,10.3349,10.361,10.3924,10.429,10.4761,10.5388,10.5858,10.6329,10.6433,10.659,10.6642,10.659,10.659,10.6642,10.6642,10.6277,10.5858,10.5545,10.4917,10.4342,10.4081,10.3976,10.3976,10.3976,10.4133,10.4395,10.4604,10.4656,10.4761,10.5126,10.5701,10.5963,10.5911,10.6277,10.6381,10.5754,10.4499,10.382,10.3454,10.3349,10.3297,10.3297,10.3297,10.3297,10.3297,10.3297,10.3297,10.3297,10.3297,10.3297,10.3297,10.3297,10.3297,10.3297,10.3297,10.3297,10.3297,10.3297,10.3297,10.3297,10.3297,10.3297,10.3297,10.3297,10.3297,10.3297,10.3297,10.224,10.0668,9.7736,9.3958,8.9919,8.5872,8.3993,12.0725,12.1403,12.1464,12.1464,12.1587,12.1587,12.1587,12.1587,12.1587,12.1587,12.1587,12.1587,12.1587,12.1587,12.1587,12.1587,12.1587,12.1587,12.1587,12.1587,12.1587,12.1587,12.1587,12.1587,12.1526,12.1464,12.1587,12.0963,11.9152,11.6492,11.4657,11.1927,10.87,10.5913,10.5177,10.4241,10.3744,10.3297,10.3297,10.3297,10.3297,10.3297,10.3401,10.3558,10.382,10.4081,10.4499,10.5022,10.5283,10.5336,10.6172,10.6329,10.612,10.6015,10.6172,10.6433,10.612,10.5649,10.5231,10.4917,10.429,10.3715,10.3454,10.3454,10.3558,10.382,10.4081,10.4447,10.5022,10.5545,10.5701,10.6067,10.6224,10.6172,10.6277,10.6486,10.5911,10.5126,10.4395,10.4029,10.3663,10.3297,10.3297,10.3297,10.3297,10.3297,10.3297,10.3297,10.3297,10.3297,10.3297,10.3297,10.3297,10.3297,10.3297,10.3297,10.3297,10.3297,10.3297,10.3297,10.3297,10.3297,10.3297,10.3297,10.3297,10.3297,10.3297,10.3297,10.2492,10.0973,9.7996,9.4754,9.1277,8.777,8.4795,12.1279,12.1587,12.1587,12.1587,12.1587,12.1587,12.1587,12.1587,12.1587,12.1587,12.1587,12.1587,12.1587,12.1587,12.1587,12.1587,12.1587,12.1587,12.1587,12.1587,12.1587,12.1587,12.1587,12.1587,12.1587,12.1587,12.1587,12.0754,11.8999,11.7368,11.4432,11.1696,10.8462,10.659,10.5177,10.3993,10.3547,10.3297,10.3297,10.3297,10.3297,10.3297,10.3401,10.3663,10.3715,10.3976,10.4499,10.4761,10.5022,10.5126,10.5492,10.5754,10.5701,10.544,10.5388,10.5963,10.5754,10.5336,10.4865,10.4551,10.3924,10.3767,10.3454,10.3297,10.3349,10.3558,10.382,10.4238,10.4761,10.544,10.5388,10.5963,10.6067,10.6067,10.6381,10.6538,10.6172,10.5492,10.497,10.4447,10.382,10.3401,10.3297,10.3297,10.3297,10.3297,10.3297,10.3297,10.3297,10.3297,10.3297,10.3297,10.3297,10.3297,10.3297,10.3297,10.3297,10.3297,10.3297,10.3297,10.3297,10.3297,10.3297,10.3297,10.3297,10.3297,10.3046,10.3046,10.2292,10.1228,9.8255,9.5331,9.2623,8.9692,8.6429,12.1587,12.1587,12.1587,12.1587,12.1587,12.1587,12.1587,12.1587,12.1587,12.1587,12.1587,12.1587,12.1587,12.1587,12.1587,12.1587,12.1587,12.1587,12.1587,12.1587,12.1587,12.1587,12.1587,12.1587,12.1587,12.1587,12.1587,12.0754,11.8999,11.7427,11.4881,11.1465,10.912,10.7021,10.493,10.3744,10.3297,10.3297,10.3297,10.3297,10.3297,10.3297,10.3454,10.3872,10.3924,10.4081,10.4395,10.4656,10.4604,10.4656,10.4865,10.5179,10.5336,10.4761,10.4708,10.5283,10.5022,10.4865,10.4604,10.4133,10.3767,10.3715,10.3506,10.3349,10.3297,10.3401,10.3558,10.4081,10.4656,10.5074,10.5179,10.5649,10.5963,10.6015,10.6329,10.6642,10.6329,10.5806,10.5126,10.4551,10.382,10.3454,10.3297,10.3297,10.3297,10.3297,10.3297,10.3297,10.3297,10.3297,10.3297,10.3297,10.3297,10.3297,10.3297,10.3297,10.3297,10.3297,10.3297,10.3297,10.3297,10.3297,10.3297,10.3297,10.3297,10.3297,10.3046,10.2795,10.2039,10.0719,9.8305,9.5594,9.2401,8.9965,8.7218,12.1587,12.1587,12.1587,12.1587,12.1587,12.1587,12.1587,12.1587,12.1587,12.1587,12.1587,12.1587,12.1587,12.1587,12.1587,12.1587,12.1587,12.1587,12.1587,12.1587,12.1587,12.1587,12.1587,12.1587,12.1587,12.1587,12.1587,12.0544,11.8999,11.6712,11.3471,11.0533,10.7984,10.5177,10.4489,10.3744,10.3297,10.3297,10.3297,10.3297,10.3297,10.3297,10.3349,10.3401,10.3454,10.3506,10.3767,10.3976,10.4029,10.3767,10.4499,10.4708,10.4499,10.4761,10.4551,10.4447,10.4238,10.4185,10.4133,10.3924,10.3663,10.3558,10.3349,10.3297,10.3297,10.3297,10.3506,10.4029,10.4551,10.4865,10.5022,10.5911,10.6172,10.6224,10.6381,10.659,10.6486,10.5701,10.5074,10.4551,10.382,10.3506,10.3297,10.3297,10.3297,10.3297,10.3297,10.3297,10.3297,10.3297,10.3297,10.3297,10.3297,10.3297,10.3297,10.3297,10.3297,10.3297,10.3297,10.3297,10.3297,10.3297,10.3297,10.3297,10.3297,10.3297,10.3297,10.2795,10.2039,10.0973,9.9387,9.5857,9.1593,8.9692,8.8046,12.1587,12.1587,12.1587,12.1587,12.1587,12.1587,12.1587,12.1587,12.1587,12.1587,12.1587,12.1587,12.1587,12.1587,12.1587,12.1587,12.1587,12.1587,12.1587,12.1587,12.1587,12.1587,12.1587,12.1587,12.1587,12.1587,12.1587,12.138,11.9578,11.715,11.4207,11.1753,10.8994,10.6887,10.523,10.4737,10.3993,10.3547,10.3297,10.3297,10.3297,10.3297,10.3297,10.3297,10.3297,10.3297,10.3349,10.3454,10.3558,10.3349,10.3872,10.4081,10.4029,10.4081,10.3976,10.4185,10.382,10.3663,10.361,10.3663,10.3506,10.3401,10.3297,10.3297,10.3297,10.3297,10.3349,10.361,10.3872,10.4133,10.4551,10.5231,10.5701,10.5963,10.6277,10.6329,10.6172,10.5492,10.4865,10.4342,10.3872,10.3558,10.3297,10.3297,10.3297,10.3297,10.3297,10.3297,10.3297,10.3297,10.3297,10.3297,10.3297,10.3297,10.3297,10.3297,10.3297,10.3297,10.3297,10.3297,10.3297,10.3297,10.3297,10.3297,10.3297,10.3297,10.3297,10.2795,10.2039,10.1228,10.0719,9.6954,9.3206,9.051,8.8277,12.1587,12.1587,12.1587,12.1587,12.1587,12.1587,12.1587,12.1587,12.1587,12.1587,12.1587,12.1587,12.1587,12.1587,12.1587,12.1587,12.1587,12.1587,12.1587,12.1587,12.1587,12.1587,12.1587,12.1587,12.1587,12.1587,12.1587,12.138,12.0483,11.8078,11.5386,11.3644,11.0232,10.8333,10.6887,10.5668,10.4489,10.3297,10.3297,10.3297,10.3297,10.3297,10.3297,10.3297,10.3297,10.3297,10.3297,10.3297,10.3297,10.3297,10.3349,10.3558,10.3715,10.361,10.361,10.3715,10.3506,10.3349,10.3349,10.3349,10.3297,10.3297,10.3297,10.3297,10.3297,10.3297,10.3297,10.3349,10.361,10.3767,10.3976,10.4708,10.5336,10.5754,10.6067,10.6067,10.5858,10.5179,10.4604,10.4238,10.382,10.3454,10.3297,10.3297,10.3297,10.3297,10.3297,10.3297,10.3297,10.3297,10.3297,10.3297,10.3297,10.3297,10.3297,10.3297,10.3297,10.3297,10.3297,10.3297,10.3297,10.3297,10.3297,10.3297,10.3297,10.3297,10.3297,10.2544,10.1786,10.1228,10.0208,9.8354,9.5643,9.2132,8.8322,12.1587,12.1587,12.1587,12.1587,12.1587,12.1587,12.1587,12.1587,12.1587,12.1587,12.1587,12.1587,12.1587,12.1587,12.1587,12.1587,12.1587,12.1587,12.1587,12.1587,12.1587,12.1587,12.1587,12.1587,12.1587,12.1587,12.1587,12.1587,12.0693,11.8078,11.583,11.3982,11.1113,10.8811,10.6887,10.5668,10.4489,10.3547,10.3297,10.3297,10.3297,10.3297,10.3297,10.3297,10.3297,10.3297,10.3297,10.3297,10.3297,10.3297,10.3297,10.3297,10.3454,10.3349,10.3401,10.3401,10.3401,10.3297,10.3297,10.3297,10.3297,10.3297,10.3297,10.3297,10.3297,10.3297,10.3297,10.3297,10.3558,10.3663,10.4029,10.4604,10.5283,10.5597,10.5858,10.5858,10.5492,10.4761,10.429,10.4029,10.3715,10.3401,10.3297,10.3297,10.3297,10.3297,10.3297,10.3297,10.3297,10.3297,10.3297,10.3297,10.3297,10.3297,10.3297,10.3297,10.3297,10.3297,10.3297,10.3297,10.3297,10.3297,10.3297,10.3297,10.3297,10.3297,10.3046,10.2292,10.1481,10.0973,9.9644,9.6954,9.3206,8.8871,8.5872,12.1587,12.1587,12.1587,12.1587,12.1587,12.1587,12.1587,12.1587,12.1587,12.1587,12.1587,12.1587,12.1587,12.1587,12.1587,12.1587,12.1587,12.1587,12.1587,12.1587,12.1587,12.1587,12.1587,12.1587,12.1587,12.1587,12.1587,12.1587,12.1172,11.8078,11.6492,11.449,11.2041,10.9287,10.7371,10.5423,10.3993,10.3494,10.3297,10.3297,10.3297,10.3297,10.3297,10.3297,10.3297,10.3297,10.3297,10.3297,10.3297,10.3297,10.3297,10.3297,10.3297,10.3297,10.3297,10.3297,10.3297,10.3297,10.3297,10.3297,10.3297,10.3297,10.3297,10.3297,10.3297,10.3297,10.3297,10.3349,10.3454,10.3558,10.4029,10.4708,10.5283,10.5492,10.5597,10.5597,10.5231,10.4499,10.3976,10.3715,10.3558,10.3297,10.3297,10.3297,10.3297,10.3297,10.3297,10.3297,10.3297,10.3297,10.3297,10.3297,10.3297,10.3297,10.3297,10.3297,10.3297,10.3297,10.3297,10.3297,10.3297,10.3297,10.3297,10.3297,10.3297,10.3297,10.3046,10.1988,10.1481,10.0973,9.8305,9.4802,9.0464,8.5872,8.3993,12.1587,12.1587,12.1587,12.1587,12.1587,12.1587,12.1587,12.1587,12.1587,12.1587,12.1587,12.1587,12.1587,12.1587,12.1587,12.1587,12.1587,12.1587,12.1587,12.1587,12.1587,12.1587,12.1587,12.1587,12.1587,12.1587,12.1587,12.1587,12.138,11.8509,11.6991,11.5386,11.3417,11.0701,10.7908,10.523,10.3796,10.3297,10.3297,10.3297,10.3297,10.3297,10.3297,10.3297,10.3297,10.3297,10.3297,10.3297,10.3297,10.3297,10.3297,10.3297,10.3297,10.3297,10.3297,10.3297,10.3297,10.3297,10.3297,10.3297,10.3297,10.3297,10.3297,10.3297,10.3297,10.3297,10.3297,10.3297,10.3297,10.3454,10.3924,10.4551,10.5074,10.5336,10.5388,10.5336,10.4917,10.4342,10.382,10.3401,10.3297,10.3297,10.3297,10.3297,10.3297,10.3297,10.3297,10.3297,10.3297,10.3297,10.3297,10.3297,10.3297,10.3297,10.3297,10.3297,10.3297,10.3297,10.3297,10.3297,10.3297,10.3297,10.3297,10.3297,10.3297,10.3297,10.2795,10.1988,10.1481,10.1228,9.7215,9.2623,8.91,8.5076,8.3711,12.1587,12.1587,12.1587,12.1587,12.1587,12.1587,12.1587,12.1587,12.1587,12.1587,12.1587,12.1587,12.1587,12.1587,12.1587,12.1587,12.1587,12.1587,12.1587,12.1587,12.1587,12.1587,12.1587,12.1587,12.1587,12.1587,12.1587,12.1587,12.1587,11.9426,11.7862,11.6051,11.3871,11.1402,10.8811,10.6401,10.4489,10.3547,10.3297,10.3297,10.3297,10.3297,10.3297,10.3297,10.3297,10.3297,10.3297,10.3297,10.3297,10.3297,10.3297,10.3297,10.3297,10.3297,10.3297,10.3297,10.3297,10.3297,10.3297,10.3297,10.3297,10.3297,10.3297,10.3297,10.3297,10.3297,10.3297,10.3297,10.3297,10.3297,10.3715,10.429,10.4813,10.5231,10.5283,10.5126,10.4708,10.4081,10.3558,10.3349,10.3297,10.3297,10.3297,10.3297,10.3297,10.3297,10.3297,10.3297,10.3297,10.3297,10.3297,10.3297,10.3297,10.3297,10.3297,10.3297,10.3297,10.3297,10.3297,10.3297,10.3297,10.3297,10.3297,10.3297,10.3297,10.3297,10.2795,10.224,10.0973,9.9337,9.4802,9.0238,8.6985,8.4233,8.2861,12.1587,12.1587,12.1587,12.1587,12.1587,12.1587,12.1587,12.1587,12.1587,12.1587,12.1587,12.1587,12.1587,12.1587,12.1587,12.1587,12.1587,12.1587,12.1587,12.1587,12.1587,12.1587,12.1587,12.1587,12.1587,12.1587,12.1587,12.1587,12.1587,12.0062,11.8999,11.7427,11.3529,11.012,10.7612,10.5476,10.3494,10.3297,10.3297,10.3297,10.3297,10.3297,10.3297,10.3297,10.3297,10.3297,10.3297,10.3297,10.3297,10.3297,10.3297,10.3297,10.3297,10.3297,10.3297,10.3297,10.3297,10.3297,10.3297,10.3297,10.3297,10.3297,10.3297,10.3297,10.3297,10.3297,10.3297,10.3297,10.3297,10.3401,10.3924,10.4499,10.5074,10.544,10.5492,10.5179,10.4708,10.3872,10.3297,10.3297,10.3297,10.3297,10.3297,10.3297,10.3297,10.3297,10.3297,10.3297,10.3297,10.3297,10.3297,10.3297,10.3297,10.3297,10.3297,10.3297,10.3297,10.3297,10.3297,10.3297,10.3297,10.3297,10.3297,10.3297,10.3297,10.3297,10.2544,10.1735,9.9337,9.6693,9.3206,8.9692,8.6663,8.4233,8.2335,12.1587,12.1587,12.1587,12.1587,12.1587,12.1587,12.1587,12.1587,12.1587,12.1587,12.1587,12.1587,12.1587,12.1587,12.1587,12.1587,12.1587,12.1587,12.1587,12.1587,12.1587,12.1587,12.1587,12.1587,12.1587,12.1587,12.1587,12.1587,12.1587,12.0544,11.9212,11.6931,11.3017,10.9885,10.7316,10.4984,10.3297,10.3297,10.3297,10.3297,10.3297,10.3297,10.3297,10.3297,10.3297,10.3297,10.3297,10.3297,10.3297,10.3297,10.3297,10.3297,10.3297,10.3297,10.3297,10.3297,10.3297,10.3297,10.3297,10.3297,10.3297,10.3297,10.3297,10.3297,10.3297,10.3297,10.3297,10.3297,10.3297,10.361,10.4081,10.4656,10.5179,10.5545,10.5492,10.5179,10.4761,10.3976,10.3297,10.3297,10.3349,10.3297,10.3297,10.3297,10.3297,10.3297,10.3297,10.3297,10.3297,10.3297,10.3297,10.3297,10.3297,10.3297,10.3297,10.3297,10.3297,10.3297,10.3297,10.3297,10.3297,10.3297,10.3297,10.3297,10.3297,10.3046,10.2492,10.1228,9.9644,9.6954,9.3473,8.9965,8.6663,8.4233,8.205,12.1587,12.1587,12.1587,12.1587,12.1587,12.1587,12.1587,12.1587,12.1587,12.1587,12.1587,12.1587,12.1587,12.1587,12.1587,12.1587,12.1587,12.1587,12.1587,12.1587,12.1587,12.1587,12.1587,12.1587,12.1587,12.1587,12.1587,12.1587,12.1587,12.1172,11.9638,11.6492,11.3529,11.0355,10.7316,10.4984,10.3744,10.3547,10.3297,10.3297,10.3297,10.3297,10.3297,10.3297,10.3297,10.3297,10.3297,10.3297,10.3297,10.3297,10.3297,10.3297,10.3297,10.3297,10.3297,10.3297,10.3297,10.3297,10.3297,10.3297,10.3297,10.3297,10.3297,10.3297,10.3297,10.3297,10.3297,10.3297,10.3297,10.3715,10.4133,10.4708,10.5283,10.5388,10.544,10.5179,10.4865,10.4238,10.3558,10.3349,10.3401,10.3401,10.3349,10.3349,10.3558,10.3349,10.3349,10.3401,10.3349,10.3297,10.3297,10.3297,10.3297,10.3297,10.3297,10.3297,10.3297,10.3297,10.3297,10.3297,10.3297,10.3297,10.3297,10.3297,10.3297,10.2795,10.1988,10.1228,10.0463,9.7525,9.432,9.1323,8.8322,8.4233,8.1806,12.1587,12.1587,12.1587,12.1587,12.1587,12.1587,12.1587,12.1587,12.1587,12.1587,12.1587,12.1587,12.1587,12.1587,12.1587,12.1587,12.1587,12.1587,12.1587,12.1587,12.1587,12.1587,12.1587,12.1587,12.1587,12.1587,12.1587,12.1587,12.1587,12.1587,11.9152,11.5327,11.4207,11.1232,10.8038,10.5423,10.4489,10.3494,10.3547,10.3297,10.3297,10.3297,10.3297,10.3297,10.3297,10.3297,10.3297,10.3297,10.3297,10.3297,10.3297,10.3297,10.3297,10.3297,10.3297,10.3297,10.3297,10.3297,10.3297,10.3297,10.3297,10.3297,10.3297,10.3297,10.3297,10.3297,10.3297,10.3297,10.3401,10.382,10.4395,10.497,10.5545,10.5858,10.5754,10.5388,10.5074,10.4551,10.3872,10.3506,10.3558,10.3506,10.3454,10.382,10.3924,10.361,10.3454,10.3454,10.3401,10.3349,10.3297,10.3297,10.3297,10.3297,10.3297,10.3297,10.3297,10.3297,10.3297,10.3297,10.3297,10.3297,10.3297,10.3297,10.3046,10.224,10.1481,10.0719,10.0208,9.8872,9.5955,9.2938,8.9692,8.5592,8.205,12.1587,12.1587,12.1587,12.1587,12.1587,12.1587,12.1587,12.1587,12.1587,12.1587,12.1587,12.1587,12.1587,12.1587,12.1587,12.1587,12.1587,12.1587,12.1587,12.1587,12.1587,12.1587,12.1587,12.1587,12.1587,12.1587,12.1587,12.1587,12.1587,12.1172,11.9365,11.583,11.5104,11.2157,10.8994,10.6644,10.5423,10.4241,10.3744,10.3297,10.3297,10.3297,10.3297,10.3297,10.3297,10.3297,10.3297,10.3297,10.3297,10.3297,10.3297,10.3297,10.3297,10.3297,10.3297,10.3297,10.3297,10.3297,10.3297,10.3297,10.3297,10.3297,10.3297,10.3454,10.3454,10.3454,10.3349,10.3297,10.3558,10.3924,10.4604,10.5283,10.5911,10.6538,10.6172,10.5754,10.5283,10.4813,10.4342,10.382,10.3663,10.3663,10.382,10.4185,10.4185,10.3663,10.3401,10.3401,10.3349,10.3297,10.3297,10.3297,10.3297,10.3297,10.3245,10.3192,10.3192,10.3192,10.3297,10.3297,10.3297,10.3245,10.3192,10.2994,10.2795,10.1988,10.1228,10.0719,9.9901,9.8613,9.648,9.2938,8.9965,8.694,8.4233,12.1587,12.1587,12.1587,12.1587,12.1587,12.1587,12.1587,12.1587,12.1587,12.1587,12.1587,12.1587,12.1587,12.1587,12.1587,12.1587,12.1587,12.1587,12.1587,12.1587,12.1587,12.1587,12.1587,12.1587,12.1587,12.1587,12.1587,12.1587,12.1587,12.1172,11.985,11.6551,11.6051,11.3587,10.976,10.7612,10.6157,10.5423,10.3993,10.3297,10.3297,10.3297,10.3297,10.3297,10.3297,10.3297,10.3297,10.3297,10.3297,10.3297,10.3297,10.3297,10.3297,10.3297,10.3297,10.3297,10.3297,10.3297,10.3297,10.3297,10.3297,10.3297,10.3297,10.3454,10.3506,10.361,10.3558,10.382,10.4133,10.4499,10.5126,10.5492,10.6015,10.6433,10.6381,10.6015,10.5597,10.5126,10.4551,10.4185,10.4133,10.4081,10.3872,10.4238,10.4499,10.3767,10.361,10.3663,10.3349,10.3297,10.3245,10.3245,10.3297,10.3245,10.3035,10.2983,10.2983,10.3035,10.3035,10.2931,10.2669,10.2826,10.314,10.2786,10.2483,10.1884,10.1176,10.0668,9.9901,9.8872,9.648,9.267,8.9692,8.777,8.5356,12.1587,12.1587,12.1587,12.1587,12.1587,12.1587,12.1587,12.1587,12.1587,12.1587,12.1587,12.1587,12.1587,12.1587,12.1587,12.1587,12.1587,12.1587,12.1587,12.1587,12.1587,12.1587,12.1587,12.1587,12.1587,12.1587,12.1587,12.1587,12.1587,12.1172,11.985,11.6771,11.6331,11.4323,11.0758,10.8572,10.6887,10.6157,10.4489,10.3297,10.3297,10.3297,10.3297,10.3297,10.3297,10.3297,10.3297,10.3297,10.3297,10.3297,10.3297,10.3297,10.3297,10.3297,10.3297,10.3297,10.3297,10.3297,10.3297,10.3297,10.3297,10.3297,10.3297,10.3349,10.3506,10.3767,10.4029,10.4342,10.4761,10.5179,10.5492,10.5806,10.6067,10.6329,10.659,10.6277,10.5963,10.544,10.4813,10.4656,10.4604,10.4395,10.4133,10.4185,10.4499,10.4604,10.4604,10.4395,10.361,10.3297,10.3192,10.3192,10.3245,10.3192,10.2931,10.2722,10.2722,10.2408,10.2251,10.2147,10.2042,10.2199,10.2408,10.2264,10.2067,10.1471,10.0869,10.0617,9.985,9.8671,9.6333,9.2797,9.0689,8.8552,8.5872,12.1587,12.1587,12.1587,12.1587,12.1587,12.1587,12.1587,12.1587,12.1587,12.1587,12.1587,12.1587,12.1587,12.1587,12.1587,12.1587,12.1587,12.1587,12.1587,12.1587,12.1587,12.1587,12.1587,12.1587,12.1587,12.1587,12.1587,12.1587,12.1587,12.138,12.0062,11.7645,11.6771,11.4997,11.1866,10.9287,10.7129,10.6887,10.4489,10.3547,10.3297,10.3297,10.3297,10.3297,10.3297,10.3297,10.3297,10.3297,10.3297,10.3297,10.3297,10.3297,10.3297,10.3297,10.3297,10.3297,10.3297,10.3297,10.3297,10.3297,10.3297,10.3297,10.3297,10.3349,10.3767,10.3976,10.4029,10.4395,10.5179,10.5597,10.5806,10.6067,10.6329,10.659,10.6642,10.6486,10.6381,10.612,10.544,10.4813,10.4656,10.4395,10.4081,10.3663,10.3924,10.3924,10.4185,10.429,10.361,10.3297,10.3192,10.3088,10.314,10.3192,10.3088,10.2774,10.2408,10.2042,10.1519,10.1624,10.1676,10.1624,10.1676,10.1638,10.1547,10.0852,10.0305,10.0107,9.9243,9.8226,9.5795,9.3093,9.1045,8.8646,8.5462,12.1587,12.1587,12.1587,12.1587,12.1587,12.1587,12.1587,12.1587,12.1587,12.1587,12.1587,12.1587,12.1587,12.1587,12.1587,12.1587,12.1587,12.1587,12.1587,12.1587,12.1587,12.1587,12.1587,12.1587,12.1587,12.1587,12.1587,12.1587,12.1587,12.138,12.0754,11.8999,11.7209,11.5444,11.296,10.9705,10.7129,10.6401,10.4984,10.3547,10.3297,10.3297,10.3297,10.3297,10.3297,10.3297,10.3297,10.3297,10.3297,10.3297,10.3297,10.3297,10.3297,10.3297,10.3297,10.3297,10.3297,10.3297,10.3297,10.3297,10.3297,10.3297,10.3297,10.3454,10.3872,10.4133,10.4133,10.4604,10.5388,10.5911,10.612,10.6329,10.6538,10.6695,10.6695,10.6642,10.659,10.6486,10.5754,10.5022,10.4604,10.429,10.3976,10.3506,10.3401,10.3349,10.3349,10.3349,10.3297,10.3297,10.3192,10.3035,10.2931,10.3035,10.2826,10.2565,10.2042,10.1415,10.0944,10.1153,10.1258,10.0997,10.0997,10.131,10.0974,10.0532,9.9889,9.9644,9.8685,9.7877,9.5258,9.2883,8.9952,8.7376,8.4086,12.1587,12.1587,12.1587,12.1587,12.1587,12.1587,12.1587,12.1587,12.1587,12.1587,12.1587,12.1587,12.1587,12.1587,12.1587,12.1587,12.1587,12.1587,12.1587,12.1587,12.1587,12.1587,12.1587,12.1587,12.1587,12.1587,12.1587,12.1587,12.1587,12.1587,12.0754,11.9212,11.7209,11.5444,11.3189,10.9941,10.6887,10.6401,10.4984,10.3297,10.3297,10.3297,10.3297,10.3297,10.3297,10.3297,10.3297,10.3297,10.3297,10.3297,10.3297,10.3297,10.3297,10.3297,10.3297,10.3297,10.3297,10.3297,10.3297,10.3297,10.3297,10.3297,10.3297,10.3297,10.3767,10.429,10.4395,10.4708,10.5388,10.6015,10.6277,10.6486,10.6695,10.6695,10.6695,10.6433,10.6329,10.6067,10.5597,10.4917,10.4342,10.4133,10.3976,10.3767,10.3767,10.3715,10.3715,10.3663,10.3297,10.3245,10.3245,10.2983,10.2722,10.1938,10.1363,10.1833,10.1467,10.084,10.0369,10.0526,10.0474,10.016,10.0265,10.0683,10.0647,10.026,9.9623,9.8928,9.833,9.7272,9.5075,9.236,8.9445,8.6657,8.3657]},{"header":{"parameterUnit":"m.s-1","parameterCategory":1,"la1":31.0,"la2":29.5877,"lo1":-88.7671,"lo2":-86.6584,"dx":0.0162,"dy":0.0185,"nx":115,"ny":88,"refTime":"2022-12-18T18:00:00:Z","depth":0,"parameterNumber":3,"parameterNumberName":"V-component_of_WINDS"},"data":[0.0,0.0,0.0,0.0,0.0,0.0,0.0,0.0,0.0,0.0,0.0,0.0,0.0,0.0,0.0,0.0,0.0,0.0,0.0,0.0,0.0,0.0,0.0,0.0,0.0,0.0,0.0,0.0,0.0,0.0,0.0,0.0,0.0,0.0,0.0,0.0,0.0,0.0,0.0,0.0,0.0,0.0,0.0,0.0,0.0,0.0,0.0,0.0,0.0,0.0,0.0,0.0,0.0,0.0,0.0,0.0,0.0,0.0,0.0,0.0,0.0,0.0,0.0,0.0,0.0,0.0,0.0,0.0,0.0,0.0,0.0,0.0,0.0,0.0,0.0,0.0,0.0,0.0,0.0,0.0,0.0,0.0,0.0,0.0,0.0,0.0,0.0,0.0,0.0,0.0,0.0,0.0,0.0,0.0,0.0,0.0,0.0,0.0,0.0,0.0,0.0,0.0,0.0,0.0,0.0,0.0,0.0,0.0,0.0,0.0,0.0,0.0,0.0,0.0,0.0,0.0,0.0,0.0,0.0,0.0,0.0,0.0,0.0,0.0,0.0,0.0,0.0,0.0,0.0,0.0,0.0,0.0,0.0,0.0,0.0,0.0,0.0,0.0,0.0,0.0,0.0,0.0,0.0,0.0,0.0,0.0,0.0,0.0,0.0,0.0,0.0,0.0,0.0,0.0,0.0,0.0,0.0,0.0,0.0,0.0,0.0,0.0,0.0,0.0,0.0,0.0,0.0,0.0,0.0,0.0,0.0,0.0,0.0,0.0,0.0,0.0,0.0,0.0,0.0,0.0,0.0,0.0,0.0,0.0,0.0,0.0,0.0,0.0,0.0,0.0,0.0,0.0,0.0,0.0,0.0,0.0,0.0,0.0,0.0,0.0,0.0,0.0,0.0,0.0,0.0,0.0,0.0,0.0,0.0,0.0,0.0,0.0,0.0,0.0,0.0,0.0,0.0,0.0,0.0,0.0,0.0,0.0,0.0,0.0,0.0,0.0,0.0,0.0,0.0,0.0,0.0,0.0,0.0,0.0,0.0,0.0,0.0,0.0,0.0,0.0,0.0,0.0,0.0,0.0,0.0,0.0,0.0,0.0,0.0,0.0,0.0,0.0,0.0,0.0,0.0,0.0,0.0,0.0,0.0,0.0,0.0,0.0,0.0,0.0,0.0,0.0,0.0,0.0,0.0,0.0,0.0,0.0,0.0,0.0,0.0,0.0,0.0,0.0,0.0,0.0,0.0,0.0,0.0,0.0,0.0,0.0,0.0,0.0,0.0,0.0,0.0,0.0,0.0,0.0,0.0,0.0,0.0,0.0,0.0,0.0,0.0,0.0,0.0,0.0,0.0,0.0,0.0,0.0,0.0,0.0,0.0,0.0,0.0,0.0,0.0,0.0,0.0,0.0,0.0,0.0,0.0,0.0,0.0,0.0,0.0,0.0,0.0,0.0,0.0,0.0,0.0,0.0,0.0,0.0,0.0,0.0,0.0,0.0,0.0,0.0,0.0,0.0,0.0,0.0,0.0,0.0,0.0,0.0,0.0,0.0,0.0,0.0,0.0,0.0,0.0,0.0,0.0,0.0,0.0,0.0,0.0,0.0,0.0,0.0,0.0,0.0,0.0,0.0,0.0,0.0,0.0,0.0,0.0,0.0,0.0,0.0,0.0,0.0,0.0,0.0,0.0,0.0,0.0,0.0,0.0,0.0,0.0,0.0,0.0,0.0,0.0,0.0,0.0,0.0,0.0,0.0,0.0,0.0,0.0,0.0,0.0,0.0,0.0,0.0,0.0,0.0,0.0,0.0,0.0,0.0,0.0,0.0,0.0,0.0,0.0,0.0,0.0,0.0,0.0,0.0,0.0,0.0,0.0,0.0,0.0,0.0,0.0,0.0,0.0,0.0,0.0,0.0,0.0,0.0,0.0,0.0,0.0,0.0,0.0,0.0,0.0,0.0,0.0,0.0,0.0,0.0,0.0,0.0,0.0,0.0,0.0,0.0,0.0,0.0,0.0,0.0,0.0,0.0,0.0,0.0,0.0,0.0,0.0,0.0,0.0,0.0,0.0,0.0,0.0,0.0,0.0,0.0,0.0,0.0,0.0,0.0,0.0,0.0,0.0,0.0,0.0,0.0,0.0,0.0,0.0,0.0,0.0,0.0,0.0,0.0,0.0,0.0,0.0,0.0,0.0,0.0,0.0,0.0,0.0,0.0,0.0,0.0,0.0,0.0,0.0,0.0,0.0,0.0,0.0,0.0,0.0,0.0,0.0,0.0,0.0,0.0,0.0,0.0,0.0,0.0,0.0,0.0,0.0,0.0,0.0,0.0,0.0,0.0,0.0,0.0,0.0,0.0,0.0,0.0,0.0,0.0,0.0,0.0,0.0,0.0,0.0,0.0,0.0,0.0,0.0,0.0,0.0,0.0,0.0,0.0,0.0,0.0,0.0,0.0,0.0,0.0,0.0,0.0,0.0,0.0,0.0,0.0,0.0,0.0,0.0,0.0,0.0,0.0,0.0,0.0,0.0,0.0,0.0,0.0,0.0,0.0,0.0,0.0,0.0,0.0,0.0,0.0,0.0,0.0,0.0,0.0,0.0,0.0,0.0,0.0,0.0,0.0,0.0,0.0,0.0,0.0,0.0,0.0,0.0,0.0,0.0,0.0,0.0,0.0,0.0,0.0,0.0,0.0,0.0,0.0,0.0,0.0,0.0,0.0,0.0,0.0,0.0,0.0,0.0,0.0,0.0,0.0,0.0,0.0,0.0,0.0,0.0,0.0,0.0,0.0,0.0,0.0,0.0,0.0,0.0,0.0,0.0,0.0,0.0,0.0,0.0,0.0,0.0,0.0,0.0,0.0,0.0,0.0,0.0,0.0,0.0,0.0,0.0,0.0,0.0,0.0,0.0,0.0,0.0,0.0,0.0,0.0,0.0,0.0,0.0,0.0,0.0,0.0,0.0,0.0,0.0,0.0,0.0,0.0,0.0,0.0,0.0,0.0,0.0,0.0,0.0,0.0,0.0,0.0,0.0,0.0,0.0,0.0,0.0,0.0,0.0,0.0,0.0,0.0,0.0,0.0,0.0,0.0,0.0,0.0,0.0,0.0,0.0,0.0,0.0,0.0,0.0,0.0,0.0,0.0,0.0,0.0,0.0,0.0,0.0,0.0,0.0,0.0,0.0,0.0,0.0,0.0,0.0,0.0,0.0,0.0,0.0,0.0,0.0,0.0,0.0,0.0,0.0,0.0,0.0,0.0,0.0,0.0,0.0,0.0,0.0,0.0,0.0,0.0,0.0,0.0,0.0,0.0,0.0,0.0,0.0,0.0,0.0,0.0,0.0,0.0,0.0,0.0,0.0,0.0,0.0,0.0,0.0,0.0,0.0,0.0,0.0,0.0,0.0,0.0,0.0,0.0,0.0,0.0,0.0,0.0,0.0,0.0,0.0,0.0,0.0,0.0,0.0,0.0,0.0,0.0,0.0,0.0,0.0,0.0,0.0,0.0,0.0,0.0,0.0,0.0,0.0,0.0,0.0,0.0,0.0,0.0,0.0,0.0,0.0,0.0,0.0,0.0,0.0,0.0,0.0,0.0,0.0,0.0,0.0,0.0,0.0,0.0,0.0,0.0,0.0,0.0,0.0,0.0,0.0,0.0,0.0,0.0,0.0,0.0,0.0,0.0,0.0,0.0,0.0,0.0,0.0,0.0,0.0,0.0,0.0,0.0,0.0,0.0,0.0,0.0,0.0,0.0,0.0,0.0,0.0,0.0,0.0,0.0,0.0,0.0,0.0,0.0,0.0,0.0,0.0,0.0,0.0,0.0,0.0,0.0,0.0,0.0,0.0,0.0,0.0,0.0,0.0,0.0,0.0,0.0,0.0,0.0,0.0,0.0,0.0,0.0,0.0,0.0,0.0,0.0,0.0,0.0,0.0,0.0,0.0,0.0,0.0,0.0,0.0,0.0,0.0,0.0,0.0,0.0,0.0,0.0,0.0,0.0,0.0,0.0,0.0,0.0,0.0,0.0,0.0,0.0,0.0,0.0,0.0,0.0,0.0,0.0,0.0,0.0,0.0,0.0,0.0,0.0,0.0,0.0,0.0,0.0,0.0,0.0,0.0,0.0,0.0,0.0,0.0,0.0,0.0,0.0,0.0,0.0,0.0,0.0,0.0,0.0,0.0,0.0,0.0,0.0,0.0,0.0,0.0,0.0,0.0,0.0,0.0,0.0,0.0,0.0,0.0,0.0,0.0,0.0,-6.2993,0.0,0.0,0.0,-6.2761,0.0,0.0,0.0,0.0,0.0,0.0,0.0,0.0,0.0,0.0,0.0,0.0,0.0,0.0,0.0,0.0,0.0,0.0,0.0,0.0,0.0,0.0,0.0,0.0,0.0,0.0,0.0,0.0,0.0,0.0,0.0,0.0,0.0,0.0,0.0,0.0,0.0,0.0,0.0,0.0,0.0,0.0,0.0,0.0,0.0,0.0,0.0,0.0,0.0,0.0,0.0,0.0,0.0,0.0,0.0,0.0,0.0,0.0,0.0,0.0,0.0,0.0,0.0,0.0,0.0,0.0,0.0,0.0,0.0,0.0,0.0,0.0,0.0,0.0,0.0,0.0,0.0,0.0,0.0,0.0,0.0,0.0,0.0,0.0,0.0,0.0,0.0,0.0,0.0,0.0,0.0,0.0,0.0,0.0,0.0,0.0,0.0,0.0,0.0,0.0,0.0,0.0,0.0,0.0,0.0,0.0,0.0,0.0,0.0,0.0,-6.3109,-6.2122,-6.1832,-6.1948,-6.2529,0.0,0.0,0.0,0.0,0.0,0.0,0.0,0.0,0.0,0.0,0.0,0.0,0.0,0.0,0.0,0.0,0.0,0.0,0.0,0.0,0.0,0.0,0.0,0.0,0.0,0.0,0.0,0.0,0.0,0.0,0.0,0.0,0.0,0.0,0.0,0.0,0.0,0.0,0.0,0.0,0.0,0.0,0.0,0.0,0.0,0.0,0.0,0.0,0.0,0.0,0.0,0.0,0.0,0.0,0.0,0.0,0.0,0.0,0.0,0.0,0.0,0.0,0.0,0.0,0.0,0.0,0.0,0.0,0.0,0.0,0.0,0.0,0.0,0.0,0.0,0.0,0.0,0.0,0.0,0.0,0.0,0.0,0.0,0.0,0.0,0.0,0.0,0.0,0.0,0.0,0.0,0.0,0.0,0.0,0.0,0.0,0.0,0.0,0.0,0.0,0.0,0.0,0.0,0.0,0.0,0.0,0.0,0.0,0.0,0.0,0.0,0.0,-6.189,-6.1948,-6.2122,0.0,0.0,0.0,0.0,0.0,0.0,0.0,0.0,0.0,0.0,0.0,0.0,0.0,0.0,0.0,0.0,0.0,0.0,0.0,0.0,0.0,0.0,0.0,0.0,0.0,0.0,0.0,0.0,0.0,0.0,0.0,0.0,0.0,0.0,0.0,0.0,0.0,0.0,0.0,0.0,0.0,0.0,0.0,0.0,0.0,0.0,0.0,0.0,0.0,0.0,0.0,0.0,0.0,0.0,0.0,0.0,0.0,0.0,0.0,0.0,0.0,0.0,0.0,0.0,0.0,0.0,0.0,0.0,0.0,0.0,0.0,0.0,0.0,0.0,0.0,0.0,0.0,0.0,0.0,0.0,0.0,0.0,0.0,0.0,0.0,0.0,0.0,0.0,0.0,0.0,0.0,0.0,0.0,0.0,0.0,0.0,0.0,0.0,0.0,0.0,0.0,0.0,0.0,0.0,0.0,0.0,0.0,0.0,0.0,0.0,-6.2761,-6.3748,-6.218,0.0,-6.2064,0.0,0.0,0.0,0.0,0.0,0.0,0.0,0.0,0.0,0.0,0.0,0.0,0.0,0.0,0.0,0.0,0.0,0.0,0.0,0.0,0.0,0.0,0.0,0.0,0.0,0.0,0.0,0.0,0.0,0.0,0.0,0.0,0.0,0.0,0.0,0.0,0.0,0.0,0.0,0.0,0.0,0.0,0.0,0.0,0.0,0.0,0.0,0.0,0.0,0.0,0.0,0.0,0.0,0.0,0.0,0.0,0.0,0.0,0.0,0.0,0.0,0.0,0.0,0.0,0.0,0.0,0.0,0.0,0.0,0.0,0.0,0.0,0.0,0.0,0.0,0.0,0.0,0.0,0.0,0.0,0.0,0.0,0.0,0.0,0.0,0.0,0.0,0.0,0.0,0.0,0.0,0.0,0.0,0.0,0.0,0.0,0.0,0.0,0.0,0.0,0.0,0.0,0.0,0.0,0.0,0.0,0.0,0.0,0.0,0.0,-6.3341,-6.3457,-6.3457,-6.3225,0.0,0.0,0.0,0.0,0.0,0.0,0.0,0.0,0.0,0.0,0.0,0.0,0.0,0.0,0.0,0.0,0.0,0.0,0.0,0.0,0.0,0.0,0.0,0.0,0.0,0.0,0.0,0.0,0.0,0.0,0.0,0.0,0.0,0.0,0.0,0.0,0.0,0.0,0.0,0.0,0.0,0.0,0.0,0.0,0.0,0.0,0.0,0.0,0.0,0.0,0.0,0.0,0.0,0.0,0.0,0.0,0.0,0.0,0.0,0.0,0.0,0.0,0.0,0.0,0.0,0.0,0.0,0.0,0.0,0.0,0.0,0.0,0.0,0.0,0.0,0.0,0.0,0.0,0.0,0.0,0.0,0.0,0.0,0.0,0.0,0.0,0.0,0.0,0.0,0.0,0.0,0.0,0.0,0.0,0.0,0.0,0.0,0.0,0.0,0.0,0.0,0.0,0.0,0.0,0.0,0.0,0.0,0.0,0.0,0.0,-6.3748,-6.3632,-6.3399,-6.4212,-6.4386,-6.3632,0.0,0.0,0.0,0.0,0.0,0.0,0.0,0.0,0.0,0.0,0.0,0.0,0.0,0.0,0.0,0.0,0.0,0.0,0.0,0.0,0.0,0.0,0.0,0.0,0.0,0.0,0.0,0.0,0.0,0.0,0.0,0.0,0.0,0.0,0.0,0.0,0.0,0.0,0.0,0.0,0.0,0.0,0.0,0.0,0.0,0.0,0.0,0.0,0.0,0.0,0.0,0.0,0.0,0.0,0.0,0.0,0.0,0.0,0.0,0.0,0.0,0.0,0.0,0.0,0.0,0.0,0.0,0.0,0.0,0.0,0.0,0.0,0.0,0.0,0.0,0.0,0.0,0.0,0.0,0.0,0.0,0.0,0.0,0.0,0.0,0.0,0.0,0.0,0.0,0.0,0.0,0.0,0.0,0.0,0.0,0.0,0.0,0.0,0.0,0.0,0.0,0.0,0.0,0.0,0.0,0.0,0.0,0.0,-6.4851,-6.3806,-6.3457,-6.398,-6.4096,-6.4328,0.0,0.0,0.0,0.0,0.0,0.0,0.0,0.0,0.0,0.0,0.0,0.0,0.0,0.0,0.0,0.0,0.0,0.0,0.0,0.0,0.0,0.0,0.0,0.0,0.0,0.0,0.0,0.0,0.0,0.0,0.0,0.0,0.0,0.0,0.0,0.0,0.0,0.0,0.0,0.0,0.0,0.0,0.0,0.0,0.0,0.0,0.0,0.0,0.0,0.0,0.0,0.0,0.0,0.0,0.0,0.0,0.0,0.0,0.0,0.0,0.0,0.0,0.0,0.0,0.0,0.0,0.0,0.0,0.0,0.0,0.0,0.0,0.0,0.0,0.0,0.0,0.0,0.0,0.0,0.0,0.0,0.0,0.0,0.0,0.0,0.0,0.0,0.0,0.0,0.0,0.0,0.0,0.0,0.0,0.0,0.0,0.0,0.0,0.0,0.0,0.0,0.0,0.0,0.0,0.0,0.0,0.0,0.0,0.0,-6.5606,-6.5548,-6.5431,-6.5315,-6.607,-6.6186,0.0,0.0,0.0,0.0,0.0,0.0,0.0,0.0,0.0,0.0,0.0,0.0,0.0,0.0,0.0,0.0,0.0,0.0,0.0,0.0,0.0,0.0,0.0,0.0,0.0,0.0,0.0,0.0,0.0,0.0,0.0,0.0,0.0,0.0,0.0,0.0,0.0,0.0,0.0,0.0,0.0,0.0,0.0,0.0,0.0,0.0,0.0,0.0,0.0,0.0,0.0,0.0,0.0,0.0,0.0,0.0,0.0,0.0,0.0,0.0,0.0,0.0,0.0,0.0,0.0,0.0,0.0,0.0,0.0,0.0,0.0,0.0,0.0,0.0,0.0,0.0,0.0,0.0,0.0,0.0,0.0,0.0,0.0,0.0,0.0,0.0,0.0,0.0,0.0,0.0,0.0,0.0,0.0,0.0,0.0,0.0,0.0,0.0,0.0,0.0,0.0,0.0,0.0,0.0,0.0,0.0,0.0,0.0,0.0,-6.6593,-6.7173,-6.7289,-6.6941,-6.7696,-6.787,0.0,0.0,0.0,0.0,0.0,0.0,0.0,0.0,0.0,0.0,0.0,0.0,0.0,0.0,0.0,0.0,0.0,0.0,0.0,0.0,0.0,0.0,0.0,0.0,0.0,0.0,0.0,0.0,0.0,0.0,0.0,0.0,0.0,0.0,0.0,0.0,0.0,0.0,0.0,0.0,0.0,0.0,0.0,0.0,0.0,0.0,0.0,0.0,0.0,0.0,0.0,0.0,0.0,0.0,0.0,0.0,0.0,0.0,0.0,0.0,0.0,0.0,0.0,0.0,0.0,0.0,0.0,0.0,0.0,0.0,0.0,0.0,0.0,0.0,0.0,0.0,0.0,0.0,0.0,0.0,0.0,0.0,0.0,0.0,0.0,0.0,0.0,0.0,0.0,0.0,0.0,0.0,0.0,0.0,0.0,0.0,0.0,0.0,0.0,0.0,0.0,0.0,0.0,0.0,0.0,0.0,0.0,0.0,-6.7928,-6.7986,-6.8567,-6.8857,-6.8857,-6.8915,-6.9147,0.0,0.0,0.0,0.0,0.0,0.0,0.0,0.0,0.0,0.0,0.0,0.0,0.0,0.0,0.0,0.0,0.0,0.0,0.0,0.0,0.0,0.0,0.0,0.0,0.0,0.0,0.0,0.0,0.0,0.0,0.0,0.0,0.0,0.0,0.0,0.0,0.0,0.0,0.0,0.0,0.0,0.0,0.0,0.0,0.0,0.0,0.0,0.0,0.0,0.0,0.0,0.0,0.0,0.0,0.0,0.0,0.0,0.0,0.0,0.0,0.0,0.0,0.0,0.0,0.0,0.0,0.0,0.0,0.0,0.0,0.0,0.0,0.0,0.0,0.0,0.0,0.0,0.0,0.0,0.0,0.0,0.0,0.0,0.0,0.0,0.0,0.0,0.0,0.0,0.0,0.0,0.0,0.0,0.0,0.0,0.0,0.0,0.0,0.0,0.0,0.0,0.0,0.0,0.0,0.0,0.0,0.0,0.0,0.0,-7.0541,-7.0715,-7.0773,-7.0773,-7.0773,-7.0482,0.0,0.0,0.0,0.0,0.0,0.0,0.0,0.0,0.0,0.0,0.0,0.0,0.0,0.0,0.0,0.0,0.0,0.0,0.0,0.0,0.0,0.0,0.0,0.0,0.0,0.0,0.0,0.0,0.0,0.0,0.0,0.0,0.0,0.0,0.0,0.0,0.0,0.0,0.0,0.0,0.0,0.0,0.0,0.0,0.0,0.0,0.0,0.0,0.0,0.0,0.0,0.0,0.0,0.0,0.0,0.0,0.0,0.0,0.0,0.0,0.0,0.0,0.0,0.0,0.0,0.0,0.0,0.0,0.0,0.0,0.0,0.0,0.0,0.0,0.0,0.0,0.0,0.0,0.0,0.0,0.0,0.0,0.0,0.0,0.0,0.0,0.0,0.0,0.0,0.0,0.0,0.0,0.0,0.0,0.0,0.0,0.0,0.0,0.0,0.0,0.0,0.0,0.0,0.0,0.0,0.0,0.0,0.0,0.0,-7.3095,-7.2398,-7.205,-7.205,-7.1818,-7.1644,-7.1528,0.0,0.0,0.0,0.0,0.0,0.0,0.0,0.0,0.0,0.0,0.0,0.0,0.0,0.0,0.0,0.0,0.0,0.0,0.0,0.0,0.0,0.0,0.0,0.0,0.0,0.0,0.0,0.0,0.0,0.0,0.0,0.0,0.0,0.0,0.0,0.0,0.0,0.0,0.0,0.0,0.0,0.0,0.0,0.0,0.0,0.0,0.0,0.0,0.0,0.0,0.0,0.0,0.0,0.0,0.0,0.0,0.0,0.0,0.0,0.0,0.0,0.0,0.0,0.0,0.0,0.0,0.0,0.0,0.0,0.0,0.0,0.0,0.0,0.0,0.0,0.0,0.0,0.0,0.0,0.0,0.0,0.0,0.0,0.0,0.0,0.0,0.0,0.0,0.0,0.0,0.0,0.0,0.0,0.0,0.0,0.0,0.0,0.0,0.0,0.0,0.0,0.0,0.0,0.0,0.0,0.0,0.0,0.0,-7.5592,-7.3734,-7.2747,-7.2747,-7.2108,-7.2631,0.0,0.0,0.0,0.0,0.0,0.0,0.0,0.0,0.0,0.0,0.0,0.0,0.0,0.0,0.0,0.0,0.0,0.0,0.0,0.0,0.0,0.0,0.0,0.0,0.0,0.0,0.0,0.0,0.0,0.0,0.0,0.0,0.0,0.0,0.0,0.0,0.0,0.0,0.0,0.0,0.0,0.0,0.0,0.0,0.0,0.0,0.0,0.0,0.0,0.0,0.0,0.0,0.0,0.0,0.0,0.0,0.0,0.0,0.0,0.0,0.0,0.0,0.0,0.0,0.0,0.0,0.0,0.0,0.0,0.0,0.0,0.0,0.0,0.0,0.0,0.0,0.0,0.0,0.0,0.0,0.0,0.0,0.0,0.0,0.0,0.0,0.0,0.0,0.0,0.0,0.0,0.0,0.0,0.0,0.0,0.0,0.0,0.0,0.0,0.0,0.0,0.0,0.0,0.0,0.0,0.0,0.0,0.0,0.0,-7.6811,-7.5069,-7.4024,-7.4024,-7.3443,-7.3327,0.0,0.0,0.0,0.0,0.0,0.0,0.0,0.0,0.0,0.0,0.0,0.0,0.0,0.0,0.0,0.0,0.0,0.0,0.0,0.0,0.0,0.0,0.0,0.0,0.0,0.0,0.0,0.0,0.0,0.0,0.0,0.0,0.0,0.0,0.0,0.0,0.0,0.0,0.0,0.0,0.0,0.0,0.0,0.0,0.0,0.0,0.0,0.0,0.0,0.0,0.0,0.0,0.0,0.0,0.0,0.0,0.0,0.0,0.0,0.0,0.0,0.0,0.0,0.0,0.0,0.0,0.0,0.0,0.0,0.0,0.0,0.0,0.0,0.0,0.0,0.0,0.0,0.0,0.0,0.0,0.0,0.0,0.0,0.0,0.0,0.0,0.0,0.0,0.0,0.0,0.0,0.0,0.0,0.0,0.0,0.0,0.0,0.0,0.0,0.0,0.0,0.0,0.0,0.0,0.0,0.0,0.0,0.0,-7.6521,-7.7798,-7.594,-7.5069,-7.5301,-7.3966,-7.385,0.0,0.0,0.0,0.0,0.0,0.0,0.0,0.0,0.0,0.0,0.0,0.0,0.0,0.0,0.0,0.0,0.0,0.0,0.0,0.0,0.0,0.0,0.0,0.0,0.0,0.0,0.0,0.0,0.0,0.0,0.0,0.0,0.0,0.0,0.0,0.0,0.0,0.0,0.0,0.0,0.0,0.0,0.0,0.0,0.0,0.0,0.0,0.0,0.0,0.0,0.0,0.0,0.0,0.0,0.0,0.0,0.0,0.0,0.0,0.0,0.0,0.0,0.0,0.0,0.0,0.0,0.0,0.0,0.0,0.0,0.0,0.0,0.0,0.0,0.0,0.0,0.0,0.0,0.0,0.0,0.0,0.0,0.0,0.0,0.0,0.0,0.0,0.0,0.0,0.0,0.0,0.0,0.0,0.0,0.0,0.0,0.0,0.0,0.0,0.0,0.0,0.0,0.0,0.0,0.0,0.0,0.0,0.0,-7.7275,-7.8669,-7.6695,-7.5998,-7.6637,-7.4314,-7.4372,0.0,0.0,0.0,0.0,0.0,0.0,0.0,0.0,0.0,0.0,0.0,0.0,0.0,0.0,0.0,0.0,0.0,0.0,0.0,0.0,0.0,0.0,0.0,0.0,0.0,0.0,0.0,0.0,0.0,0.0,0.0,0.0,0.0,0.0,0.0,0.0,0.0,0.0,0.0,0.0,0.0,0.0,0.0,0.0,0.0,0.0,0.0,0.0,0.0,0.0,0.0,0.0,0.0,0.0,0.0,0.0,0.0,0.0,0.0,0.0,0.0,0.0,0.0,0.0,0.0,0.0,0.0,0.0,0.0,0.0,0.0,0.0,0.0,0.0,0.0,0.0,0.0,0.0,0.0,0.0,0.0,0.0,0.0,0.0,0.0,0.0,0.0,0.0,0.0,0.0,0.0,0.0,0.0,0.0,0.0,0.0,0.0,0.0,0.0,0.0,0.0,0.0,0.0,0.0,0.0,0.0,0.0,0.0,-7.832,-8.0468,-7.774,-7.7043,-7.8669,-7.6695,-7.6172,0.0,0.0,0.0,0.0,0.0,0.0,0.0,0.0,0.0,0.0,0.0,0.0,0.0,0.0,0.0,0.0,0.0,0.0,0.0,0.0,0.0,0.0,0.0,0.0,0.0,0.0,0.0,0.0,0.0,0.0,0.0,0.0,0.0,0.0,0.0,0.0,0.0,0.0,0.0,0.0,0.0,0.0,0.0,0.0,0.0,0.0,0.0,0.0,-7.1863,0.0,0.0,0.0,0.0,0.0,0.0,0.0,0.0,0.0,0.0,0.0,0.0,0.0,0.0,0.0,0.0,0.0,0.0,0.0,0.0,0.0,0.0,0.0,0.0,0.0,0.0,0.0,0.0,0.0,0.0,0.0,0.0,0.0,0.0,0.0,0.0,0.0,0.0,0.0,0.0,0.0,0.0,0.0,0.0,0.0,0.0,0.0,0.0,0.0,0.0,0.0,0.0,0.0,0.0,0.0,0.0,0.0,0.0,0.0,-7.9249,-8.0236,-7.8959,-7.832,-7.8378,-7.803,-7.7798,0.0,0.0,0.0,0.0,0.0,0.0,0.0,0.0,0.0,0.0,0.0,0.0,0.0,0.0,0.0,0.0,0.0,0.0,0.0,0.0,0.0,0.0,0.0,0.0,0.0,0.0,0.0,0.0,0.0,0.0,0.0,0.0,0.0,0.0,0.0,0.0,0.0,0.0,0.0,0.0,0.0,0.0,0.0,0.0,0.0,0.0,0.0,0.0,0.0,0.0,0.0,0.0,0.0,0.0,0.0,0.0,0.0,0.0,0.0,0.0,0.0,0.0,0.0,0.0,0.0,0.0,0.0,0.0,0.0,0.0,0.0,0.0,0.0,0.0,0.0,0.0,0.0,0.0,0.0,0.0,0.0,0.0,0.0,0.0,0.0,0.0,0.0,0.0,0.0,0.0,0.0,0.0,0.0,0.0,0.0,0.0,0.0,0.0,0.0,0.0,0.0,0.0,0.0,0.0,0.0,0.0,0.0,-8.012,-8.0236,-7.9946,-8.0236,-7.9714,-7.8204,-7.8901,-7.9133,-7.8669,0.0,0.0,0.0,0.0,0.0,0.0,0.0,0.0,0.0,0.0,0.0,0.0,0.0,0.0,0.0,0.0,0.0,0.0,0.0,0.0,0.0,0.0,0.0,0.0,0.0,0.0,0.0,0.0,0.0,0.0,0.0,0.0,0.0,0.0,0.0,0.0,0.0,0.0,-6.8324,-7.003,0.0,0.0,0.0,0.0,0.0,0.0,0.0,0.0,-7.4707,0.0,0.0,0.0,0.0,0.0,0.0,0.0,0.0,0.0,0.0,0.0,0.0,0.0,0.0,0.0,0.0,0.0,0.0,0.0,0.0,0.0,0.0,0.0,0.0,0.0,0.0,0.0,0.0,0.0,0.0,0.0,0.0,0.0,0.0,0.0,0.0,0.0,0.0,0.0,0.0,0.0,0.0,0.0,0.0,0.0,0.0,0.0,0.0,0.0,0.0,0.0,0.0,0.0,0.0,0.0,0.0,-7.9112,-8.0383,-8.1514,-8.25,-8.1572,-8.1165,-8.1339,-8.0062,-7.954,-7.9888,0.0,0.0,0.0,0.0,0.0,0.0,0.0,0.0,0.0,0.0,0.0,0.0,0.0,0.0,0.0,0.0,0.0,0.0,0.0,0.0,0.0,0.0,0.0,0.0,0.0,0.0,0.0,0.0,0.0,0.0,0.0,0.0,0.0,0.0,0.0,0.0,0.0,0.0,0.0,-7.2811,-7.4265,0.0,0.0,0.0,0.0,0.0,0.0,0.0,0.0,-7.5592,0.0,0.0,0.0,0.0,0.0,0.0,0.0,0.0,0.0,0.0,0.0,0.0,0.0,0.0,0.0,0.0,0.0,0.0,0.0,0.0,0.0,0.0,0.0,0.0,0.0,0.0,0.0,0.0,0.0,0.0,0.0,0.0,0.0,0.0,0.0,0.0,0.0,0.0,0.0,0.0,0.0,0.0,0.0,0.0,0.0,0.0,0.0,0.0,0.0,0.0,0.0,0.0,0.0,0.0,0.0,-8.0392,-8.1897,-8.3023,-8.3662,-8.3662,-8.3197,-8.221,-8.1281,-8.0759,0.0,0.0,0.0,0.0,0.0,0.0,0.0,0.0,0.0,0.0,0.0,0.0,0.0,0.0,0.0,0.0,0.0,0.0,0.0,0.0,0.0,0.0,0.0,0.0,0.0,0.0,0.0,0.0,0.0,0.0,0.0,0.0,0.0,0.0,0.0,0.0,0.0,0.0,0.0,0.0,-7.4518,-7.5719,-7.7741,0.0,0.0,0.0,0.0,0.0,0.0,-7.8313,-7.7494,0.0,0.0,0.0,0.0,0.0,0.0,0.0,0.0,0.0,0.0,0.0,0.0,0.0,0.0,0.0,0.0,0.0,0.0,0.0,0.0,0.0,0.0,0.0,0.0,0.0,0.0,0.0,0.0,0.0,0.0,0.0,0.0,0.0,0.0,0.0,0.0,0.0,0.0,0.0,0.0,0.0,0.0,0.0,0.0,0.0,0.0,0.0,0.0,0.0,0.0,0.0,0.0,0.0,0.0,0.0,-8.1038,-8.3462,-8.4591,-8.4533,-8.5636,-8.5113,-8.2849,-8.2384,-8.1978,0.0,0.0,0.0,0.0,0.0,0.0,0.0,0.0,0.0,0.0,0.0,0.0,0.0,0.0,0.0,0.0,0.0,0.0,0.0,0.0,0.0,0.0,0.0,0.0,0.0,0.0,0.0,0.0,0.0,0.0,0.0,0.0,0.0,0.0,0.0,0.0,0.0,0.0,0.0,0.0,0.0,-7.7299,-7.8689,-8.0585,0.0,0.0,0.0,0.0,-8.0978,-8.026,0.0,0.0,0.0,0.0,0.0,0.0,0.0,0.0,0.0,0.0,0.0,0.0,0.0,0.0,0.0,0.0,0.0,0.0,0.0,0.0,0.0,0.0,0.0,0.0,0.0,0.0,0.0,0.0,0.0,0.0,0.0,0.0,0.0,0.0,0.0,0.0,0.0,0.0,0.0,0.0,0.0,0.0,0.0,0.0,0.0,0.0,0.0,0.0,0.0,0.0,0.0,0.0,0.0,0.0,0.0,0.0,-7.8824,-8.3991,-8.6332,-8.5868,-8.6506,-8.6216,-8.4765,-8.3081,-8.2442,0.0,0.0,0.0,0.0,0.0,0.0,0.0,0.0,0.0,0.0,0.0,0.0,0.0,0.0,0.0,0.0,0.0,0.0,0.0,0.0,0.0,0.0,0.0,0.0,0.0,0.0,0.0,0.0,0.0,0.0,0.0,0.0,0.0,0.0,0.0,0.0,0.0,0.0,0.0,0.0,0.0,-8.0143,-8.1534,-8.2987,-8.3935,0.0,0.0,-8.2924,-8.2919,-8.1783,0.0,0.0,0.0,0.0,0.0,0.0,0.0,0.0,0.0,0.0,0.0,0.0,0.0,0.0,0.0,0.0,0.0,0.0,0.0,0.0,0.0,0.0,0.0,0.0,0.0,0.0,0.0,0.0,0.0,0.0,0.0,0.0,0.0,0.0,0.0,0.0,0.0,0.0,0.0,0.0,0.0,0.0,0.0,0.0,0.0,0.0,0.0,0.0,0.0,0.0,0.0,0.0,0.0,0.0,0.0,-7.8578,-7.9466,-8.439,-8.7029,-8.7145,-8.8074,-8.8132,-8.7261,-8.5403,-8.4707,0.0,0.0,0.0,0.0,0.0,0.0,0.0,0.0,0.0,0.0,0.0,0.0,0.0,0.0,0.0,0.0,0.0,0.0,0.0,0.0,0.0,0.0,0.0,0.0,0.0,0.0,0.0,0.0,0.0,0.0,0.0,0.0,0.0,0.0,0.0,0.0,0.0,0.0,0.0,0.0,0.0,0.0,-8.1252,-8.3057,0.0,0.0,0.0,-8.2932,-8.3369,0.0,0.0,0.0,0.0,0.0,0.0,0.0,0.0,0.0,0.0,0.0,0.0,0.0,0.0,0.0,0.0,0.0,0.0,0.0,0.0,0.0,0.0,0.0,0.0,0.0,0.0,0.0,0.0,0.0,0.0,0.0,0.0,0.0,0.0,0.0,0.0,0.0,0.0,0.0,0.0,0.0,0.0,0.0,0.0,0.0,0.0,0.0,0.0,0.0,0.0,0.0,0.0,0.0,0.0,0.0,0.0,0.0,-8.0893,-8.5417,-8.79,-8.8422,-8.9467,-8.9584,-8.8655,-8.7261,0.0,0.0,0.0,0.0,0.0,0.0,0.0,0.0,0.0,0.0,0.0,0.0,0.0,0.0,0.0,0.0,0.0,0.0,0.0,0.0,0.0,0.0,0.0,0.0,0.0,0.0,0.0,-6.5025,0.0,0.0,0.0,0.0,0.0,0.0,0.0,0.0,0.0,0.0,0.0,0.0,0.0,0.0,-8.2262,-8.186,-8.3781,-8.5369,0.0,0.0,-8.3656,-8.4217,-8.3965,-8.3605,0.0,0.0,0.0,0.0,0.0,0.0,0.0,0.0,0.0,0.0,0.0,0.0,0.0,0.0,0.0,0.0,0.0,0.0,0.0,0.0,0.0,0.0,0.0,0.0,0.0,0.0,0.0,0.0,0.0,0.0,0.0,0.0,0.0,0.0,0.0,0.0,0.0,0.0,0.0,0.0,0.0,0.0,0.0,0.0,0.0,0.0,0.0,0.0,0.0,0.0,0.0,0.0,0.0,0.0,-7.9989,-8.2704,-8.7298,-8.9642,-8.97,-9.0396,-8.9874,-8.8074,-8.7842,-8.7842,0.0,0.0,0.0,0.0,0.0,0.0,0.0,0.0,0.0,0.0,0.0,0.0,0.0,0.0,0.0,0.0,0.0,0.0,0.0,0.0,0.0,0.0,0.0,0.0,0.0,0.0,0.0,0.0,0.0,0.0,0.0,0.0,0.0,0.0,0.0,0.0,0.0,0.0,0.0,0.0,0.0,-8.3781,-8.4802,-8.6263,-8.6957,0.0,0.0,-8.6074,-8.6137,-8.5642,-8.5831,-8.7651,0.0,0.0,0.0,0.0,0.0,0.0,0.0,0.0,0.0,0.0,0.0,0.0,0.0,0.0,0.0,0.0,0.0,0.0,0.0,0.0,0.0,0.0,0.0,0.0,0.0,0.0,0.0,0.0,0.0,0.0,0.0,0.0,0.0,0.0,0.0,0.0,0.0,0.0,0.0,0.0,0.0,0.0,0.0,0.0,0.0,0.0,0.0,0.0,0.0,0.0,0.0,0.0,0.0,-7.9429,-8.1277,-8.65,-8.9409,-8.9816,-9.0861,-9.1209,-9.0919,-8.9351,-8.8887,0.0,0.0,0.0,0.0,0.0,0.0,0.0,0.0,0.0,0.0,0.0,0.0,0.0,0.0,0.0,0.0,0.0,0.0,0.0,0.0,0.0,0.0,0.0,0.0,0.0,0.0,0.0,0.0,-6.8276,-6.8973,-6.9728,0.0,0.0,0.0,0.0,0.0,0.0,0.0,0.0,0.0,0.0,-8.4993,-8.5416,-8.7119,0.0,0.0,-8.6463,-8.6504,-8.7518,-8.7163,-8.7261,-8.8787,-8.8612,0.0,0.0,0.0,0.0,0.0,0.0,0.0,0.0,0.0,0.0,0.0,0.0,0.0,0.0,0.0,0.0,0.0,0.0,0.0,0.0,0.0,0.0,0.0,0.0,0.0,0.0,0.0,0.0,0.0,0.0,0.0,0.0,0.0,0.0,0.0,0.0,0.0,0.0,0.0,0.0,0.0,0.0,0.0,0.0,0.0,0.0,0.0,0.0,0.0,0.0,0.0,0.0,-7.9902,-8.2146,-8.6791,-8.9584,-9.0396,-9.1267,-9.1906,-9.208,-9.0571,-9.0164,0.0,0.0,0.0,0.0,0.0,0.0,0.0,0.0,0.0,0.0,0.0,0.0,0.0,0.0,0.0,0.0,0.0,0.0,0.0,0.0,0.0,0.0,0.0,0.0,0.0,0.0,0.0,0.0,-7.0424,-7.1469,-7.2921,0.0,0.0,0.0,0.0,0.0,0.0,0.0,0.0,0.0,0.0,-8.5464,-8.6029,-8.7532,-8.8555,-8.8174,-8.7338,-8.7249,-8.9199,-8.8669,-8.8679,-9.0491,0.0,0.0,0.0,0.0,0.0,0.0,0.0,0.0,0.0,0.0,0.0,0.0,0.0,0.0,0.0,0.0,0.0,0.0,0.0,0.0,0.0,0.0,0.0,0.0,0.0,0.0,0.0,-5.8536,0.0,0.0,-5.9305,0.0,0.0,0.0,0.0,0.0,0.0,0.0,0.0,0.0,0.0,0.0,0.0,0.0,0.0,0.0,0.0,0.0,0.0,0.0,0.0,0.0,0.0,-8.1534,-8.677,-8.8635,-9.0396,-9.1674,-9.179,-9.1558,-9.1035,-9.1383,-9.1732,-9.1732,0.0,0.0,0.0,0.0,0.0,0.0,0.0,0.0,0.0,0.0,0.0,0.0,0.0,0.0,0.0,0.0,0.0,0.0,0.0,0.0,0.0,0.0,0.0,0.0,0.0,0.0,-7.1702,-7.2805,-7.4314,0.0,0.0,0.0,0.0,0.0,0.0,0.0,0.0,0.0,0.0,-8.3288,-8.5413,-8.6605,-8.789,-8.905,-8.9447,-8.896,-8.9321,-9.1238,-9.0554,-9.0421,0.0,0.0,0.0,0.0,0.0,0.0,0.0,0.0,0.0,0.0,0.0,0.0,0.0,0.0,0.0,0.0,0.0,0.0,0.0,0.0,0.0,0.0,0.0,0.0,0.0,0.0,0.0,-6.0941,-6.1758,0.0,0.0,0.0,0.0,0.0,0.0,0.0,0.0,0.0,0.0,0.0,-6.7626,-6.9927,0.0,0.0,0.0,0.0,0.0,0.0,0.0,0.0,0.0,0.0,0.0,0.0,-8.2545,-8.6826,-8.8928,-9.0861,-9.2951,-9.3067,-9.3125,-9.3299,-9.2719,-9.2022,-9.1151,0.0,0.0,0.0,0.0,0.0,0.0,0.0,0.0,0.0,0.0,0.0,0.0,0.0,0.0,0.0,0.0,0.0,0.0,0.0,0.0,0.0,0.0,0.0,0.0,0.0,-7.565,0.0,0.0,0.0,0.0,0.0,0.0,0.0,0.0,0.0,0.0,0.0,-8.1195,-8.4605,-8.6024,-8.7798,-9.0266,-9.1831,-9.2626,0.0,0.0,0.0,0.0,0.0,0.0,0.0,0.0,0.0,0.0,0.0,0.0,0.0,0.0,-9.2847,-9.2594,-9.2784,-9.291,-9.291,0.0,0.0,0.0,0.0,0.0,0.0,0.0,0.0,0.0,0.0,0.0,0.0,0.0,0.0,-6.3971,0.0,-6.4837,0.0,0.0,0.0,0.0,0.0,0.0,0.0,0.0,-6.9454,-7.0176,-7.0031,-7.2029,-7.35,0.0,-7.5001,-7.4788,0.0,0.0,0.0,0.0,0.0,0.0,0.0,0.0,-8.389,-8.743,-8.9158,-9.1209,-9.3241,-9.3764,-9.4054,-9.4286,-9.3473,-9.2545,-9.1499,-9.208,-9.2254,0.0,0.0,0.0,0.0,0.0,0.0,0.0,0.0,0.0,0.0,0.0,0.0,0.0,0.0,0.0,0.0,0.0,0.0,0.0,0.0,0.0,0.0,0.0,-7.832,0.0,0.0,0.0,0.0,0.0,0.0,0.0,0.0,0.0,-8.1455,-8.1514,-8.2619,-8.5208,-8.7095,-8.8886,-9.0435,0.0,0.0,0.0,0.0,0.0,0.0,0.0,-9.6924,-9.8064,-9.8725,-9.8978,-9.8283,-9.7777,-9.7271,-9.6639,0.0,0.0,-9.4301,-9.3985,-9.4048,-9.4301,-9.445,-9.5277,-9.7314,-9.7607,-9.8303,0.0,0.0,0.0,0.0,0.0,0.0,0.0,0.0,-6.7097,-6.7049,0.0,-6.7675,0.0,0.0,0.0,0.0,0.0,0.0,0.0,0.0,-7.2292,-7.2581,-7.2196,-7.3362,-7.5426,-7.8222,-7.7033,-7.8025,-8.0754,-7.9403,0.0,0.0,0.0,0.0,0.0,0.0,-8.5295,-8.8562,-9.0093,-9.1558,-9.2893,-9.4112,-9.446,-9.3938,-9.3764,-9.3415,-9.2835,-9.3299,-9.3067,-9.1906,-9.3532,0.0,0.0,0.0,0.0,0.0,0.0,0.0,0.0,0.0,0.0,0.0,0.0,0.0,0.0,0.0,0.0,0.0,0.0,0.0,0.0,-7.954,0.0,0.0,0.0,0.0,0.0,0.0,0.0,0.0,0.0,0.0,-8.3429,-8.3778,-8.3894,-8.3593,0.0,0.0,0.0,0.0,-9.3561,-9.3179,-9.4213,-9.5808,-9.7641,-9.7038,-9.6799,-9.8695,0.0,0.0,-9.8852,-9.8978,-9.9231,-9.9863,-9.9989,-9.8915,-9.5755,-9.5122,-9.5186,-9.5755,-9.6485,-9.7422,-9.8885,-9.9401,-10.0051,-6.9262,0.0,0.0,0.0,0.0,-6.7675,-6.8107,-6.8781,-6.8925,-6.9117,-6.9358,-6.9647,0.0,0.0,0.0,0.0,0.0,0.0,-7.2244,-7.2388,-7.3062,-7.3543,-7.3783,-7.6826,-7.8745,-7.9746,-8.1945,-8.3598,-8.5002,-8.5204,-8.2959,-7.8535,0.0,0.0,0.0,0.0,-8.6963,-9.0777,-9.217,-9.3706,-9.5389,-9.6667,-9.7247,-9.7015,-9.5273,-9.4228,-9.4054,-9.3357,-9.3009,-9.3125,-9.2777,0.0,0.0,0.0,0.0,0.0,0.0,0.0,0.0,0.0,0.0,0.0,0.0,0.0,0.0,0.0,0.0,0.0,0.0,0.0,-8.4765,-8.4358,-8.4358,0.0,0.0,0.0,0.0,0.0,0.0,0.0,0.0,0.0,-8.5868,-8.5229,-8.5388,0.0,0.0,-9.0587,-9.0907,-9.3383,-9.5423,-9.6387,-9.7189,0.0,0.0,-10.0958,-10.1057,-10.1127,-10.0937,-10.1,-10.1696,-10.1822,-10.2012,-10.2707,-10.2454,-10.1885,-10.1443,-9.9673,-9.8599,-9.8662,-9.8818,-9.9693,-10.1644,-10.2095,-10.282,-7.1667,-7.0705,-6.9791,-6.9358,-6.9358,-6.9358,-6.9743,-7.032,-7.056,-7.0705,-7.0801,-7.0993,-7.109,-7.109,-7.0753,0.0,0.0,0.0,-7.3062,-7.3494,-7.4216,-7.4841,-7.5581,-7.7951,-7.9958,-8.1596,-8.3178,-8.5263,-8.77,-8.7646,-8.6421,-8.3773,0.0,0.0,-8.6582,-8.6708,-8.8464,-9.1917,-9.324,-9.4725,-9.6492,-9.777,-9.8525,-9.8757,-9.7073,-9.5854,-9.5389,-9.4402,-9.4054,-9.4402,-9.3473,-9.3067,0.0,0.0,0.0,0.0,0.0,0.0,0.0,0.0,0.0,0.0,0.0,-8.5868,-8.6565,0.0,0.0,0.0,-8.5636,-8.6448,-8.6913,-8.639,0.0,0.0,0.0,0.0,0.0,0.0,0.0,-8.7319,-8.7029,-8.7029,-8.7668,-8.7261,-8.737,-8.8282,-9.0037,-9.142,-9.1826,0.0,-9.6612,-9.7657,-9.9145,-10.0557,-10.2544,-10.3149,-10.3276,-10.2897,-10.277,-10.2897,-10.3276,-10.3592,-10.3971,-10.435,-10.4287,-10.435,-10.4793,-10.3465,-10.2138,-10.1633,-10.1506,-10.24,-10.4615,-10.486,-10.5321,-7.3831,-7.3687,-7.2244,-7.157,-7.1378,-7.1378,-7.1426,-7.1474,-7.1955,-7.1907,-7.1522,-7.1955,-7.2196,-7.2196,-7.234,0.0,-7.3062,-7.3158,-7.3783,-7.4793,-7.5755,-7.6477,-7.7006,-7.7751,-7.9912,-8.3545,-8.233,-8.4324,-8.9289,-8.8066,-8.8333,-9.0564,-8.9729,-8.8937,-8.8576,-8.8967,-9.0185,-9.2505,-9.3647,-9.5003,-9.6899,-9.8002,-9.8931,-9.9628,-9.8931,-9.8002,-9.6899,-9.6144,-9.5738,-9.5738,-9.5041,-9.4635,-9.4577,0.0,0.0,0.0,0.0,0.0,0.0,0.0,0.0,0.0,0.0,0.0,0.0,0.0,0.0,-8.7261,-8.6158,0.0,-8.7261,-8.6797,0.0,0.0,0.0,-8.8132,-8.8132,-8.7668,-8.7493,-8.8016,0.0,0.0,-8.9003,-8.97,-8.97,-8.8539,-9.0452,-9.18,-9.1214,-9.4394,-9.7153,-9.8288,-10.025,-10.2485,-10.4145,-10.4477,-10.454,-10.4477,-10.435,-10.4477,-10.4603,-10.5046,-10.5425,-10.5678,-10.6057,-10.6436,-10.6436,-10.6436,-10.6057,-10.4793,-10.435,-10.4908,-10.7039,-10.7321,-10.7663,-7.5466,-7.5418,-7.5034,-7.3927,-7.2436,-7.2436,-7.2677,-7.3062,-7.3206,-7.3206,-7.311,-7.3206,-7.3254,-7.335,-7.4504,-7.513,-7.5274,-7.6092,-7.6813,-7.7438,-7.7679,-7.8112,-7.8593,-8.0441,-8.2477,-8.4775,-8.5985,-8.8249,-9.113,-9.0923,-9.1662,-9.3392,-9.2008,-9.1485,-9.2083,-9.0659,-9.1859,-9.617,-9.615,-9.7551,-10.0092,-10.044,-10.0905,-10.1602,-10.0498,-9.9802,-9.9453,-9.7886,-9.7073,-9.7015,-9.5505,-9.4635,-9.4635,-9.5854,0.0,0.0,0.0,0.0,0.0,0.0,0.0,0.0,0.0,-8.9351,-9.0977,0.0,-8.9293,0.0,-8.8887,-8.9235,-9.0513,-9.0048,0.0,0.0,-9.0048,-9.0106,-9.0106,-8.999,-8.9758,-8.9409,-8.9816,-9.0338,-9.0977,-9.208,-9.2661,-9.2312,-9.2923,-9.3395,-9.3782,-9.5754,-9.8149,-10.0486,-10.1933,-10.3672,-10.6557,-10.7195,-10.7195,-10.7195,-10.7195,-10.7384,-10.7953,-10.8143,-10.8459,-10.8964,-10.9154,-10.928,-10.9217,-10.928,-10.9154,-10.8775,-10.7574,-10.694,-10.8942,-10.9523,-11.033,-7.7438,-7.7438,-7.7438,-7.6717,-7.5563,-7.4649,-7.4408,-7.4697,-7.4697,-7.4697,-7.4697,-7.4697,-7.4697,-7.4793,-7.5851,-7.638,-7.6428,-7.7487,-7.8208,-7.8737,-7.8978,-7.9507,-8.0228,-8.1413,-8.3756,-8.662,-8.8013,-9.0205,-9.2971,-9.3236,-9.3718,-9.4896,-9.4349,-9.4796,-9.6009,-9.3524,-9.3958,-9.7731,-9.8528,-9.9731,-10.166,-10.1718,-10.2182,-10.3053,-10.1892,-10.1369,-10.1602,-9.9802,-9.9047,-9.9512,-9.7479,-9.6434,-9.6725,-9.6667,-9.6144,0.0,0.0,0.0,0.0,0.0,0.0,0.0,0.0,0.0,0.0,0.0,-9.0919,-9.1499,-9.0745,-9.0919,-9.2486,-9.2022,-9.179,-9.208,-9.2312,-9.2428,-9.2138,-9.208,-9.1848,-9.1209,-9.1441,-9.1906,-9.2545,-9.3473,-9.446,-9.5215,-9.5726,-9.5734,-9.5577,-9.7188,-9.9361,-10.2106,-10.3199,-10.4793,-10.8439,-10.9689,-11.0039,-11.0039,-11.0039,-11.0228,-11.0544,-11.0418,-11.0355,-11.0671,-11.0481,-11.0292,-11.0292,-11.0292,-11.0292,-11.0165,-10.9659,-10.9651,-11.0944,-11.1272,-11.1761,-7.9555,-7.9555,-7.9555,-7.9555,-7.9411,-7.7583,-7.6669,-7.6428,-7.6428,-7.6428,-7.6428,-7.6477,-7.6573,-7.6669,-7.715,-7.7438,-7.7583,-7.8449,-7.917,-7.9699,-8.018,-8.095,-8.1864,-8.1864,-8.4349,-8.867,-8.867,-9.0803,-9.5027,-9.5081,-9.5353,-9.5895,-9.6479,-9.7817,-9.9878,-9.6972,-9.6511,-9.8441,-10.0713,-10.2182,-10.2647,-10.2705,-10.3285,-10.433,-10.3285,-10.2937,-10.3343,-10.1776,-10.1369,-10.2356,-10.015,-9.9047,-9.957,-9.7479,-9.6434,0.0,-9.6434,0.0,0.0,0.0,0.0,0.0,0.0,0.0,0.0,-9.1499,-9.2661,-9.3938,-9.2486,-9.2196,-9.3764,-9.3473,-9.3415,-9.388,-9.4402,-9.4519,-9.4054,-9.4054,-9.3822,-9.3357,-9.3415,-9.3706,-9.4402,-9.4925,-9.6086,-9.7596,-9.8408,-9.8543,-9.7538,-9.8583,-10.0563,-10.3412,-10.4825,-10.7153,-11.0078,-11.1786,-11.2567,-11.2567,-11.2567,-11.263,-11.263,-11.2124,-11.1745,-11.1745,-11.1366,-11.0987,-11.086,-11.0924,-11.0924,-11.105,-11.1366,-11.1893,-11.2738,-11.279,-11.2997,-8.1719,-8.1719,-8.1719,-8.1719,-8.1719,-8.1286,-8.0132,-7.8593,-7.8593,-7.8593,-7.8593,-7.9026,-7.9459,-7.994,-8.0421,-8.0902,-8.1286,-8.1479,-8.1864,-8.2393,-8.2489,-8.2874,-8.3451,-8.3451,-8.5828,-8.9798,-8.9849,-9.2385,-9.6872,-9.6872,-9.7198,-9.7795,-9.7907,-9.8839,-10.0539,0.0,0.0,0.0,-10.3771,-10.4969,-10.4621,-10.5085,-10.5491,-10.5724,-10.4969,0.0,-10.4737,-10.3924,-10.3576,-10.375,-10.1834,0.0,0.0,0.0,0.0,0.0,0.0,0.0,0.0,0.0,0.0,0.0,-9.5738,-9.5041,-9.3822,-9.3938,-9.4577,-9.5796,-9.5622,-9.5389,-9.5273,-9.5564,-9.5622,-9.5273,-9.5389,-9.5564,-9.5912,-9.597,-9.6086,-9.6551,-9.7015,-9.7538,-9.8118,-9.8873,-9.9395,-9.9802,-10.0847,-10.1195,-10.0498,-10.0731,-10.1965,-10.4716,-10.7859,-11.119,-11.3293,-11.3721,-11.3903,-11.4084,-11.4084,-11.4084,-11.4147,-11.4021,-11.3894,-11.3894,-11.3768,-11.3641,-11.3641,-11.3705,-11.3641,-11.3705,-11.3768,-11.3874,-11.3593,-11.4518,-11.5886,-8.3932,0.0,-8.3932,-8.3932,0.0,-8.3595,-8.2874,-8.1864,-8.1046,-8.0709,-8.0757,-8.1046,-8.1286,-8.1575,-8.2104,-8.2489,-8.2729,-8.3258,-8.3643,-8.3884,-8.4172,-8.4605,-8.5086,-8.5086,-8.722,-9.1387,-9.1387,-9.3521,-9.7573,-9.7523,-9.7907,-9.9167,-9.8839,-9.9823,-10.2168,-10.3239,-10.3628,-10.3334,-10.4936,-10.5491,-10.5143,-10.5433,-10.5898,-10.6478,-10.5608,0.0,0.0,0.0,0.0,0.0,0.0,0.0,0.0,0.0,0.0,-10.0382,-10.0092,-9.9744,-9.9453,-9.9105,-9.8641,-9.8002,-9.7944,-9.7247,-9.568,-9.5564,-9.6086,-9.7305,-9.7421,-9.7479,-9.7479,-9.777,-9.7828,-9.7538,-9.777,-9.8002,-9.8002,-9.8234,-9.8408,-9.8408,-9.8699,-9.9163,-9.9802,-10.044,-10.1079,-10.1718,-10.2589,-10.3227,-10.3169,-10.2937,-10.3574,-10.561,-10.8563,-11.1121,-11.2337,-11.3741,-11.4617,-11.5117,-11.5678,-11.617,-11.6486,-11.6233,-11.6043,-11.598,-11.5727,-11.5474,-11.5537,-11.5537,-11.5474,-11.5474,-11.5586,-11.6,-11.6153,-11.6214,-11.66,-8.5663,-8.5663,-8.5567,-8.5519,-8.5519,-8.5038,-8.4846,-8.4749,0.0,0.0,0.0,-8.2681,-8.2826,-8.2922,-8.3451,-8.3739,-8.3884,-8.4749,-8.5134,-8.5134,-8.5615,-8.6048,-8.6433,-8.6433,-8.8547,-9.2202,-9.2435,-9.4567,-9.7784,-9.7573,-9.8236,-9.9497,-9.9602,-10.0795,-10.3761,-10.5329,-10.6014,-10.5491,-10.555,-10.5666,-10.5608,-10.5666,-10.613,-10.7175,-10.6072,-10.5956,-10.6943,-10.6014,-10.5956,-10.6943,-10.5898,-10.555,-10.5956,-10.3866,-10.2356,-10.1834,-10.0731,-10.0092,-10.0092,-10.0092,-10.0092,-10.0092,-10.0092,-9.9279,-9.7479,-9.7363,-9.7828,-9.8989,-9.9163,-9.9453,-9.986,-10.0034,-10.0034,-10.0092,-10.0557,-10.0673,-10.0324,-10.0731,-10.0905,-10.0382,-10.0382,-10.044,-10.1079,-10.1602,-10.2182,-10.3285,-10.3982,-10.4563,-10.5085,-10.4795,-10.5,-10.655,-10.8426,-10.975,-11.0717,-11.267,-11.4472,-11.5539,-11.6559,-11.7623,-11.8002,-11.7876,-11.7623,-11.737,-11.7118,-11.6928,-11.6865,-11.6928,-11.6865,-11.6865,-11.6973,-11.7573,-11.8649,-11.8082,-11.7876,-8.6192,-8.6192,-8.5711,-8.5519,-8.5519,-8.5423,-8.5423,-8.5327,-8.4172,-8.3691,-8.3739,-8.4172,-8.4605,-8.5086,-8.5615,-8.6096,-8.6529,-8.6721,-8.677,0.0,-8.6866,-8.6914,-8.701,-8.701,-8.8171,-9.0321,-9.1968,-9.3825,-9.5933,-9.7507,-9.8229,-9.8781,-9.9992,-10.1967,-10.5018,-10.6195,-10.6827,-10.6769,-10.7291,-10.7582,-10.7582,-10.7582,-10.764,-10.7814,-10.7117,-10.6827,-10.7001,-10.6827,-10.6827,-10.7001,-10.6362,-10.6014,-10.6014,-10.4737,-10.3866,-10.375,-10.3053,-10.2647,-10.2647,-10.2647,-10.2647,-10.2647,-10.2647,-10.2066,-10.0789,-10.0615,-10.0963,-10.166,-10.2124,-10.2298,-10.2008,-10.2298,-10.2589,-10.2647,-10.2705,-10.2937,-10.3285,-10.3459,-10.3459,-10.3285,-10.3518,-10.3459,-10.3459,-10.3692,-10.404,-10.4679,-10.4969,-10.5259,-10.5782,-10.5898,-10.6461,-10.7927,-10.8808,-10.9977,-11.1082,-11.2878,-11.4224,-11.4416,-11.5806,-11.7054,-11.7307,-11.7623,-11.7813,-11.7623,-11.8066,-11.8318,-11.8318,-11.8318,-11.8318,-11.8318,-11.8316,-11.8752,-11.9929,-12.0322,-12.1129,-8.6721,-8.6721,-8.6481,-8.6385,-8.6385,-8.6096,-8.5808,-8.5519,-8.499,-8.4798,-8.4798,-8.5038,-8.5279,-8.5519,-8.5808,-8.6048,-8.6289,-8.6529,-8.6818,-8.7106,-8.7395,-8.7683,-8.7924,-8.7683,-8.8949,-9.1719,-9.3018,-9.5224,-9.7852,-9.9081,-9.981,-10.032,-10.1471,-10.2711,-10.3422,-10.5811,-10.7059,-10.7059,-10.7291,-10.7465,-10.7465,-10.7465,-10.7465,-10.7465,-10.7175,-10.7059,-10.7059,-10.7059,-10.7059,-10.7059,-10.6769,-10.6595,-10.6595,-10.5724,-10.5201,-10.5201,-10.4621,-10.4214,-10.4214,-10.4214,-10.4272,-10.4214,-10.4272,-10.4156,-10.3924,-10.3227,-10.3111,-10.375,-10.4098,-10.4156,-10.3866,-10.4098,-10.4214,-10.4272,-10.4272,-10.4214,-10.4214,-10.4505,-10.4563,-10.433,-10.4795,-10.5085,-10.4737,-10.5317,-10.5666,-10.5724,-10.5898,-10.6246,-10.6537,-10.6595,-10.6804,-10.7635,-10.787,-10.8754,-11.0112,-11.2166,-11.36,-11.4777,-11.6863,-11.8257,-11.8698,-11.9077,-11.9203,-11.9267,-11.9519,-11.9709,-11.9709,-11.9772,-11.9772,-11.9709,-11.9958,-12.0454,-12.1569,-12.3145,-12.401,-8.6914,-8.6914,-8.6818,-8.677,-8.6721,-8.6289,-8.5904,-8.5567,-8.5519,-8.5519,-8.5519,-8.5519,-8.5615,-8.5711,-8.5711,-8.576,-8.5904,-8.6289,-8.6721,-8.7154,-8.778,-8.8309,-8.8645,-8.8453,-8.9975,-9.2375,-9.3681,-9.5902,-9.8334,-9.9675,-10.0914,-10.2144,-10.3049,-10.3352,-10.3422,-10.6099,-10.7465,-10.7465,-10.7465,-10.7465,-10.7465,-10.7465,-10.7465,-10.7465,-10.7465,-10.7465,-10.7465,-10.7465,-10.7465,-10.7465,-10.7465,-10.7465,-10.7465,-10.7001,-10.6711,-10.6711,-10.6304,-10.5956,-10.5782,-10.5782,-10.5724,-10.555,-10.555,-10.5782,-10.613,-10.5433,-10.5027,-10.5491,-10.555,-10.555,-10.555,-10.555,-10.555,-10.555,-10.555,-10.5375,-10.4969,-10.5259,-10.5317,-10.4853,-10.5491,-10.584,-10.5666,-10.6188,-10.6595,-10.642,-10.6711,-10.7059,-10.7175,-10.7233,-10.7291,-10.7407,-10.7349,-10.7909,-10.8898,-11.0971,-11.285,-11.4562,-11.6614,-11.7798,-11.8816,-11.9577,-12.0213,-12.0087,-12.0531,-12.0531,-12.0657,-12.0657,-12.0594,-12.0531,-12.072,-12.1343,-12.302,-12.4593,-12.5802,-8.6385,-8.6337,-8.5904,-8.5663,-8.576,-8.5663,-8.5615,-8.5567,-8.5567,-8.5519,-8.5615,-8.5519,-8.5808,-8.6192,-8.6192,-8.6433,-8.6866,-8.701,-8.7058,-8.7251,-8.8164,-8.8645,-8.8742,-8.9559,-8.9761,-8.9878,-9.2691,-9.4185,-9.4113,-9.7091,-10.0211,-10.2968,-10.3622,-10.5215,-10.7753,-10.8471,-10.8801,-10.8801,-10.8801,-10.8801,-10.8801,-10.8801,-10.8801,-10.8801,-10.8801,-10.8801,-10.8685,-10.8801,-10.8801,-10.8801,-10.8743,-10.8743,-10.8743,-10.8685,-10.8685,-10.8627,-10.8627,-10.8394,-10.7756,-10.7698,-10.7407,-10.6943,-10.6827,-10.6885,-10.6943,-10.6827,-10.6769,-10.6827,-10.6827,-10.6769,-10.6827,-10.6769,-10.6653,-10.6653,-10.6653,-10.6827,-10.6653,-10.6827,-10.6595,-10.5956,-10.5956,-10.6072,-10.5956,-10.6188,-10.6478,-10.6885,-10.6943,-10.7233,-10.7698,-10.7698,-10.793,-10.8394,-10.8278,-10.822,-10.8956,-11.0343,-11.1535,-11.198,-11.3151,-11.522,-11.6647,-11.7605,-11.7916,-11.9582,-12.0215,-12.0467,-12.0531,-12.072,-12.0594,-12.0404,-12.0721,-12.1227,-12.303,-12.4415,-12.528,-8.5856,-8.5856,-8.5952,-8.6192,-8.6433,-8.6481,-8.6481,-8.6481,-8.6481,-8.6481,-8.6481,-8.6481,-8.6241,-8.5856,-8.5856,-8.6144,-8.6625,-8.6625,-8.701,-8.7587,-8.802,-8.8405,-8.8694,-8.8742,-8.9236,-9.0368,-9.2319,-9.3625,-9.5007,-9.7674,-10.0714,-10.3254,-10.3808,-10.5236,-10.7323,-10.8587,-10.9149,-10.9556,-11.0252,-11.0659,-11.0543,-10.9556,-10.8975,-10.8975,-10.8975,-10.8975,-10.8975,-10.8975,-10.8975,-10.8975,-10.8975,-10.8975,-10.8975,-10.8975,-10.8975,-10.8975,-10.8975,-10.8859,-10.8569,-10.8569,-10.8452,-10.8162,-10.8162,-10.8162,-10.8162,-10.8162,-10.8162,-10.8104,-10.7465,-10.7059,-10.7001,-10.6711,-10.6595,-10.6827,-10.6362,-10.6188,-10.6943,-10.6362,-10.5898,-10.6014,-10.6072,-10.613,-10.613,-10.642,-10.6885,-10.7407,-10.7291,-10.7349,-10.7872,-10.7698,-10.7698,-10.8162,-10.8104,-10.8278,-10.9014,-11.0049,-11.0824,-11.1476,-11.2767,-11.4379,-11.5689,-11.6338,-11.7231,-11.8698,-11.9456,-11.9646,-11.9393,-11.9456,-11.9456,-11.9772,-12.0768,-12.144,-12.2167,-12.3593,-12.4705,-8.5952,-8.6048,-8.6385,-8.677,-8.7106,-8.7106,-8.7106,-8.7106,-8.7106,-8.7106,-8.7106,-8.7106,-8.6673,-8.6048,-8.5952,-8.6192,-8.6529,-8.6529,-8.6914,-8.7683,-8.7972,-8.8309,-8.8645,-8.8645,-8.9435,-9.1055,-9.2334,-9.4201,-9.679,-9.8673,-10.1084,-10.4027,-10.4759,-10.5753,-10.7509,-10.9008,-10.9962,-11.0484,-11.153,-11.211,-11.1878,-11.0717,-11.002,-11.002,-11.002,-11.002,-11.002,-11.002,-10.9904,-10.9788,-10.9788,-10.9672,-10.9497,-10.9672,-10.9846,-10.9962,-10.9846,-10.9672,-10.9497,-10.9323,-10.9149,-10.9033,-10.8975,-10.8975,-10.8975,-10.8975,-10.8975,-10.8859,-10.793,-10.7349,-10.7524,-10.7175,-10.7059,-10.7233,-10.642,-10.6362,-10.7117,-10.642,-10.6188,-10.6537,-10.6711,-10.6595,-10.6653,-10.7001,-10.7524,-10.8046,-10.7872,-10.7814,-10.8278,-10.822,-10.8162,-10.8627,-10.8685,-10.8627,-10.8917,-10.9535,-11.0408,-11.103,-11.21,-11.3188,-11.5068,-11.5527,-11.6576,-11.8173,-11.8697,-11.9267,-11.9709,-11.9456,-11.9203,-11.958,-12.0633,-12.1973,-12.2412,-12.3747,-12.4546,-8.7058,-8.701,-8.7058,-8.7106,-8.7154,-8.7154,-8.7154,-8.7251,-8.7154,-8.7154,-8.7202,-8.7154,-8.7106,-8.7058,-8.7058,-8.7058,-8.7058,-8.7058,-8.7154,-8.7395,-8.8213,-8.8645,-8.8742,-8.9656,-9.0136,-9.0591,-9.253,-9.5548,-9.8988,-9.9043,-10.1334,-10.5991,-10.6159,-10.7611,-11.0107,-11.1123,-11.1646,-11.1704,-11.2342,-11.2749,-11.2749,-11.2633,-11.2517,-11.2517,-11.2575,-11.24,-11.2458,-11.2575,-11.2284,-11.1704,-11.1588,-11.1355,-11.0891,-11.1297,-11.1878,-11.2342,-11.1936,-11.1413,-11.0833,-11.031,-10.9788,-10.9207,-10.9323,-10.9091,-10.9323,-10.9381,-10.9323,-10.9033,-10.8627,-10.8394,-10.8743,-10.8394,-10.8162,-10.7814,-10.7756,-10.764,-10.7814,-10.7465,-10.7814,-10.7698,-10.7582,-10.7582,-10.7756,-10.793,-10.822,-10.8685,-10.8859,-10.9033,-10.9439,-10.9614,-10.9788,-11.002,-10.9962,-10.9614,-10.9149,-10.9285,-10.9519,-11.0024,-11.0508,-11.1131,-11.2932,-11.4693,-11.621,-11.7813,-11.8867,-11.9703,-12.0339,-12.0531,-12.0404,-12.0911,-12.1906,-12.3008,-12.2995,-12.4994,-12.567,-8.6818,-8.7106,-8.7106,-8.7491,-8.8116,-8.8116,-8.8116,-8.8116,-8.8116,-8.8116,-8.8116,-8.8116,-8.8116,-8.8116,-8.8116,-8.7924,-8.7635,-8.7587,-8.778,-8.8116,-8.8501,-8.8694,-8.8742,-8.9415,-8.9944,-9.0533,-9.152,-9.4418,-9.8115,-9.815,-10.0808,-10.5371,-10.6327,-10.7782,-11.0339,-11.1065,-11.1588,-11.24,-11.3039,-11.3387,-11.3387,-11.3794,-11.4026,-11.3968,-11.3213,-11.2749,-11.2749,-11.2749,-11.2633,-11.2458,-11.24,-11.2342,-11.2168,-11.2284,-11.2517,-11.2691,-11.2517,-11.2342,-11.211,-11.1878,-11.1646,-11.1471,-11.1413,-11.1297,-11.1413,-11.1413,-11.1239,-11.0833,-11.0601,-11.0426,-10.973,-10.8394,-10.7233,-10.7291,-10.6711,-10.6653,-10.7001,-10.6711,-10.6304,-10.6711,-10.7059,-10.7524,-10.7988,-10.8336,-10.8859,-10.9381,-10.9265,-10.9323,-10.9672,-10.9614,-10.9556,-10.9614,-10.9497,-10.9265,-10.9091,-10.8975,-10.9091,-10.9207,-10.9752,-11.0684,-11.2365,-11.3142,-11.4538,-11.6516,-11.8047,-11.9296,-11.9554,-12.0588,-12.0781,-12.1292,-12.2547,-12.359,-12.3578,-12.5322,-12.5868,-8.7154,-8.7587,-8.7635,-8.8116,-8.8886,-8.8934,-8.903,-8.9175,-8.9175,-8.9175,-8.9175,-8.9175,-8.9175,-8.9175,-8.9175,-8.903,-8.8645,-8.8357,-8.8357,-8.8645,-8.8694,-8.879,-8.8982,-8.9319,-8.9848,-9.0521,-9.105,-9.3765,-9.809,-9.8476,-10.1524,-10.6889,-10.728,-10.8396,-11.0615,-11.1065,-11.1646,-11.2458,-11.3097,-11.3387,-11.3445,-11.3852,-11.4084,-11.4026,-11.3387,-11.3213,-11.3387,-11.3387,-11.3271,-11.3097,-11.3097,-11.3097,-11.3097,-11.3097,-11.3155,-11.3329,-11.3155,-11.3097,-11.3039,-11.2865,-11.2749,-11.2749,-11.2749,-11.2749,-11.2749,-11.2749,-11.2458,-11.1994,-11.1588,-11.1239,-11.031,-10.8452,-10.7291,-10.7756,-10.7175,-10.6943,-10.7524,-10.6943,-10.6653,-10.6827,-10.7175,-10.764,-10.822,-10.8859,-10.9497,-11.0136,-10.9846,-10.9846,-11.002,-10.9904,-10.9614,-10.9614,-10.973,-10.9788,-10.9846,-11.002,-10.9904,-10.9962,-10.9904,-11.0822,-11.1697,-11.2357,-11.344,-11.5174,-11.6595,-11.7877,-11.9077,-12.0321,-12.0903,-12.1289,-12.2681,-12.4161,-12.4511,-12.5388,-12.5826,-8.8164,-8.8549,-8.8645,-8.8886,-8.9367,-8.9463,-8.9752,-9.0088,-9.0185,-9.0088,-9.004,-9.0185,-9.0088,-9.0185,-9.0088,-9.0185,-8.9896,-8.9126,-8.879,-8.8838,-8.8838,-8.9078,-8.9463,-8.9607,-9.0136,-9.105,-9.1579,-9.4461,-9.9237,-9.9362,-10.2392,-10.7621,-10.8516,-10.9239,-11.0891,-11.1471,-11.182,-11.211,-11.2633,-11.2865,-11.2807,-11.2981,-11.3097,-11.3097,-11.3387,-11.3852,-11.4549,-11.4607,-11.4258,-11.3794,-11.3736,-11.3736,-11.3736,-11.3736,-11.3968,-11.4374,-11.4026,-11.3736,-11.3678,-11.3213,-11.2981,-11.2981,-11.2865,-11.2981,-11.3039,-11.2923,-11.2633,-11.211,-11.1413,-11.0775,-11.0252,-10.9439,-10.9033,-10.973,-10.9265,-10.9091,-10.8917,-10.8917,-10.8743,-10.822,-10.822,-10.8336,-10.8975,-10.9556,-11.0136,-11.0543,-11.0659,-11.0601,-11.0717,-11.0601,-11.0775,-11.0775,-11.0543,-11.0368,-11.0833,-11.1297,-11.1123,-11.1007,-11.0891,-11.1325,-11.2009,-11.2736,-11.3383,-11.4809,-11.5927,-11.7179,-11.8817,-11.9822,-12.1002,-12.1722,-12.3196,-12.4431,-12.5097,-12.5687,-12.6354,-8.7972,-8.8164,-8.8549,-8.8982,-8.9511,-8.9848,-9.0136,-9.0281,-9.0281,-9.0281,-9.0281,-9.0281,-9.0281,-9.0281,-9.0281,-9.0281,-9.0233,-8.9896,-8.9752,-8.9752,-8.9752,-8.98,-9.004,-9.0377,-9.0906,-9.1531,-9.1772,-9.3399,-9.6165,-9.7794,-10.1024,-10.5007,-10.7226,-10.908,-11.131,-11.1704,-11.1994,-11.2517,-11.3097,-11.3387,-11.3445,-11.3387,-11.362,-11.3968,-11.3445,-11.3387,-11.3968,-11.4432,-11.4607,-11.4374,-11.4374,-11.4432,-11.4374,-11.4374,-11.449,-11.4665,-11.4549,-11.4374,-11.4374,-11.4258,-11.4084,-11.4084,-11.4084,-11.4084,-11.4026,-11.3678,-11.3387,-11.2981,-11.2168,-11.153,-11.1646,-11.0891,-11.0136,-10.9323,-10.9265,-10.9323,-10.9207,-10.9381,-10.973,-10.9962,-10.9962,-11.0252,-11.0659,-11.0891,-11.0717,-11.0891,-11.0949,-11.0891,-11.0891,-11.0891,-11.0891,-11.0891,-11.0891,-11.0891,-11.1007,-11.1239,-11.1239,-11.1297,-11.1297,-11.1471,-11.2272,-11.2841,-11.3338,-11.4227,-11.5368,-11.6708,-11.8323,-11.9413,-12.0552,-12.1565,-12.2557,-12.3832,-12.5142,-12.6161,-12.708,-8.8116,-8.8501,-8.8838,-8.9415,-9.004,-9.0425,-9.0666,-9.081,-9.0858,-9.0858,-9.0858,-9.0858,-9.0858,-9.0858,-9.0858,-9.0858,-9.0858,-9.0858,-9.0858,-9.0762,-9.0377,-9.0377,-9.0617,-9.1098,-9.1483,-9.1772,-9.1868,-9.3145,-9.5766,-9.7752,-10.0969,-10.4684,-10.7445,-10.954,-11.1447,-11.1948,-11.24,-11.2807,-11.3155,-11.3387,-11.3387,-11.3387,-11.3562,-11.3852,-11.362,-11.3736,-11.4142,-11.4955,-11.5071,-11.4607,-11.4781,-11.5013,-11.5071,-11.5245,-11.5419,-11.5419,-11.5419,-11.5419,-11.5419,-11.5419,-11.5419,-11.5419,-11.5419,-11.5419,-11.5303,-11.4781,-11.4374,-11.3968,-11.3155,-11.2575,-11.2575,-11.211,-11.1123,-11.0194,-11.0136,-10.9904,-10.9788,-10.9788,-11.002,-11.0368,-11.0833,-11.1355,-11.1588,-11.182,-11.153,-11.1588,-11.1355,-11.1239,-11.1181,-11.1007,-11.0949,-11.0891,-11.0891,-11.0891,-11.0891,-11.1065,-11.1297,-11.1413,-11.153,-11.1878,-11.2563,-11.2679,-11.2957,-11.404,-11.5152,-11.6475,-11.7974,-11.8757,-11.9861,-12.0862,-12.1888,-12.3707,-12.5416,-12.7176,-12.8026,-8.8597,-8.9415,-8.9559,-9.0136,-9.0906,-9.105,-9.1339,-9.1724,-9.1772,-9.1724,-9.1772,-9.1676,-9.1724,-9.1772,-9.1676,-9.1676,-9.182,-9.1724,-9.1676,-9.1435,-9.0954,-9.0714,-9.1147,-9.1531,-9.1772,-9.182,-9.1916,-9.3595,-9.6368,-9.8707,-10.2138,-10.5432,-10.857,-11.0903,-11.1295,-11.2305,-11.2691,-11.2749,-11.2865,-11.2981,-11.3039,-11.3039,-11.3155,-11.3329,-11.4142,-11.4549,-11.4723,-11.5536,-11.5536,-11.4316,-11.5187,-11.5652,-11.5768,-11.629,-11.6464,-11.6464,-11.6581,-11.6523,-11.6581,-11.6406,-11.6406,-11.6406,-11.6406,-11.6639,-11.6348,-11.5652,-11.5071,-11.4723,-11.391,-11.3387,-11.3097,-11.2691,-11.2342,-11.1936,-11.153,-11.1297,-11.0949,-11.0484,-11.0717,-11.0659,-11.1239,-11.1936,-11.211,-11.2458,-11.2575,-11.2517,-11.2168,-11.1936,-11.182,-11.1588,-11.1123,-11.1123,-11.1355,-11.1413,-11.1588,-11.1704,-11.1878,-11.1878,-11.1936,-11.211,-11.24,-11.2458,-11.2633,-11.3715,-11.4684,-11.6138,-11.6793,-11.73,-11.8458,-11.9738,-12.139,-12.3697,-12.555,-12.7438,-12.8489,-8.9223,-8.9559,-9.0329,-9.081,-9.1098,-9.1435,-9.1724,-9.182,-9.1868,-9.1916,-9.1868,-9.1868,-9.1916,-9.1868,-9.1868,-9.1868,-9.1916,-9.1916,-9.1868,-9.182,-9.1579,-9.1483,-9.1628,-9.1772,-9.1868,-9.1916,-9.2253,-9.2961,-9.4133,-9.7975,-10.1153,-10.3874,-10.7693,-11.0564,-11.2082,-11.2585,-11.2749,-11.2865,-11.3271,-11.3736,-11.4084,-11.4142,-11.4665,-11.5477,-11.5013,-11.4781,-11.4723,-11.5013,-11.5536,-11.5884,-11.6116,-11.6348,-11.6348,-11.6581,-11.6755,-11.6755,-11.6697,-11.6639,-11.6639,-11.6639,-11.6639,-11.6639,-11.6697,-11.6639,-11.6581,-11.5594,-11.5187,-11.4955,-11.4026,-11.3562,-11.4258,-11.362,-11.2807,-11.2517,-11.2284,-11.1936,-11.1762,-11.2284,-11.2691,-11.2749,-11.2981,-11.3097,-11.3155,-11.2981,-11.2923,-11.2865,-11.2691,-11.2517,-11.2458,-11.2284,-11.1936,-11.2168,-11.2342,-11.2342,-11.24,-11.2458,-11.2517,-11.2458,-11.2458,-11.2342,-11.2458,-11.2458,-11.2633,-11.3203,-11.3948,-11.5022,-11.4391,-11.4143,-11.6058,-11.8518,-12.058,-12.2794,-12.5293,-12.7242,-12.8445,-8.9848,-9.0521,-9.1147,-9.1628,-9.206,-9.2397,-9.2541,-9.2493,-9.2493,-9.2493,-9.2493,-9.2493,-9.2493,-9.2493,-9.2493,-9.2541,-9.2493,-9.2493,-9.2541,-9.2493,-9.2541,-9.2253,-9.2012,-9.2012,-9.2205,-9.2253,-9.2734,-9.307,-9.4091,-9.7623,-10.0542,-10.2729,-10.6943,-11.0099,-11.176,-11.2665,-11.3114,-11.3678,-11.3968,-11.4374,-11.4665,-11.4723,-11.5013,-11.5652,-11.5245,-11.5245,-11.5826,-11.6174,-11.6406,-11.6406,-11.6639,-11.7045,-11.7045,-11.7277,-11.7393,-11.7393,-11.7393,-11.7335,-11.7045,-11.7045,-11.6871,-11.6755,-11.6813,-11.6987,-11.6871,-11.6058,-11.571,-11.5826,-11.449,-11.4316,-11.4723,-11.42,-11.3678,-11.362,-11.3445,-11.3039,-11.2342,-11.2807,-11.3387,-11.3678,-11.3968,-11.4142,-11.4142,-11.3794,-11.362,-11.3562,-11.3387,-11.3271,-11.3155,-11.2981,-11.2865,-11.2923,-11.2923,-11.2807,-11.2749,-11.2807,-11.2923,-11.2923,-11.3097,-11.2923,-11.2807,-11.2807,-11.3039,-11.3271,-11.3445,-11.3562,-11.3445,-11.3668,-11.5125,-11.742,-11.9699,-12.2202,-12.4792,-12.7766,-12.8907,-9.0569,-9.1916,-9.2012,-9.2541,-9.3311,-9.3407,-9.3311,-9.3407,-9.3311,-9.3311,-9.3311,-9.3359,-9.3263,-9.3407,-9.3215,-9.3359,-9.3359,-9.3263,-9.3311,-9.3263,-9.3215,-9.2878,-9.2301,-9.2541,-9.2686,-9.2782,-9.3263,-9.3696,-9.4982,-9.8226,-10.0561,-10.2774,-10.6912,-10.9705,-11.1639,-11.2444,-11.3474,-11.4323,-11.4549,-11.4723,-11.4897,-11.4897,-11.5071,-11.5361,-11.5477,-11.6174,-11.7103,-11.7684,-11.7451,-11.6,-11.7045,-11.7626,-11.7742,-11.8206,-11.838,-11.838,-11.8264,-11.809,-11.7684,-11.751,-11.7277,-11.6813,-11.7103,-11.751,-11.7219,-11.6697,-11.6406,-11.6464,-11.5536,-11.5071,-11.4897,-11.4897,-11.4839,-11.4723,-11.5071,-11.4665,-11.3503,-11.3039,-11.3271,-11.3736,-11.4374,-11.4665,-11.4723,-11.4723,-11.4665,-11.4142,-11.4026,-11.391,-11.3794,-11.362,-11.3445,-11.3329,-11.3271,-11.3097,-11.3097,-11.3097,-11.3213,-11.3329,-11.3678,-11.3678,-11.3503,-11.3503,-11.3678,-11.391,-11.4026,-11.42,-11.4316,-11.4881,-11.5386,-11.7189,-11.9898,-12.2339,-12.4779,-12.8199,-13.0255,-9.1772,-9.2493,-9.2926,-9.3215,-9.3407,-9.3407,-9.3455,-9.3455,-9.3455,-9.3503,-9.3455,-9.3455,-9.3455,-9.3455,-9.3503,-9.3407,-9.3503,-9.3503,-9.3407,-9.3407,-9.3407,-9.3359,-9.3119,-9.3263,-9.3263,-9.3407,-9.3792,-9.4081,-9.5274,-9.8421,-10.1426,-10.3232,-10.7262,-11.1169,-11.2328,-11.3303,-11.4271,-11.4723,-11.4723,-11.4955,-11.5245,-11.5303,-11.5536,-11.5942,-11.5768,-11.629,-11.7219,-11.7219,-11.7277,-11.78,-11.809,-11.8206,-11.8264,-11.838,-11.8496,-11.8496,-11.8438,-11.8206,-11.7742,-11.751,-11.7277,-11.6697,-11.6697,-11.6813,-11.6813,-11.6697,-11.6581,-11.6581,-11.6348,-11.5826,-11.5536,-11.6406,-11.6116,-11.5419,-11.5419,-11.5419,-11.4607,-11.4665,-11.4665,-11.4549,-11.4549,-11.4723,-11.4723,-11.4723,-11.4723,-11.4665,-11.4607,-11.449,-11.4374,-11.42,-11.4084,-11.3852,-11.3852,-11.3794,-11.3794,-11.3794,-11.3794,-11.3794,-11.4084,-11.4316,-11.4084,-11.4084,-11.42,-11.4374,-11.4549,-11.4723,-11.4723,-11.489,-11.5056,-11.7742,-12.0239,-12.2712,-12.5297,-12.8721,-13.0851,-9.2686,-9.3407,-9.3696,-9.3936,-9.4129,-9.4177,-9.4177,-9.4177,-9.4177,-9.4177,-9.4177,-9.4177,-9.4177,-9.4177,-9.4177,-9.4177,-9.4177,-9.4177,-9.4177,-9.4177,-9.4177,-9.4177,-9.4177,-9.4129,-9.4081,-9.3936,-9.4321,-9.4562,-9.5711,-9.8105,-10.1023,-10.2983,-10.7262,-11.0176,-11.2558,-11.3532,-11.3986,-11.4723,-11.4723,-11.4897,-11.5129,-11.5187,-11.5477,-11.6116,-11.6116,-11.6581,-11.7451,-11.7626,-11.7858,-11.8322,-11.8496,-11.8496,-11.8496,-11.8496,-11.8496,-11.8496,-11.8206,-11.7974,-11.7626,-11.6987,-11.6464,-11.6174,-11.6116,-11.6116,-11.6116,-11.6116,-11.6348,-11.6464,-11.6348,-11.6058,-11.6116,-11.6929,-11.6813,-11.6581,-11.6581,-11.6639,-11.6116,-11.5594,-11.5071,-11.4781,-11.4665,-11.4723,-11.4723,-11.4723,-11.4723,-11.4665,-11.4665,-11.4607,-11.4607,-11.449,-11.4549,-11.449,-11.4549,-11.4549,-11.4549,-11.4549,-11.449,-11.4432,-11.449,-11.4549,-11.449,-11.4549,-11.4665,-11.4723,-11.4723,-11.4723,-11.4723,-11.4948,-11.5338,-11.7209,-11.9668,-12.2712,-12.5492,-12.8284,-13.0132,-9.3455,-9.4321,-9.4321,-9.461,-9.4946,-9.4946,-9.4946,-9.4946,-9.4994,-9.485,-9.4994,-9.4994,-9.485,-9.4946,-9.4898,-9.4994,-9.4946,-9.4946,-9.4802,-9.4802,-9.4802,-9.4802,-9.485,-9.4802,-9.4706,-9.4417,-9.4706,-9.4946,-9.6218,-9.8305,-10.1529,-10.3782,-10.6779,-11.0176,-11.2328,-11.3075,-11.3759,-11.4723,-11.4723,-11.4723,-11.4781,-11.4781,-11.5071,-11.5419,-11.5826,-11.6348,-11.7045,-11.7568,-11.809,-11.8206,-11.838,-11.8438,-11.838,-11.838,-11.8438,-11.8438,-11.8032,-11.7568,-11.7219,-11.6523,-11.5884,-11.5594,-11.5477,-11.5477,-11.5477,-11.5652,-11.5942,-11.6174,-11.6232,-11.6348,-11.6755,-11.7393,-11.7684,-11.7626,-11.8032,-11.8148,-11.7451,-11.6058,-11.5303,-11.4897,-11.4781,-11.4723,-11.4723,-11.4723,-11.4723,-11.4723,-11.4723,-11.4723,-11.4723,-11.4723,-11.4723,-11.4723,-11.4723,-11.4723,-11.4723,-11.4723,-11.4723,-11.4723,-11.4723,-11.4723,-11.4723,-11.4723,-11.4723,-11.4723,-11.4723,-11.4723,-11.4723,-11.4723,-11.5561,-11.683,-11.9092,-12.1897,-12.4906,-12.7911,-12.9338,-9.4321,-9.485,-9.4898,-9.4898,-9.4994,-9.4994,-9.4994,-9.4994,-9.4994,-9.4994,-9.4994,-9.4994,-9.4994,-9.4994,-9.4994,-9.4994,-9.4994,-9.4994,-9.4994,-9.4994,-9.4994,-9.4994,-9.4994,-9.4994,-9.4946,-9.4898,-9.4994,-9.5788,-9.7786,-10.082,-10.2786,-10.5752,-10.9176,-11.2097,-11.2788,-11.3759,-11.4213,-11.4723,-11.4723,-11.4723,-11.4723,-11.4723,-11.4839,-11.5013,-11.5303,-11.5594,-11.6058,-11.6639,-11.6929,-11.6987,-11.7916,-11.809,-11.7858,-11.7742,-11.7916,-11.8206,-11.7858,-11.7335,-11.6871,-11.6523,-11.5826,-11.5187,-11.4897,-11.4897,-11.5013,-11.5303,-11.5594,-11.6,-11.6639,-11.7219,-11.7393,-11.78,-11.7974,-11.7916,-11.8032,-11.8264,-11.7626,-11.6755,-11.5942,-11.5536,-11.5129,-11.4723,-11.4723,-11.4723,-11.4723,-11.4723,-11.4723,-11.4723,-11.4723,-11.4723,-11.4723,-11.4723,-11.4723,-11.4723,-11.4723,-11.4723,-11.4723,-11.4723,-11.4723,-11.4723,-11.4723,-11.4723,-11.4723,-11.4723,-11.4723,-11.4723,-11.4723,-11.4723,-11.5338,-11.667,-11.8878,-12.1279,-12.3918,-12.652,-12.8721,-9.4754,-9.4994,-9.4994,-9.4994,-9.4994,-9.4994,-9.4994,-9.4994,-9.4994,-9.4994,-9.4994,-9.4994,-9.4994,-9.4994,-9.4994,-9.4994,-9.4994,-9.4994,-9.4994,-9.4994,-9.4994,-9.4994,-9.4994,-9.4994,-9.4994,-9.4994,-9.4994,-9.6052,-9.8095,-9.98,-10.3035,-10.5996,-10.9413,-11.1345,-11.2788,-11.3986,-11.4497,-11.4723,-11.4723,-11.4723,-11.4723,-11.4723,-11.4839,-11.5129,-11.5187,-11.5477,-11.6058,-11.6348,-11.6639,-11.6755,-11.7161,-11.7451,-11.7393,-11.7103,-11.7045,-11.7684,-11.7451,-11.6987,-11.6464,-11.6116,-11.5419,-11.5245,-11.4897,-11.4723,-11.4781,-11.5013,-11.5303,-11.5768,-11.6348,-11.7103,-11.7045,-11.7684,-11.78,-11.78,-11.8148,-11.8322,-11.7916,-11.7161,-11.6581,-11.6,-11.5303,-11.4839,-11.4723,-11.4723,-11.4723,-11.4723,-11.4723,-11.4723,-11.4723,-11.4723,-11.4723,-11.4723,-11.4723,-11.4723,-11.4723,-11.4723,-11.4723,-11.4723,-11.4723,-11.4723,-11.4723,-11.4723,-11.4723,-11.4723,-11.4723,-11.4723,-11.4948,-11.4948,-11.562,-11.6449,-11.8664,-12.0926,-12.2915,-12.5165,-12.7535,-9.4994,-9.4994,-9.4994,-9.4994,-9.4994,-9.4994,-9.4994,-9.4994,-9.4994,-9.4994,-9.4994,-9.4994,-9.4994,-9.4994,-9.4994,-9.4994,-9.4994,-9.4994,-9.4994,-9.4994,-9.4994,-9.4994,-9.4994,-9.4994,-9.4994,-9.4994,-9.4994,-9.6052,-9.8095,-9.985,-10.2535,-10.6239,-10.8645,-11.0823,-11.3017,-11.4213,-11.4723,-11.4723,-11.4723,-11.4723,-11.4723,-11.4723,-11.4897,-11.5361,-11.5419,-11.5594,-11.5942,-11.6232,-11.6174,-11.6232,-11.6464,-11.6813,-11.6987,-11.6348,-11.629,-11.6929,-11.6639,-11.6464,-11.6174,-11.5652,-11.5245,-11.5187,-11.4955,-11.4781,-11.4723,-11.4839,-11.5013,-11.5594,-11.6232,-11.6697,-11.6813,-11.7335,-11.7684,-11.7742,-11.809,-11.8438,-11.809,-11.751,-11.6755,-11.6116,-11.5303,-11.4897,-11.4723,-11.4723,-11.4723,-11.4723,-11.4723,-11.4723,-11.4723,-11.4723,-11.4723,-11.4723,-11.4723,-11.4723,-11.4723,-11.4723,-11.4723,-11.4723,-11.4723,-11.4723,-11.4723,-11.4723,-11.4723,-11.4723,-11.4723,-11.4723,-11.4948,-11.5172,-11.5843,-11.689,-11.8724,-12.0718,-12.3179,-12.4969,-12.6902,-9.4994,-9.4994,-9.4994,-9.4994,-9.4994,-9.4994,-9.4994,-9.4994,-9.4994,-9.4994,-9.4994,-9.4994,-9.4994,-9.4994,-9.4994,-9.4994,-9.4994,-9.4994,-9.4994,-9.4994,-9.4994,-9.4994,-9.4994,-9.4994,-9.4994,-9.4994,-9.4994,-9.6315,-9.8095,-10.0566,-10.3977,-10.7208,-10.9885,-11.2788,-11.3532,-11.4213,-11.4723,-11.4723,-11.4723,-11.4723,-11.4723,-11.4723,-11.4781,-11.4839,-11.4897,-11.4955,-11.5245,-11.5477,-11.5536,-11.5245,-11.6058,-11.629,-11.6058,-11.6348,-11.6116,-11.6,-11.5768,-11.571,-11.5652,-11.5419,-11.5129,-11.5013,-11.4781,-11.4723,-11.4723,-11.4723,-11.4955,-11.5536,-11.6116,-11.6464,-11.6639,-11.7626,-11.7916,-11.7974,-11.8148,-11.838,-11.8264,-11.7393,-11.6697,-11.6116,-11.5303,-11.4955,-11.4723,-11.4723,-11.4723,-11.4723,-11.4723,-11.4723,-11.4723,-11.4723,-11.4723,-11.4723,-11.4723,-11.4723,-11.4723,-11.4723,-11.4723,-11.4723,-11.4723,-11.4723,-11.4723,-11.4723,-11.4723,-11.4723,-11.4723,-11.4723,-11.4723,-11.5172,-11.5843,-11.667,-11.7922,-12.0509,-12.3781,-12.5165,-12.6329,-9.4994,-9.4994,-9.4994,-9.4994,-9.4994,-9.4994,-9.4994,-9.4994,-9.4994,-9.4994,-9.4994,-9.4994,-9.4994,-9.4994,-9.4994,-9.4994,-9.4994,-9.4994,-9.4994,-9.4994,-9.4994,-9.4994,-9.4994,-9.4994,-9.4994,-9.4994,-9.4994,-9.5259,-9.7265,-10.0055,-10.3285,-10.6049,-10.8994,-11.1169,-11.2845,-11.3303,-11.3986,-11.4497,-11.4723,-11.4723,-11.4723,-11.4723,-11.4723,-11.4723,-11.4723,-11.4723,-11.4781,-11.4897,-11.5013,-11.4781,-11.5361,-11.5594,-11.5536,-11.5594,-11.5477,-11.571,-11.5303,-11.5129,-11.5071,-11.5129,-11.4955,-11.4839,-11.4723,-11.4723,-11.4723,-11.4723,-11.4781,-11.5071,-11.5361,-11.5652,-11.6116,-11.6871,-11.7393,-11.7684,-11.8032,-11.809,-11.7916,-11.7161,-11.6464,-11.5884,-11.5361,-11.5013,-11.4723,-11.4723,-11.4723,-11.4723,-11.4723,-11.4723,-11.4723,-11.4723,-11.4723,-11.4723,-11.4723,-11.4723,-11.4723,-11.4723,-11.4723,-11.4723,-11.4723,-11.4723,-11.4723,-11.4723,-11.4723,-11.4723,-11.4723,-11.4723,-11.4723,-11.5172,-11.5843,-11.6449,-11.689,-11.9729,-12.2572,-12.4576,-12.6072,-9.4994,-9.4994,-9.4994,-9.4994,-9.4994,-9.4994,-9.4994,-9.4994,-9.4994,-9.4994,-9.4994,-9.4994,-9.4994,-9.4994,-9.4994,-9.4994,-9.4994,-9.4994,-9.4994,-9.4994,-9.4994,-9.4994,-9.4994,-9.4994,-9.4994,-9.4994,-9.4994,-9.5259,-9.6266,-9.9079,-10.2085,-10.4136,-10.7853,-10.976,-11.1169,-11.2328,-11.3532,-11.4723,-11.4723,-11.4723,-11.4723,-11.4723,-11.4723,-11.4723,-11.4723,-11.4723,-11.4723,-11.4723,-11.4723,-11.4723,-11.4781,-11.5013,-11.5187,-11.5071,-11.5071,-11.5187,-11.4955,-11.4781,-11.4781,-11.4781,-11.4723,-11.4723,-11.4723,-11.4723,-11.4723,-11.4723,-11.4723,-11.4781,-11.5071,-11.5245,-11.5477,-11.629,-11.6987,-11.7451,-11.78,-11.78,-11.7568,-11.6813,-11.6174,-11.5768,-11.5303,-11.4897,-11.4723,-11.4723,-11.4723,-11.4723,-11.4723,-11.4723,-11.4723,-11.4723,-11.4723,-11.4723,-11.4723,-11.4723,-11.4723,-11.4723,-11.4723,-11.4723,-11.4723,-11.4723,-11.4723,-11.4723,-11.4723,-11.4723,-11.4723,-11.4723,-11.4723,-11.5396,-11.6065,-11.6449,-11.7328,-11.8784,-12.0779,-12.338,-12.6136,-9.4994,-9.4994,-9.4994,-9.4994,-9.4994,-9.4994,-9.4994,-9.4994,-9.4994,-9.4994,-9.4994,-9.4994,-9.4994,-9.4994,-9.4994,-9.4994,-9.4994,-9.4994,-9.4994,-9.4994,-9.4994,-9.4994,-9.4994,-9.4994,-9.4994,-9.4994,-9.4994,-9.4994,-9.6003,-9.9079,-10.158,-10.3534,-10.6833,-10.9287,-11.1169,-11.2328,-11.3532,-11.4497,-11.4723,-11.4723,-11.4723,-11.4723,-11.4723,-11.4723,-11.4723,-11.4723,-11.4723,-11.4723,-11.4723,-11.4723,-11.4723,-11.4723,-11.4897,-11.4781,-11.4839,-11.4839,-11.4839,-11.4723,-11.4723,-11.4723,-11.4723,-11.4723,-11.4723,-11.4723,-11.4723,-11.4723,-11.4723,-11.4723,-11.5013,-11.5129,-11.5536,-11.6174,-11.6929,-11.7277,-11.7568,-11.7568,-11.7161,-11.6348,-11.5826,-11.5536,-11.5187,-11.4839,-11.4723,-11.4723,-11.4723,-11.4723,-11.4723,-11.4723,-11.4723,-11.4723,-11.4723,-11.4723,-11.4723,-11.4723,-11.4723,-11.4723,-11.4723,-11.4723,-11.4723,-11.4723,-11.4723,-11.4723,-11.4723,-11.4723,-11.4723,-11.4723,-11.4948,-11.562,-11.6228,-11.667,-11.7704,-11.9729,-12.2572,-12.575,-12.7911,-9.4994,-9.4994,-9.4994,-9.4994,-9.4994,-9.4994,-9.4994,-9.4994,-9.4994,-9.4994,-9.4994,-9.4994,-9.4994,-9.4994,-9.4994,-9.4994,-9.4994,-9.4994,-9.4994,-9.4994,-9.4994,-9.4994,-9.4994,-9.4994,-9.4994,-9.4994,-9.4994,-9.4994,-9.5524,-9.9079,-10.082,-10.3088,-10.5859,-10.8811,-11.0701,-11.2558,-11.3986,-11.4439,-11.4723,-11.4723,-11.4723,-11.4723,-11.4723,-11.4723,-11.4723,-11.4723,-11.4723,-11.4723,-11.4723,-11.4723,-11.4723,-11.4723,-11.4723,-11.4723,-11.4723,-11.4723,-11.4723,-11.4723,-11.4723,-11.4723,-11.4723,-11.4723,-11.4723,-11.4723,-11.4723,-11.4723,-11.4723,-11.4781,-11.4897,-11.5013,-11.5536,-11.629,-11.6929,-11.7161,-11.7277,-11.7277,-11.6871,-11.6058,-11.5477,-11.5187,-11.5013,-11.4723,-11.4723,-11.4723,-11.4723,-11.4723,-11.4723,-11.4723,-11.4723,-11.4723,-11.4723,-11.4723,-11.4723,-11.4723,-11.4723,-11.4723,-11.4723,-11.4723,-11.4723,-11.4723,-11.4723,-11.4723,-11.4723,-11.4723,-11.4723,-11.4723,-11.4948,-11.5784,-11.6228,-11.667,-11.8724,-12.1341,-12.4512,-12.7911,-12.9338,-9.4994,-9.4994,-9.4994,-9.4994,-9.4994,-9.4994,-9.4994,-9.4994,-9.4994,-9.4994,-9.4994,-9.4994,-9.4994,-9.4994,-9.4994,-9.4994,-9.4994,-9.4994,-9.4994,-9.4994,-9.4994,-9.4994,-9.4994,-9.4994,-9.4994,-9.4994,-9.4994,-9.4994,-9.5259,-9.8563,-10.0362,-10.2085,-10.4383,-10.7371,-11.0288,-11.2845,-11.4271,-11.4723,-11.4723,-11.4723,-11.4723,-11.4723,-11.4723,-11.4723,-11.4723,-11.4723,-11.4723,-11.4723,-11.4723,-11.4723,-11.4723,-11.4723,-11.4723,-11.4723,-11.4723,-11.4723,-11.4723,-11.4723,-11.4723,-11.4723,-11.4723,-11.4723,-11.4723,-11.4723,-11.4723,-11.4723,-11.4723,-11.4723,-11.4723,-11.4897,-11.5419,-11.6116,-11.6697,-11.6987,-11.7045,-11.6987,-11.6523,-11.5884,-11.5303,-11.4839,-11.4723,-11.4723,-11.4723,-11.4723,-11.4723,-11.4723,-11.4723,-11.4723,-11.4723,-11.4723,-11.4723,-11.4723,-11.4723,-11.4723,-11.4723,-11.4723,-11.4723,-11.4723,-11.4723,-11.4723,-11.4723,-11.4723,-11.4723,-11.4723,-11.4723,-11.4723,-11.5172,-11.5784,-11.6228,-11.6449,-11.9517,-12.2915,-12.5492,-12.8535,-12.9521,-9.4994,-9.4994,-9.4994,-9.4994,-9.4994,-9.4994,-9.4994,-9.4994,-9.4994,-9.4994,-9.4994,-9.4994,-9.4994,-9.4994,-9.4994,-9.4994,-9.4994,-9.4994,-9.4994,-9.4994,-9.4994,-9.4994,-9.4994,-9.4994,-9.4994,-9.4994,-9.4994,-9.4994,-9.4994,-9.7575,-9.9337,-10.1327,-10.3887,-10.6644,-10.9287,-11.1634,-11.3532,-11.4497,-11.4723,-11.4723,-11.4723,-11.4723,-11.4723,-11.4723,-11.4723,-11.4723,-11.4723,-11.4723,-11.4723,-11.4723,-11.4723,-11.4723,-11.4723,-11.4723,-11.4723,-11.4723,-11.4723,-11.4723,-11.4723,-11.4723,-11.4723,-11.4723,-11.4723,-11.4723,-11.4723,-11.4723,-11.4723,-11.4723,-11.4723,-11.4723,-11.5187,-11.5826,-11.6406,-11.6871,-11.6929,-11.6755,-11.629,-11.5594,-11.5013,-11.4781,-11.4723,-11.4723,-11.4723,-11.4723,-11.4723,-11.4723,-11.4723,-11.4723,-11.4723,-11.4723,-11.4723,-11.4723,-11.4723,-11.4723,-11.4723,-11.4723,-11.4723,-11.4723,-11.4723,-11.4723,-11.4723,-11.4723,-11.4723,-11.4723,-11.4723,-11.4723,-11.5172,-11.5561,-11.667,-11.7862,-12.1341,-12.4773,-12.7157,-12.9089,-13.0066,-9.4994,-9.4994,-9.4994,-9.4994,-9.4994,-9.4994,-9.4994,-9.4994,-9.4994,-9.4994,-9.4994,-9.4994,-9.4994,-9.4994,-9.4994,-9.4994,-9.4994,-9.4994,-9.4994,-9.4994,-9.4994,-9.4994,-9.4994,-9.4994,-9.4994,-9.4994,-9.4994,-9.4994,-9.4994,-9.6791,-9.8095,-9.985,-10.403,-10.7744,-11.0467,-11.2615,-11.4439,-11.4723,-11.4723,-11.4723,-11.4723,-11.4723,-11.4723,-11.4723,-11.4723,-11.4723,-11.4723,-11.4723,-11.4723,-11.4723,-11.4723,-11.4723,-11.4723,-11.4723,-11.4723,-11.4723,-11.4723,-11.4723,-11.4723,-11.4723,-11.4723,-11.4723,-11.4723,-11.4723,-11.4723,-11.4723,-11.4723,-11.4723,-11.4723,-11.4839,-11.5419,-11.6058,-11.6697,-11.7103,-11.7161,-11.6813,-11.629,-11.5361,-11.4723,-11.4723,-11.4723,-11.4723,-11.4723,-11.4723,-11.4723,-11.4723,-11.4723,-11.4723,-11.4723,-11.4723,-11.4723,-11.4723,-11.4723,-11.4723,-11.4723,-11.4723,-11.4723,-11.4723,-11.4723,-11.4723,-11.4723,-11.4723,-11.4723,-11.4723,-11.4723,-11.4723,-11.5396,-11.6006,-11.7862,-11.994,-12.2572,-12.5165,-12.7282,-12.9089,-13.0493,-9.4994,-9.4994,-9.4994,-9.4994,-9.4994,-9.4994,-9.4994,-9.4994,-9.4994,-9.4994,-9.4994,-9.4994,-9.4994,-9.4994,-9.4994,-9.4994,-9.4994,-9.4994,-9.4994,-9.4994,-9.4994,-9.4994,-9.4994,-9.4994,-9.4994,-9.4994,-9.4994,-9.4994,-9.4994,-9.6315,-9.7835,-10.0311,-10.4471,-10.7984,-11.0645,-11.3075,-11.4723,-11.4723,-11.4723,-11.4723,-11.4723,-11.4723,-11.4723,-11.4723,-11.4723,-11.4723,-11.4723,-11.4723,-11.4723,-11.4723,-11.4723,-11.4723,-11.4723,-11.4723,-11.4723,-11.4723,-11.4723,-11.4723,-11.4723,-11.4723,-11.4723,-11.4723,-11.4723,-11.4723,-11.4723,-11.4723,-11.4723,-11.4723,-11.4723,-11.5071,-11.5594,-11.6232,-11.6813,-11.7219,-11.7161,-11.6813,-11.6348,-11.5477,-11.4723,-11.4723,-11.4781,-11.4723,-11.4723,-11.4723,-11.4723,-11.4723,-11.4723,-11.4723,-11.4723,-11.4723,-11.4723,-11.4723,-11.4723,-11.4723,-11.4723,-11.4723,-11.4723,-11.4723,-11.4723,-11.4723,-11.4723,-11.4723,-11.4723,-11.4723,-11.4723,-11.4948,-11.5338,-11.6449,-11.7704,-11.9729,-12.2368,-12.4969,-12.7282,-12.9089,-13.0672,-9.4994,-9.4994,-9.4994,-9.4994,-9.4994,-9.4994,-9.4994,-9.4994,-9.4994,-9.4994,-9.4994,-9.4994,-9.4994,-9.4994,-9.4994,-9.4994,-9.4994,-9.4994,-9.4994,-9.4994,-9.4994,-9.4994,-9.4994,-9.4994,-9.4994,-9.4994,-9.4994,-9.4994,-9.4994,-9.5524,-9.7314,-10.082,-10.403,-10.7503,-11.0645,-11.3075,-11.4213,-11.4497,-11.4723,-11.4723,-11.4723,-11.4723,-11.4723,-11.4723,-11.4723,-11.4723,-11.4723,-11.4723,-11.4723,-11.4723,-11.4723,-11.4723,-11.4723,-11.4723,-11.4723,-11.4723,-11.4723,-11.4723,-11.4723,-11.4723,-11.4723,-11.4723,-11.4723,-11.4723,-11.4723,-11.4723,-11.4723,-11.4723,-11.4723,-11.5187,-11.5652,-11.629,-11.6929,-11.7045,-11.7103,-11.6813,-11.6464,-11.5768,-11.5013,-11.4781,-11.4839,-11.4839,-11.4781,-11.4781,-11.5013,-11.4781,-11.4781,-11.4839,-11.4781,-11.4723,-11.4723,-11.4723,-11.4723,-11.4723,-11.4723,-11.4723,-11.4723,-11.4723,-11.4723,-11.4723,-11.4723,-11.4723,-11.4723,-11.4723,-11.4723,-11.5172,-11.5784,-11.6449,-11.7109,-11.9365,-12.1815,-12.3981,-12.6136,-12.9089,-13.0917,-9.4994,-9.4994,-9.4994,-9.4994,-9.4994,-9.4994,-9.4994,-9.4994,-9.4994,-9.4994,-9.4994,-9.4994,-9.4994,-9.4994,-9.4994,-9.4994,-9.4994,-9.4994,-9.4994,-9.4994,-9.4994,-9.4994,-9.4994,-9.4994,-9.4994,-9.4994,-9.4994,-9.4994,-9.4994,-9.4994,-9.7786,-10.2033,-10.3285,-10.6482,-10.9941,-11.2558,-11.3532,-11.4439,-11.4497,-11.4723,-11.4723,-11.4723,-11.4723,-11.4723,-11.4723,-11.4723,-11.4723,-11.4723,-11.4723,-11.4723,-11.4723,-11.4723,-11.4723,-11.4723,-11.4723,-11.4723,-11.4723,-11.4723,-11.4723,-11.4723,-11.4723,-11.4723,-11.4723,-11.4723,-11.4723,-11.4723,-11.4723,-11.4723,-11.4839,-11.5303,-11.5942,-11.6581,-11.7219,-11.7568,-11.7451,-11.7045,-11.6697,-11.6116,-11.5361,-11.4955,-11.5013,-11.4955,-11.4897,-11.5303,-11.5419,-11.5071,-11.4897,-11.4897,-11.4839,-11.4781,-11.4723,-11.4723,-11.4723,-11.4723,-11.4723,-11.4723,-11.4723,-11.4723,-11.4723,-11.4723,-11.4723,-11.4723,-11.4723,-11.4723,-11.4948,-11.5561,-11.6228,-11.689,-11.7328,-11.8354,-12.0631,-12.2775,-12.5165,-12.8098,-13.0672,-9.4994,-9.4994,-9.4994,-9.4994,-9.4994,-9.4994,-9.4994,-9.4994,-9.4994,-9.4994,-9.4994,-9.4994,-9.4994,-9.4994,-9.4994,-9.4994,-9.4994,-9.4994,-9.4994,-9.4994,-9.4994,-9.4994,-9.4994,-9.4994,-9.4994,-9.4994,-9.4994,-9.4994,-9.4994,-9.5524,-9.7525,-10.158,-10.2284,-10.5507,-10.8994,-11.1402,-11.2558,-11.3759,-11.4213,-11.4723,-11.4723,-11.4723,-11.4723,-11.4723,-11.4723,-11.4723,-11.4723,-11.4723,-11.4723,-11.4723,-11.4723,-11.4723,-11.4723,-11.4723,-11.4723,-11.4723,-11.4723,-11.4723,-11.4723,-11.4723,-11.4723,-11.4723,-11.4723,-11.4897,-11.4897,-11.4897,-11.4781,-11.4723,-11.5013,-11.5419,-11.6174,-11.6929,-11.7626,-11.8322,-11.7916,-11.7451,-11.6929,-11.6406,-11.5884,-11.5303,-11.5129,-11.5129,-11.5303,-11.571,-11.571,-11.5129,-11.4839,-11.4839,-11.4781,-11.4723,-11.4723,-11.4723,-11.4723,-11.4723,-11.4665,-11.4607,-11.4607,-11.4607,-11.4723,-11.4723,-11.4723,-11.4665,-11.4607,-11.489,-11.5172,-11.5784,-11.6449,-11.689,-11.7487,-11.857,-12.0212,-12.2775,-12.4969,-12.7092,-12.9089,-9.4994,-9.4994,-9.4994,-9.4994,-9.4994,-9.4994,-9.4994,-9.4994,-9.4994,-9.4994,-9.4994,-9.4994,-9.4994,-9.4994,-9.4994,-9.4994,-9.4994,-9.4994,-9.4994,-9.4994,-9.4994,-9.4994,-9.4994,-9.4994,-9.4994,-9.4994,-9.4994,-9.4994,-9.4994,-9.5524,-9.7053,-10.0871,-10.1327,-10.4083,-10.8333,-11.0467,-11.1866,-11.2558,-11.3986,-11.4723,-11.4723,-11.4723,-11.4723,-11.4723,-11.4723,-11.4723,-11.4723,-11.4723,-11.4723,-11.4723,-11.4723,-11.4723,-11.4723,-11.4723,-11.4723,-11.4723,-11.4723,-11.4723,-11.4723,-11.4723,-11.4723,-11.4723,-11.4723,-11.4897,-11.4955,-11.5071,-11.5013,-11.5303,-11.5652,-11.6058,-11.6755,-11.7161,-11.7742,-11.8206,-11.8148,-11.7742,-11.7277,-11.6755,-11.6116,-11.571,-11.5652,-11.5594,-11.5361,-11.5768,-11.6058,-11.5245,-11.5071,-11.5129,-11.4781,-11.4723,-11.4665,-11.4665,-11.4723,-11.4665,-11.4432,-11.4374,-11.4374,-11.4432,-11.4432,-11.4316,-11.4026,-11.42,-11.4549,-11.4657,-11.4823,-11.5667,-11.639,-11.683,-11.7487,-11.8354,-12.0212,-12.2977,-12.5165,-12.652,-12.8349,-9.4994,-9.4994,-9.4994,-9.4994,-9.4994,-9.4994,-9.4994,-9.4994,-9.4994,-9.4994,-9.4994,-9.4994,-9.4994,-9.4994,-9.4994,-9.4994,-9.4994,-9.4994,-9.4994,-9.4994,-9.4994,-9.4994,-9.4994,-9.4994,-9.4994,-9.4994,-9.4994,-9.4994,-9.4994,-9.5524,-9.7053,-10.0617,-10.1125,-10.339,-10.7425,-10.9524,-11.1169,-11.1866,-11.3532,-11.4723,-11.4723,-11.4723,-11.4723,-11.4723,-11.4723,-11.4723,-11.4723,-11.4723,-11.4723,-11.4723,-11.4723,-11.4723,-11.4723,-11.4723,-11.4723,-11.4723,-11.4723,-11.4723,-11.4723,-11.4723,-11.4723,-11.4723,-11.4723,-11.4781,-11.4955,-11.5245,-11.5536,-11.5884,-11.6348,-11.6813,-11.7161,-11.751,-11.78,-11.809,-11.838,-11.8032,-11.7684,-11.7103,-11.6406,-11.6232,-11.6174,-11.5942,-11.5652,-11.571,-11.6058,-11.6174,-11.6174,-11.5942,-11.5071,-11.4723,-11.4607,-11.4607,-11.4665,-11.4607,-11.4316,-11.4084,-11.4084,-11.3736,-11.3562,-11.3445,-11.3329,-11.3503,-11.3736,-11.4075,-11.4356,-11.5198,-11.6036,-11.6771,-11.7427,-11.8114,-12.0029,-12.2588,-12.4252,-12.5879,-12.7911,-9.4994,-9.4994,-9.4994,-9.4994,-9.4994,-9.4994,-9.4994,-9.4994,-9.4994,-9.4994,-9.4994,-9.4994,-9.4994,-9.4994,-9.4994,-9.4994,-9.4994,-9.4994,-9.4994,-9.4994,-9.4994,-9.4994,-9.4994,-9.4994,-9.4994,-9.4994,-9.4994,-9.4994,-9.4994,-9.5259,-9.6791,-9.9594,-10.0617,-10.2639,-10.6157,-10.8811,-11.0935,-11.1169,-11.3532,-11.4497,-11.4723,-11.4723,-11.4723,-11.4723,-11.4723,-11.4723,-11.4723,-11.4723,-11.4723,-11.4723,-11.4723,-11.4723,-11.4723,-11.4723,-11.4723,-11.4723,-11.4723,-11.4723,-11.4723,-11.4723,-11.4723,-11.4723,-11.4723,-11.4781,-11.5245,-11.5477,-11.5536,-11.5942,-11.6813,-11.7277,-11.751,-11.78,-11.809,-11.838,-11.8438,-11.8264,-11.8148,-11.7858,-11.7103,-11.6406,-11.6232,-11.5942,-11.5594,-11.5129,-11.5419,-11.5419,-11.571,-11.5826,-11.5071,-11.4723,-11.4607,-11.449,-11.4549,-11.4607,-11.449,-11.4142,-11.3736,-11.3329,-11.2749,-11.2865,-11.2923,-11.2865,-11.2923,-11.3377,-11.3773,-11.4494,-11.5388,-11.6179,-11.6713,-11.7061,-11.9359,-12.1871,-12.3603,-12.5431,-12.7903,-9.4994,-9.4994,-9.4994,-9.4994,-9.4994,-9.4994,-9.4994,-9.4994,-9.4994,-9.4994,-9.4994,-9.4994,-9.4994,-9.4994,-9.4994,-9.4994,-9.4994,-9.4994,-9.4994,-9.4994,-9.4994,-9.4994,-9.4994,-9.4994,-9.4994,-9.4994,-9.4994,-9.4994,-9.4994,-9.5259,-9.6052,-9.8095,-10.0106,-10.2136,-10.4877,-10.8278,-11.0935,-11.1634,-11.3075,-11.4497,-11.4723,-11.4723,-11.4723,-11.4723,-11.4723,-11.4723,-11.4723,-11.4723,-11.4723,-11.4723,-11.4723,-11.4723,-11.4723,-11.4723,-11.4723,-11.4723,-11.4723,-11.4723,-11.4723,-11.4723,-11.4723,-11.4723,-11.4723,-11.4897,-11.5361,-11.5652,-11.5652,-11.6174,-11.7045,-11.7626,-11.7858,-11.809,-11.8322,-11.8496,-11.8496,-11.8438,-11.838,-11.8264,-11.7451,-11.6639,-11.6174,-11.5826,-11.5477,-11.4955,-11.4839,-11.4781,-11.4781,-11.4781,-11.4723,-11.4723,-11.4607,-11.4432,-11.4316,-11.4432,-11.42,-11.391,-11.3329,-11.2633,-11.211,-11.2342,-11.2458,-11.2168,-11.2168,-11.2517,-11.3132,-11.363,-11.4404,-11.5134,-11.5546,-11.6129,-11.8688,-12.1048,-12.3242,-12.5367,-12.8252,-9.4994,-9.4994,-9.4994,-9.4994,-9.4994,-9.4994,-9.4994,-9.4994,-9.4994,-9.4994,-9.4994,-9.4994,-9.4994,-9.4994,-9.4994,-9.4994,-9.4994,-9.4994,-9.4994,-9.4994,-9.4994,-9.4994,-9.4994,-9.4994,-9.4994,-9.4994,-9.4994,-9.4994,-9.4994,-9.4994,-9.6052,-9.7835,-10.0106,-10.2136,-10.4631,-10.8038,-11.1169,-11.1634,-11.3075,-11.4723,-11.4723,-11.4723,-11.4723,-11.4723,-11.4723,-11.4723,-11.4723,-11.4723,-11.4723,-11.4723,-11.4723,-11.4723,-11.4723,-11.4723,-11.4723,-11.4723,-11.4723,-11.4723,-11.4723,-11.4723,-11.4723,-11.4723,-11.4723,-11.4723,-11.5245,-11.5826,-11.5942,-11.629,-11.7045,-11.7742,-11.8032,-11.8264,-11.8496,-11.8496,-11.8496,-11.8206,-11.809,-11.78,-11.7277,-11.6523,-11.5884,-11.5652,-11.5477,-11.5245,-11.5245,-11.5187,-11.5187,-11.5129,-11.4723,-11.4665,-11.4665,-11.4374,-11.4084,-11.3213,-11.2575,-11.3097,-11.2691,-11.1994,-11.1471,-11.1646,-11.1588,-11.1239,-11.1355,-11.182,-11.2272,-11.2827,-11.3598,-11.4307,-11.513,-11.5924,-11.7933,-12.0366,-12.2548,-12.4916,-12.7599]}]]